Wetterdaten: Sonntag, 29.10.2017
Datum Zeit Temp. A. Pool Temp. Feuchte A. Luftdruck Regen Wind Richtung Richtung Sonnenschein ET UV Solar Taupunkt Windchill Windben Empfang
29.10.2017 00:00 9,7 C 9,4 C 65 % 1013,7 hPa 0,0 l/m 37,9 km/h (5 Bft) W-SW 254 0 min 0,000 mm 0,0 UV-I 0 W/m 3,4 C -1,2 C 67,6 km/h (8 Bft) 96,15 %
29.10.2017 00:02 9,6 C 9,4 C 67 % 1013,7 hPa 0,0 l/m 34,3 km/h (5 Bft) W 277 0 min 0,000 mm 0,0 UV-I 0 W/m 3,8 C -0,8 C 53,1 km/h (7 Bft) 94,29 %
29.10.2017 00:03 9,4 C 9,4 C 68 % 1013,7 hPa 0,0 l/m 33,4 km/h (5 Bft) W 275 0 min 0,000 mm 0,0 UV-I 0 W/m 3,8 C -0,9 C 53,1 km/h (7 Bft) 100,00 %
29.10.2017 00:04 9,3 C 9,4 C 69 % 1013,7 hPa 0,0 l/m 38,5 km/h (5 Bft) W-SW 249 0 min 0,000 mm 0,0 UV-I 0 W/m 3,9 C -1,9 C 59,5 km/h (7 Bft) 88,46 %
29.10.2017 00:05 9,2 C 9,4 C 69 % 1013,8 hPa 0,0 l/m 32,8 km/h (5 Bft) W-SW 253 0 min 0,000 mm 0,0 UV-I 0 W/m 3,8 C -1,1 C 54,7 km/h (7 Bft) 95,83 %
29.10.2017 00:06 9,2 C 9,4 C 70 % 1013,7 hPa 0,0 l/m 29,5 km/h (5 Bft) W 259 0 min 0,000 mm 0,0 UV-I 0 W/m 4,0 C -0,4 C 43,5 km/h (6 Bft) 100,00 %
29.10.2017 00:07 9,0 C 9,4 C 71 % 1013,7 hPa 0,0 l/m 28,8 km/h (4 Bft) W 263 0 min 0,000 mm 0,0 UV-I 0 W/m 4,0 C -0,5 C 40,2 km/h (6 Bft) 96,30 %
29.10.2017 00:08 8,9 C 9,4 C 71 % 1013,8 hPa 0,0 l/m 30,4 km/h (5 Bft) W 263 0 min 0,000 mm 0,0 UV-I 0 W/m 3,9 C -1,0 C 49,9 km/h (6 Bft) 100,00 %
29.10.2017 00:09 8,8 C 9,4 C 72 % 1013,7 hPa 0,0 l/m 21,3 km/h (4 Bft) SW 229 0 min 0,000 mm 0,0 UV-I 0 W/m 4,0 C 1,3 C 30,6 km/h (5 Bft) 92,59 %
29.10.2017 00:10 8,7 C 9,4 C 73 % 1013,9 hPa 0,0 l/m 32,9 km/h (5 Bft) W-SW 249 0 min 0,000 mm 0,0 UV-I 0 W/m 4,1 C -1,8 C 49,9 km/h (6 Bft) 100,00 %
29.10.2017 00:11 8,6 C 9,4 C 73 % 1013,9 hPa 0,0 l/m 27,1 km/h (4 Bft) W-SW 257 0 min 0,000 mm 0,0 UV-I 0 W/m 4,0 C -0,6 C 45,1 km/h (6 Bft) 96,15 %
29.10.2017 00:12 8,4 C 9,4 C 74 % 1013,9 hPa 0,0 l/m 26,2 km/h (4 Bft) S-SW 213 0 min 0,000 mm 0,0 UV-I 0 W/m 4,0 C -0,7 C 37,0 km/h (5 Bft) 100,00 %
29.10.2017 00:13 8,3 C 9,4 C 74 % 1013,9 hPa 0,0 l/m 17,3 km/h (3 Bft) W 260 0 min 0,000 mm 0,0 UV-I 0 W/m 3,9 C 2,1 C 22,5 km/h (4 Bft) 87,50 %
29.10.2017 00:14 8,3 C 9,4 C 76 % 1013,9 hPa 0,0 l/m 18,7 km/h (3 Bft) W-SW 238 0 min 0,000 mm 0,0 UV-I 0 W/m 4,3 C 1,6 C 24,1 km/h (4 Bft) 100,00 %
29.10.2017 00:15 8,2 C 9,4 C 76 % 1013,9 hPa 0,2 l/m 32,5 km/h (5 Bft) W 264 0 min 0,000 mm 0,0 UV-I 0 W/m 4,2 C -2,4 C 46,7 km/h (6 Bft) 92,31 %
29.10.2017 00:16 8,2 C 9,4 C 76 % 1013,8 hPa 0,0 l/m 20,9 km/h (4 Bft) W-SW 250 0 min 0,000 mm 0,0 UV-I 0 W/m 4,2 C 0,7 C 32,2 km/h (5 Bft) 100,00 %
29.10.2017 00:17 8,1 C 9,4 C 77 % 1013,7 hPa 0,0 l/m 24,0 km/h (4 Bft) W-SW 257 0 min 0,000 mm 0,0 UV-I 0 W/m 4,3 C -0,5 C 38,6 km/h (5 Bft) 93,10 %
29.10.2017 00:18 8,0 C 9,4 C 77 % 1013,7 hPa 0,0 l/m 25,8 km/h (4 Bft) W 275 0 min 0,000 mm 0,0 UV-I 0 W/m 4,2 C -1,1 C 33,8 km/h (5 Bft) 100,00 %
29.10.2017 00:19 7,9 C 9,4 C 77 % 1013,7 hPa 0,0 l/m 22,5 km/h (4 Bft) W-SW 257 0 min 0,000 mm 0,0 UV-I 0 W/m 4,1 C -0,3 C 27,4 km/h (4 Bft) 100,00 %
29.10.2017 00:20 7,9 C 9,4 C 78 % 1013,7 hPa 0,0 l/m 19,5 km/h (3 Bft) W-SW 238 0 min 0,000 mm 0,0 UV-I 0 W/m 4,3 C 0,8 C 25,7 km/h (4 Bft) 100,00 %
29.10.2017 00:21 7,9 C 9,4 C 78 % 1013,7 hPa 0,0 l/m 16,8 km/h (3 Bft) W-SW 248 0 min 0,000 mm 0,0 UV-I 0 W/m 4,3 C 1,8 C 20,9 km/h (4 Bft) 96,55 %
29.10.2017 00:22 7,8 C 9,4 C 79 % 1013,7 hPa 0,0 l/m 21,2 km/h (4 Bft) W-SW 254 0 min 0,000 mm 0,0 UV-I 0 W/m 4,4 C 0,0 C 30,6 km/h (5 Bft) 88,89 %
29.10.2017 00:23 7,8 C 9,4 C 79 % 1013,5 hPa 0,0 l/m 15,6 km/h (3 Bft) W 260 0 min 0,000 mm 0,0 UV-I 0 W/m 4,4 C 2,2 C 20,9 km/h (4 Bft) 100,00 %
29.10.2017 00:24 7,7 C 9,4 C 79 % 1013,5 hPa 0,0 l/m 18,1 km/h (3 Bft) W-SW 241 0 min 0,000 mm 0,0 UV-I 0 W/m 4,3 C 1,0 C 29,0 km/h (5 Bft) 100,00 %
29.10.2017 00:25 7,7 C 9,4 C 79 % 1013,5 hPa 0,0 l/m 18,0 km/h (3 Bft) W-SW 241 0 min 0,000 mm 0,0 UV-I 0 W/m 4,3 C 1,1 C 20,9 km/h (4 Bft) 100,00 %
29.10.2017 00:26 7,6 C 9,4 C 80 % 1013,5 hPa 0,0 l/m 26,2 km/h (4 Bft) W-SW 255 0 min 0,000 mm 0,0 UV-I 0 W/m 4,4 C -1,8 C 41,8 km/h (6 Bft) 100,00 %
29.10.2017 00:27 7,6 C 9,4 C 80 % 1013,5 hPa 0,2 l/m 26,5 km/h (4 Bft) W-SW 255 0 min 0,000 mm 0,0 UV-I 0 W/m 4,4 C -1,8 C 37,0 km/h (5 Bft) 100,00 %
29.10.2017 00:28 7,5 C 9,4 C 80 % 1013,6 hPa 0,0 l/m 22,1 km/h (4 Bft) W-SW 253 0 min 0,000 mm 0,0 UV-I 0 W/m 4,3 C -0,7 C 29,0 km/h (5 Bft) 100,00 %
29.10.2017 00:29 7,5 C 9,4 C 81 % 1013,6 hPa 0,0 l/m 18,7 km/h (3 Bft) W-SW 254 0 min 0,000 mm 0,0 UV-I 0 W/m 4,5 C 0,5 C 25,7 km/h (4 Bft) 100,00 %
29.10.2017 00:30 7,4 C 9,4 C 81 % 1013,6 hPa 0,0 l/m 15,3 km/h (3 Bft) W 261 0 min 0,000 mm 0,0 UV-I 0 W/m 4,4 C 1,8 C 19,3 km/h (3 Bft) 100,00 %
29.10.2017 00:31 7,4 C 9,4 C 82 % 1013,6 hPa 0,0 l/m 20,0 km/h (4 Bft) W-NW 292 0 min 0,000 mm 0,0 UV-I 0 W/m 4,5 C -0,1 C 25,7 km/h (4 Bft) 96,55 %
29.10.2017 00:32 7,4 C 9,4 C 83 % 1013,5 hPa 0,0 l/m 25,9 km/h (4 Bft) W 265 0 min 0,000 mm 0,0 UV-I 0 W/m 4,7 C -1,9 C 33,8 km/h (5 Bft) 100,00 %
29.10.2017 00:33 7,3 C 9,4 C 83 % 1013,5 hPa 0,0 l/m 20,0 km/h (4 Bft) W-SW 248 0 min 0,000 mm 0,0 UV-I 0 W/m 4,6 C -0,2 C 27,4 km/h (4 Bft) 100,00 %
29.10.2017 00:34 7,3 C 9,4 C 83 % 1013,4 hPa 0,0 l/m 25,0 km/h (4 Bft) W 269 0 min 0,000 mm 0,0 UV-I 0 W/m 4,6 C -1,8 C 32,2 km/h (5 Bft) 100,00 %
29.10.2017 00:35 7,2 C 9,4 C 83 % 1013,4 hPa 0,0 l/m 19,7 km/h (3 Bft) W 261 0 min 0,000 mm 0,0 UV-I 0 W/m 4,5 C -0,2 C 29,0 km/h (5 Bft) 100,00 %
29.10.2017 00:36 7,2 C 9,4 C 83 % 1013,4 hPa 0,2 l/m 25,1 km/h (4 Bft) W 261 0 min 0,000 mm 0,0 UV-I 0 W/m 4,5 C -2,0 C 33,8 km/h (5 Bft) 100,00 %
29.10.2017 00:37 7,2 C 9,4 C 83 % 1013,4 hPa 0,0 l/m 21,2 km/h (4 Bft) SW 229 0 min 0,000 mm 0,0 UV-I 0 W/m 4,5 C -0,8 C 32,2 km/h (5 Bft) 100,00 %
29.10.2017 00:38 7,2 C 9,4 C 84 % 1013,4 hPa 0,0 l/m 22,6 km/h (4 Bft) W 269 0 min 0,000 mm 0,0 UV-I 0 W/m 4,7 C -1,2 C 30,6 km/h (5 Bft) 100,00 %
29.10.2017 00:39 7,2 C 9,4 C 84 % 1013,4 hPa 0,0 l/m 17,9 km/h (3 Bft) SW 236 0 min 0,000 mm 0,0 UV-I 0 W/m 4,7 C 0,5 C 24,1 km/h (4 Bft) 100,00 %
29.10.2017 00:40 7,1 C 9,4 C 84 % 1013,4 hPa 0,0 l/m 21,5 km/h (4 Bft) W-SW 251 0 min 0,000 mm 0,0 UV-I 0 W/m 4,6 C -1,0 C 27,4 km/h (4 Bft) 100,00 %
29.10.2017 00:41 7,1 C 9,4 C 84 % 1013,4 hPa 0,0 l/m 23,8 km/h (4 Bft) W-SW 246 0 min 0,000 mm 0,0 UV-I 0 W/m 4,6 C -1,7 C 35,4 km/h (5 Bft) 100,00 %
29.10.2017 00:42 7,1 C 9,4 C 84 % 1013,3 hPa 0,0 l/m 23,3 km/h (4 Bft) SW 227 0 min 0,000 mm 0,0 UV-I 0 W/m 4,6 C -1,6 C 27,4 km/h (4 Bft) 100,00 %
29.10.2017 00:43 7,1 C 9,4 C 85 % 1013,3 hPa 0,2 l/m 20,8 km/h (4 Bft) W 266 0 min 0,000 mm 0,0 UV-I 0 W/m 4,8 C -0,7 C 27,4 km/h (4 Bft) 100,00 %
29.10.2017 00:44 7,0 C 9,4 C 85 % 1013,1 hPa 0,0 l/m 27,4 km/h (4 Bft) W-SW 244 0 min 0,000 mm 0,0 UV-I 0 W/m 4,7 C -2,9 C 35,4 km/h (5 Bft) 100,00 %
29.10.2017 00:45 7,0 C 9,4 C 85 % 1013,1 hPa 0,0 l/m 28,1 km/h (4 Bft) SW 235 0 min 0,000 mm 0,0 UV-I 0 W/m 4,7 C -3,1 C 37,0 km/h (5 Bft) 100,00 %
29.10.2017 00:46 6,9 C 9,4 C 84 % 1013,0 hPa 0,0 l/m 23,6 km/h (4 Bft) W 261 0 min 0,000 mm 0,0 UV-I 0 W/m 4,4 C -1,9 C 29,0 km/h (5 Bft) 100,00 %
29.10.2017 00:47 6,9 C 9,4 C 84 % 1013,0 hPa 0,0 l/m 22,2 km/h (4 Bft) W-SW 253 0 min 0,000 mm 0,0 UV-I 0 W/m 4,4 C -1,5 C 32,2 km/h (5 Bft) 96,15 %
29.10.2017 00:48 6,9 C 9,4 C 84 % 1013,0 hPa 0,0 l/m 23,0 km/h (4 Bft) W-SW 241 0 min 0,000 mm 0,0 UV-I 0 W/m 4,4 C -1,8 C 29,0 km/h (5 Bft) 96,55 %
29.10.2017 00:49 6,9 C 9,4 C 85 % 1012,9 hPa 0,0 l/m 27,5 km/h (4 Bft) W 268 0 min 0,000 mm 0,0 UV-I 0 W/m 4,6 C -3,1 C 38,6 km/h (5 Bft) 100,00 %
29.10.2017 00:50 6,9 C 9,4 C 85 % 1013,0 hPa 0,2 l/m 21,6 km/h (4 Bft) S-SW 208 0 min 0,000 mm 0,0 UV-I 0 W/m 4,6 C -1,3 C 30,6 km/h (5 Bft) 100,00 %
29.10.2017 00:51 6,9 C 9,4 C 85 % 1012,9 hPa 0,0 l/m 17,8 km/h (3 Bft) S-SW 210 0 min 0,000 mm 0,0 UV-I 0 W/m 4,6 C 0,1 C 29,0 km/h (5 Bft) 100,00 %
29.10.2017 00:52 6,9 C 9,4 C 85 % 1012,9 hPa 0,0 l/m 20,4 km/h (4 Bft) SW 225 0 min 0,000 mm 0,0 UV-I 0 W/m 4,6 C -0,9 C 27,4 km/h (4 Bft) 100,00 %
29.10.2017 00:53 6,8 C 9,4 C 85 % 1012,8 hPa 0,0 l/m 19,4 km/h (3 Bft) W-SW 251 0 min 0,000 mm 0,0 UV-I 0 W/m 4,5 C -0,6 C 27,4 km/h (4 Bft) 100,00 %
29.10.2017 00:54 6,8 C 9,4 C 85 % 1012,8 hPa 0,0 l/m 22,8 km/h (4 Bft) W-SW 246 0 min 0,000 mm 0,0 UV-I 0 W/m 4,5 C -1,8 C 29,0 km/h (5 Bft) 100,00 %
29.10.2017 00:55 6,8 C 9,4 C 85 % 1012,8 hPa 0,0 l/m 22,5 km/h (4 Bft) W-SW 257 0 min 0,000 mm 0,0 UV-I 0 W/m 4,5 C -1,7 C 41,8 km/h (6 Bft) 100,00 %
29.10.2017 00:56 6,8 C 9,4 C 85 % 1012,7 hPa 0,0 l/m 22,1 km/h (4 Bft) W-SW 240 0 min 0,000 mm 0,0 UV-I 0 W/m 4,5 C -1,6 C 35,4 km/h (5 Bft) 95,83 %
29.10.2017 00:57 6,8 C 9,4 C 85 % 1012,7 hPa 0,0 l/m 22,5 km/h (4 Bft) W 261 0 min 0,000 mm 0,0 UV-I 0 W/m 4,5 C -1,7 C 27,4 km/h (4 Bft) 100,00 %
29.10.2017 00:58 6,8 C 9,4 C 85 % 1012,6 hPa 0,0 l/m 21,6 km/h (4 Bft) W 261 0 min 0,000 mm 0,0 UV-I 0 W/m 4,5 C -1,4 C 29,0 km/h (5 Bft) 100,00 %
29.10.2017 00:59 6,8 C 9,4 C 85 % 1012,6 hPa 0,0 l/m 19,6 km/h (3 Bft) SW 221 0 min 0,000 mm 0,0 UV-I 0 W/m 4,5 C -0,7 C 29,0 km/h (5 Bft) 100,00 %
29.10.2017 01:00 6,8 C 9,4 C 86 % 1012,5 hPa 0,0 l/m 21,9 km/h (4 Bft) W-SW 238 0 min 0,051 mm 0,0 UV-I 0 W/m 4,6 C -1,5 C 27,4 km/h (4 Bft) 100,00 %
29.10.2017 01:01 6,8 C 9,4 C 85 % 1012,4 hPa 0,0 l/m 19,7 km/h (3 Bft) W 277 0 min 0,000 mm 0,0 UV-I 0 W/m 4,5 C -0,7 C 25,7 km/h (4 Bft) 100,00 %
29.10.2017 01:02 6,8 C 9,4 C 85 % 1012,4 hPa 0,0 l/m 20,0 km/h (4 Bft) W 269 0 min 0,000 mm 0,0 UV-I 0 W/m 4,5 C -0,8 C 24,1 km/h (4 Bft) 100,00 %
29.10.2017 01:03 6,8 C 9,4 C 85 % 1012,3 hPa 0,0 l/m 20,6 km/h (4 Bft) W 265 0 min 0,000 mm 0,0 UV-I 0 W/m 4,5 C -1,1 C 30,6 km/h (5 Bft) 100,00 %
29.10.2017 01:04 6,8 C 9,4 C 85 % 1012,3 hPa 0,0 l/m 17,1 km/h (3 Bft) SW 220 0 min 0,000 mm 0,0 UV-I 0 W/m 4,5 C 0,3 C 27,4 km/h (4 Bft) 100,00 %
29.10.2017 01:05 6,8 C 9,4 C 85 % 1012,2 hPa 0,0 l/m 21,7 km/h (4 Bft) SW 227 0 min 0,000 mm 0,0 UV-I 0 W/m 4,5 C -1,5 C 33,8 km/h (5 Bft) 100,00 %
29.10.2017 01:06 6,8 C 9,4 C 85 % 1012,2 hPa 0,0 l/m 24,7 km/h (4 Bft) S-SW 193 0 min 0,000 mm 0,0 UV-I 0 W/m 4,5 C -2,4 C 29,0 km/h (5 Bft) 100,00 %
29.10.2017 01:07 6,8 C 9,4 C 85 % 1012,2 hPa 0,0 l/m 18,6 km/h (3 Bft) SW 234 0 min 0,000 mm 0,0 UV-I 0 W/m 4,5 C -0,3 C 24,1 km/h (4 Bft) 100,00 %
29.10.2017 01:08 6,8 C 9,4 C 85 % 1012,1 hPa 0,0 l/m 22,0 km/h (4 Bft) SW 225 0 min 0,000 mm 0,0 UV-I 0 W/m 4,5 C -1,6 C 33,8 km/h (5 Bft) 100,00 %
29.10.2017 01:09 6,8 C 9,4 C 85 % 1012,1 hPa 0,0 l/m 16,3 km/h (3 Bft) W-SW 250 0 min 0,000 mm 0,0 UV-I 0 W/m 4,5 C 0,7 C 27,4 km/h (4 Bft) 100,00 %
29.10.2017 01:10 6,8 C 9,4 C 85 % 1012,0 hPa 0,0 l/m 22,1 km/h (4 Bft) SW 221 0 min 0,000 mm 0,0 UV-I 0 W/m 4,5 C -1,6 C 30,6 km/h (5 Bft) 100,00 %
29.10.2017 01:11 6,8 C 9,4 C 85 % 1012,1 hPa 0,0 l/m 21,0 km/h (4 Bft) W-SW 253 0 min 0,000 mm 0,0 UV-I 0 W/m 4,5 C -1,2 C 27,4 km/h (4 Bft) 95,83 %
29.10.2017 01:12 6,8 C 9,4 C 85 % 1012,1 hPa 0,0 l/m 18,9 km/h (3 Bft) W-SW 252 0 min 0,000 mm 0,0 UV-I 0 W/m 4,5 C -0,4 C 27,4 km/h (4 Bft) 100,00 %
29.10.2017 01:13 6,8 C 9,4 C 85 % 1012,1 hPa 0,0 l/m 17,2 km/h (3 Bft) W-SW 257 0 min 0,000 mm 0,0 UV-I 0 W/m 4,5 C 0,3 C 24,1 km/h (4 Bft) 100,00 %
29.10.2017 01:14 6,8 C 9,4 C 85 % 1012,1 hPa 0,0 l/m 22,3 km/h (4 Bft) W-SW 248 0 min 0,000 mm 0,0 UV-I 0 W/m 4,5 C -1,7 C 30,6 km/h (5 Bft) 95,65 %
29.10.2017 01:15 6,8 C 9,4 C 85 % 1012,1 hPa 0,0 l/m 19,8 km/h (3 Bft) SW 215 0 min 0,000 mm 0,0 UV-I 0 W/m 4,5 C -0,8 C 27,4 km/h (4 Bft) 100,00 %
29.10.2017 01:16 6,8 C 9,4 C 85 % 1012,0 hPa 0,0 l/m 23,7 km/h (4 Bft) W 259 0 min 0,000 mm 0,0 UV-I 0 W/m 4,5 C -2,1 C 30,6 km/h (5 Bft) 100,00 %
29.10.2017 01:17 6,8 C 9,4 C 85 % 1012,0 hPa 0,0 l/m 21,9 km/h (4 Bft) SW 231 0 min 0,000 mm 0,0 UV-I 0 W/m 4,5 C -1,5 C 30,6 km/h (5 Bft) 100,00 %
29.10.2017 01:18 6,8 C 9,4 C 85 % 1011,9 hPa 0,0 l/m 22,1 km/h (4 Bft) W 266 0 min 0,000 mm 0,0 UV-I 0 W/m 4,5 C -1,6 C 30,6 km/h (5 Bft) 100,00 %
29.10.2017 01:19 6,8 C 9,4 C 85 % 1012,0 hPa 0,0 l/m 17,0 km/h (3 Bft) W 277 0 min 0,000 mm 0,0 UV-I 0 W/m 4,5 C 0,3 C 22,5 km/h (4 Bft) 96,67 %
29.10.2017 01:20 6,8 C 9,4 C 85 % 1011,8 hPa 0,0 l/m 21,6 km/h (4 Bft) W 259 0 min 0,000 mm 0,0 UV-I 0 W/m 4,5 C -1,4 C 30,6 km/h (5 Bft) 100,00 %
29.10.2017 01:21 6,8 C 9,4 C 85 % 1011,8 hPa 0,2 l/m 22,2 km/h (4 Bft) W-SW 252 0 min 0,000 mm 0,0 UV-I 0 W/m 4,5 C -1,6 C 32,2 km/h (5 Bft) 92,59 %
29.10.2017 01:22 6,8 C 9,4 C 85 % 1011,8 hPa 0,0 l/m 17,8 km/h (3 Bft) W 260 0 min 0,000 mm 0,0 UV-I 0 W/m 4,5 C 0,0 C 27,4 km/h (4 Bft) 96,55 %
29.10.2017 01:23 6,8 C 9,4 C 85 % 1011,8 hPa 0,0 l/m 20,0 km/h (4 Bft) W-SW 258 0 min 0,000 mm 0,0 UV-I 0 W/m 4,5 C -0,8 C 27,4 km/h (4 Bft) 100,00 %
29.10.2017 01:24 6,8 C 9,4 C 85 % 1011,7 hPa 0,0 l/m 20,5 km/h (4 Bft) W-SW 253 0 min 0,000 mm 0,0 UV-I 0 W/m 4,5 C -1,0 C 29,0 km/h (5 Bft) 95,65 %
29.10.2017 01:25 6,8 C 9,4 C 85 % 1011,7 hPa 0,0 l/m 19,2 km/h (3 Bft) W-SW 252 0 min 0,000 mm 0,0 UV-I 0 W/m 4,5 C -0,5 C 24,1 km/h (4 Bft) 100,00 %
29.10.2017 01:26 6,8 C 9,4 C 85 % 1011,7 hPa 0,0 l/m 21,1 km/h (4 Bft) SW 219 0 min 0,000 mm 0,0 UV-I 0 W/m 4,5 C -1,2 C 29,0 km/h (5 Bft) 91,67 %
29.10.2017 01:27 6,8 C 9,4 C 86 % 1011,7 hPa 0,0 l/m 25,7 km/h (4 Bft) W 276 0 min 0,000 mm 0,0 UV-I 0 W/m 4,6 C -2,7 C 32,2 km/h (5 Bft) 96,15 %
29.10.2017 01:28 6,8 C 9,4 C 85 % 1011,7 hPa 0,0 l/m 28,0 km/h (4 Bft) SW 227 0 min 0,000 mm 0,0 UV-I 0 W/m 4,5 C -3,3 C 38,6 km/h (5 Bft) 96,15 %
29.10.2017 01:29 6,8 C 9,4 C 85 % 1011,7 hPa 0,0 l/m 24,0 km/h (4 Bft) W 273 0 min 0,000 mm 0,0 UV-I 0 W/m 4,5 C -2,2 C 32,2 km/h (5 Bft) 100,00 %
29.10.2017 01:30 6,8 C 9,4 C 85 % 1011,6 hPa 0,0 l/m 28,6 km/h (4 Bft) W-SW 253 0 min 0,000 mm 0,0 UV-I 0 W/m 4,5 C -3,5 C 41,8 km/h (6 Bft) 96,15 %
29.10.2017 01:31 6,8 C 9,4 C 85 % 1011,6 hPa 0,0 l/m 20,7 km/h (4 Bft) W 262 0 min 0,000 mm 0,0 UV-I 0 W/m 4,5 C -1,1 C 27,4 km/h (4 Bft) 100,00 %
29.10.2017 01:32 6,8 C 9,4 C 85 % 1011,6 hPa 0,2 l/m 21,4 km/h (4 Bft) W-SW 242 0 min 0,000 mm 0,0 UV-I 0 W/m 4,5 C -1,3 C 32,2 km/h (5 Bft) 96,30 %
29.10.2017 01:33 6,8 C 9,4 C 85 % 1011,6 hPa 0,0 l/m 28,1 km/h (4 Bft) W-SW 242 0 min 0,000 mm 0,0 UV-I 0 W/m 4,5 C -3,4 C 35,4 km/h (5 Bft) 92,31 %
29.10.2017 01:34 6,8 C 9,4 C 86 % 1011,4 hPa 0,0 l/m 26,4 km/h (4 Bft) W-SW 257 0 min 0,000 mm 0,0 UV-I 0 W/m 4,6 C -2,9 C 35,4 km/h (5 Bft) 100,00 %
29.10.2017 01:35 6,8 C 9,4 C 85 % 1011,4 hPa 0,0 l/m 28,5 km/h (4 Bft) W-SW 248 0 min 0,000 mm 0,0 UV-I 0 W/m 4,5 C -3,5 C 41,8 km/h (6 Bft) 93,33 %
29.10.2017 01:36 6,8 C 9,4 C 85 % 1011,4 hPa 0,0 l/m 21,3 km/h (4 Bft) W 261 0 min 0,000 mm 0,0 UV-I 0 W/m 4,5 C -1,3 C 37,0 km/h (5 Bft) 96,30 %
29.10.2017 01:37 6,8 C 9,4 C 85 % 1011,4 hPa 0,0 l/m 29,0 km/h (5 Bft) W-SW 248 0 min 0,000 mm 0,0 UV-I 0 W/m 4,5 C -3,6 C 45,1 km/h (6 Bft) 96,15 %
29.10.2017 01:38 6,8 C 9,4 C 86 % 1011,4 hPa 0,2 l/m 25,9 km/h (4 Bft) W 264 0 min 0,000 mm 0,0 UV-I 0 W/m 4,6 C -2,8 C 33,8 km/h (5 Bft) 100,00 %
29.10.2017 01:39 6,8 C 9,4 C 86 % 1011,3 hPa 0,0 l/m 30,7 km/h (5 Bft) SW 219 0 min 0,000 mm 0,0 UV-I 0 W/m 4,6 C -4,0 C 43,5 km/h (6 Bft) 96,15 %
29.10.2017 01:40 6,8 C 9,4 C 85 % 1011,3 hPa 0,0 l/m 24,5 km/h (4 Bft) W-SW 249 0 min 0,000 mm 0,0 UV-I 0 W/m 4,5 C -2,4 C 32,2 km/h (5 Bft) 100,00 %
29.10.2017 01:41 6,8 C 9,4 C 85 % 1011,2 hPa 0,0 l/m 31,4 km/h (5 Bft) W 259 0 min 0,000 mm 0,0 UV-I 0 W/m 4,5 C -4,2 C 45,1 km/h (6 Bft) 95,65 %
29.10.2017 01:42 6,8 C 9,4 C 85 % 1011,2 hPa 0,2 l/m 30,7 km/h (5 Bft) W-NW 284 0 min 0,000 mm 0,0 UV-I 0 W/m 4,5 C -4,0 C 43,5 km/h (6 Bft) 96,30 %
29.10.2017 01:43 6,8 C 9,4 C 85 % 1011,2 hPa 0,0 l/m 38,4 km/h (5 Bft) W-SW 242 0 min 0,000 mm 0,0 UV-I 0 W/m 4,5 C -5,6 C 49,9 km/h (6 Bft) 98,07 %
29.10.2017 01:44 6,8 C 9,4 C 85 % 1011,3 hPa 0,0 l/m 23,8 km/h (4 Bft) SW 234 0 min 0,000 mm 0,0 UV-I 0 W/m 4,5 C -2,1 C 40,2 km/h (6 Bft) 100,00 %
29.10.2017 01:45 6,8 C 9,4 C 85 % 1011,2 hPa 0,0 l/m 28,5 km/h (4 Bft) W-SW 247 0 min 0,000 mm 0,0 UV-I 0 W/m 4,5 C -3,5 C 43,5 km/h (6 Bft) 95,65 %
29.10.2017 01:46 6,8 C 9,4 C 85 % 1011,0 hPa 0,2 l/m 26,5 km/h (4 Bft) SW 221 0 min 0,000 mm 0,0 UV-I 0 W/m 4,5 C -2,9 C 40,2 km/h (6 Bft) 96,30 %
29.10.2017 01:47 6,8 C 9,4 C 85 % 1011,0 hPa 0,0 l/m 33,0 km/h (5 Bft) SW 233 0 min 0,000 mm 0,0 UV-I 0 W/m 4,5 C -4,5 C 46,7 km/h (6 Bft) 100,00 %
29.10.2017 01:48 6,8 C 9,4 C 85 % 1011,1 hPa 0,0 l/m 25,9 km/h (4 Bft) W-SW 250 0 min 0,000 mm 0,0 UV-I 0 W/m 4,5 C -2,8 C 35,4 km/h (5 Bft) 95,83 %
29.10.2017 01:49 6,8 C 9,4 C 85 % 1011,1 hPa 0,0 l/m 27,0 km/h (4 Bft) W-SW 237 0 min 0,000 mm 0,0 UV-I 0 W/m 4,5 C -3,1 C 40,2 km/h (6 Bft) 100,00 %
29.10.2017 01:50 6,8 C 9,4 C 85 % 1011,1 hPa 0,2 l/m 22,8 km/h (4 Bft) W-SW 244 0 min 0,000 mm 0,0 UV-I 0 W/m 4,5 C -1,8 C 30,6 km/h (5 Bft) 91,67 %
29.10.2017 01:51 6,8 C 9,4 C 85 % 1010,9 hPa 0,0 l/m 35,2 km/h (5 Bft) SW 223 0 min 0,000 mm 0,0 UV-I 0 W/m 4,5 C -5,0 C 49,9 km/h (6 Bft) 100,00 %
29.10.2017 01:52 6,8 C 9,4 C 85 % 1010,9 hPa 0,0 l/m 32,2 km/h (5 Bft) W-SW 238 0 min 0,000 mm 0,0 UV-I 0 W/m 4,5 C -4,4 C 49,9 km/h (6 Bft) 96,55 %
29.10.2017 01:53 6,7 C 9,4 C 85 % 1010,9 hPa 0,0 l/m 31,6 km/h (5 Bft) SW 232 0 min 0,000 mm 0,0 UV-I 0 W/m 4,4 C -4,4 C 43,5 km/h (6 Bft) 91,67 %
29.10.2017 01:54 6,7 C 9,4 C 85 % 1010,8 hPa 0,2 l/m 27,4 km/h (4 Bft) SW 236 0 min 0,000 mm 0,0 UV-I 0 W/m 4,4 C -3,3 C 41,8 km/h (6 Bft) 96,15 %
29.10.2017 01:55 6,7 C 9,4 C 86 % 1010,9 hPa 0,0 l/m 28,5 km/h (4 Bft) SW 223 0 min 0,000 mm 0,0 UV-I 0 W/m 4,5 C -3,6 C 41,8 km/h (6 Bft) 91,67 %
29.10.2017 01:56 6,7 C 9,4 C 86 % 1010,8 hPa 0,0 l/m 26,4 km/h (4 Bft) SW 226 0 min 0,000 mm 0,0 UV-I 0 W/m 4,5 C -3,0 C 40,2 km/h (6 Bft) 96,55 %
29.10.2017 01:57 6,7 C 9,4 C 86 % 1010,7 hPa 0,0 l/m 32,0 km/h (5 Bft) SW 234 0 min 0,000 mm 0,0 UV-I 0 W/m 4,5 C -4,5 C 46,7 km/h (6 Bft) 93,33 %
29.10.2017 01:58 6,7 C 9,4 C 86 % 1010,7 hPa 0,0 l/m 29,8 km/h (5 Bft) W-SW 246 0 min 0,000 mm 0,0 UV-I 0 W/m 4,5 C -3,9 C 37,0 km/h (5 Bft) 100,00 %
29.10.2017 01:59 6,6 C 9,4 C 86 % 1010,8 hPa 0,0 l/m 28,6 km/h (4 Bft) S-SW 210 0 min 0,000 mm 0,0 UV-I 0 W/m 4,4 C -3,8 C 43,5 km/h (6 Bft) 92,59 %
29.10.2017 02:00 6,6 C 9,4 C 86 % 1010,8 hPa 0,2 l/m 27,6 km/h (4 Bft) SW 227 0 min 0,025 mm 0,0 UV-I 0 W/m 4,4 C -3,5 C 38,6 km/h (5 Bft) 96,15 %
29.10.2017 02:01 6,6 C 9,4 C 86 % 1010,7 hPa 0,0 l/m 33,8 km/h (5 Bft) W 268 0 min 0,000 mm 0,0 UV-I 0 W/m 4,4 C -5,0 C 41,8 km/h (6 Bft) 94,44 %
29.10.2017 02:02 6,6 C 9,4 C 86 % 1010,7 hPa 0,0 l/m 28,2 km/h (4 Bft) SW 227 0 min 0,000 mm 0,0 UV-I 0 W/m 4,4 C -3,7 C 43,5 km/h (6 Bft) 95,65 %
29.10.2017 02:03 6,5 C 9,4 C 86 % 1010,6 hPa 0,0 l/m 29,8 km/h (5 Bft) W 265 0 min 0,000 mm 0,0 UV-I 0 W/m 4,3 C -4,2 C 40,2 km/h (6 Bft) 96,30 %
29.10.2017 02:04 6,5 C 9,4 C 86 % 1010,6 hPa 0,0 l/m 25,4 km/h (4 Bft) S-SW 209 0 min 0,000 mm 0,0 UV-I 0 W/m 4,3 C -3,0 C 37,0 km/h (5 Bft) 84,62 %
29.10.2017 02:05 6,4 C 9,4 C 86 % 1010,6 hPa 0,0 l/m 21,5 km/h (4 Bft) SW 230 0 min 0,000 mm 0,0 UV-I 0 W/m 4,2 C -1,9 C 29,0 km/h (5 Bft) 100,00 %
29.10.2017 02:06 6,4 C 9,4 C 87 % 1010,6 hPa 0,2 l/m 27,7 km/h (4 Bft) W-SW 250 0 min 0,000 mm 0,0 UV-I 0 W/m 4,4 C -3,8 C 33,8 km/h (5 Bft) 89,66 %
29.10.2017 02:07 6,4 C 9,4 C 87 % 1010,6 hPa 0,0 l/m 24,8 km/h (4 Bft) SW 232 0 min 0,000 mm 0,0 UV-I 0 W/m 4,4 C -3,0 C 33,8 km/h (5 Bft) 96,30 %
29.10.2017 02:08 6,4 C 9,4 C 87 % 1010,6 hPa 0,0 l/m 22,7 km/h (4 Bft) SW 235 0 min 0,000 mm 0,0 UV-I 0 W/m 4,4 C -2,3 C 32,2 km/h (5 Bft) 93,33 %
29.10.2017 02:09 6,4 C 9,4 C 87 % 1010,4 hPa 0,0 l/m 21,5 km/h (4 Bft) W-SW 257 0 min 0,000 mm 0,0 UV-I 0 W/m 4,4 C -1,9 C 29,0 km/h (5 Bft) 96,15 %
29.10.2017 02:10 6,3 C 9,4 C 87 % 1010,4 hPa 0,2 l/m 26,4 km/h (4 Bft) W 265 0 min 0,000 mm 0,0 UV-I 0 W/m 4,3 C -3,6 C 35,4 km/h (5 Bft) 95,83 %
29.10.2017 02:11 6,3 C 9,4 C 88 % 1010,4 hPa 0,0 l/m 23,6 km/h (4 Bft) W 261 0 min 0,000 mm 0,0 UV-I 0 W/m 4,5 C -2,7 C 29,0 km/h (5 Bft) 91,67 %
29.10.2017 02:12 6,3 C 9,4 C 88 % 1010,4 hPa 0,0 l/m 30,6 km/h (5 Bft) W-SW 241 0 min 0,000 mm 0,0 UV-I 0 W/m 4,5 C -4,7 C 45,1 km/h (6 Bft) 95,83 %
29.10.2017 02:13 6,3 C 9,4 C 88 % 1010,4 hPa 0,0 l/m 24,1 km/h (4 Bft) S-SW 209 0 min 0,000 mm 0,0 UV-I 0 W/m 4,5 C -2,9 C 27,4 km/h (4 Bft) 95,65 %
29.10.2017 02:14 6,3 C 9,4 C 88 % 1010,4 hPa 0,0 l/m 24,7 km/h (4 Bft) S-SW 197 0 min 0,000 mm 0,0 UV-I 0 W/m 4,5 C -3,1 C 33,8 km/h (5 Bft) 92,59 %
29.10.2017 02:15 6,2 C 9,4 C 88 % 1010,3 hPa 0,0 l/m 23,5 km/h (4 Bft) W 265 0 min 0,000 mm 0,0 UV-I 0 W/m 4,4 C -2,8 C 27,4 km/h (4 Bft) 100,00 %
29.10.2017 02:16 6,2 C 9,4 C 88 % 1010,3 hPa 0,0 l/m 18,5 km/h (3 Bft) W-SW 244 0 min 0,000 mm 0,0 UV-I 0 W/m 4,4 C -1,0 C 25,7 km/h (4 Bft) 91,67 %
29.10.2017 02:17 6,2 C 9,4 C 88 % 1010,4 hPa 0,2 l/m 25,3 km/h (4 Bft) SW 232 0 min 0,000 mm 0,0 UV-I 0 W/m 4,4 C -3,4 C 32,2 km/h (5 Bft) 100,00 %
29.10.2017 02:18 6,2 C 9,4 C 88 % 1010,4 hPa 0,0 l/m 22,9 km/h (4 Bft) W-SW 249 0 min 0,000 mm 0,0 UV-I 0 W/m 4,4 C -2,7 C 32,2 km/h (5 Bft) 96,30 %
29.10.2017 02:19 6,2 C 9,4 C 89 % 1010,3 hPa 0,0 l/m 25,3 km/h (4 Bft) SW 220 0 min 0,000 mm 0,0 UV-I 0 W/m 4,5 C -3,4 C 40,2 km/h (6 Bft) 100,00 %
29.10.2017 02:20 6,1 C 9,4 C 89 % 1010,2 hPa 0,0 l/m 28,6 km/h (4 Bft) S-SW 212 0 min 0,000 mm 0,0 UV-I 0 W/m 4,4 C -4,5 C 46,7 km/h (6 Bft) 96,30 %
29.10.2017 02:21 6,1 C 9,4 C 89 % 1010,2 hPa 0,2 l/m 32,6 km/h (5 Bft) S-SW 207 0 min 0,000 mm 0,0 UV-I 0 W/m 4,4 C -5,4 C 40,2 km/h (6 Bft) 100,00 %
29.10.2017 02:22 6,1 C 9,4 C 89 % 1010,2 hPa 0,0 l/m 25,9 km/h (4 Bft) S-SW 212 0 min 0,000 mm 0,0 UV-I 0 W/m 4,4 C -3,7 C 33,8 km/h (5 Bft) 96,30 %
29.10.2017 02:23 6,1 C 9,4 C 88 % 1010,2 hPa 0,0 l/m 28,8 km/h (4 Bft) W-SW 248 0 min 0,000 mm 0,0 UV-I 0 W/m 4,3 C -4,5 C 35,4 km/h (5 Bft) 96,55 %
29.10.2017 02:24 6,1 C 9,4 C 88 % 1010,2 hPa 0,0 l/m 27,5 km/h (4 Bft) W-SW 245 0 min 0,000 mm 0,0 UV-I 0 W/m 4,3 C -4,2 C 48,3 km/h (6 Bft) 100,00 %
29.10.2017 02:25 6,1 C 9,4 C 89 % 1010,1 hPa 0,0 l/m 24,6 km/h (4 Bft) W-SW 244 0 min 0,000 mm 0,0 UV-I 0 W/m 4,4 C -3,3 C 32,2 km/h (5 Bft) 100,00 %
29.10.2017 02:26 6,1 C 9,4 C 89 % 1010,1 hPa 0,0 l/m 34,4 km/h (5 Bft) W-SW 237 0 min 0,000 mm 0,0 UV-I 0 W/m 4,4 C -5,8 C 43,5 km/h (6 Bft) 96,15 %
29.10.2017 02:27 6,0 C 9,4 C 89 % 1010,0 hPa 0,2 l/m 27,0 km/h (4 Bft) SW 223 0 min 0,000 mm 0,0 UV-I 0 W/m 4,3 C -4,2 C 43,5 km/h (6 Bft) 95,65 %
29.10.2017 02:28 6,1 C 9,4 C 89 % 1010,0 hPa 0,0 l/m 22,3 km/h (4 Bft) SW 235 0 min 0,000 mm 0,0 UV-I 0 W/m 4,4 C -2,6 C 37,0 km/h (5 Bft) 100,00 %
29.10.2017 02:29 6,1 C 9,4 C 89 % 1010,0 hPa 0,0 l/m 28,0 km/h (4 Bft) W-SW 238 0 min 0,000 mm 0,0 UV-I 0 W/m 4,4 C -4,3 C 45,1 km/h (6 Bft) 91,67 %
29.10.2017 02:30 6,0 C 9,4 C 89 % 1009,9 hPa 0,0 l/m 32,6 km/h (5 Bft) SW 219 0 min 0,000 mm 0,0 UV-I 0 W/m 4,3 C -5,6 C 43,5 km/h (6 Bft) 100,00 %
29.10.2017 02:31 6,0 C 9,4 C 89 % 1009,8 hPa 0,2 l/m 36,1 km/h (5 Bft) W-SW 258 0 min 0,000 mm 0,0 UV-I 0 W/m 4,3 C -6,3 C 53,1 km/h (7 Bft) 100,00 %
29.10.2017 02:32 6,0 C 9,4 C 89 % 1009,8 hPa 0,0 l/m 32,0 km/h (5 Bft) SW 221 0 min 0,000 mm 0,0 UV-I 0 W/m 4,3 C -5,4 C 45,1 km/h (6 Bft) 100,00 %
29.10.2017 02:33 6,0 C 9,4 C 89 % 1009,8 hPa 0,0 l/m 24,0 km/h (4 Bft) W-SW 246 0 min 0,000 mm 0,0 UV-I 0 W/m 4,3 C -3,3 C 38,6 km/h (5 Bft) 100,00 %
29.10.2017 02:34 6,0 C 9,4 C 89 % 1009,8 hPa 0,0 l/m 30,3 km/h (5 Bft) S-SW 196 0 min 0,000 mm 0,0 UV-I 0 W/m 4,3 C -5,0 C 45,1 km/h (6 Bft) 100,00 %
29.10.2017 02:35 6,0 C 9,4 C 89 % 1009,6 hPa 0,0 l/m 27,0 km/h (4 Bft) W-SW 238 0 min 0,000 mm 0,0 UV-I 0 W/m 4,3 C -4,2 C 40,2 km/h (6 Bft) 100,00 %
29.10.2017 02:36 6,0 C 9,4 C 89 % 1009,6 hPa 0,0 l/m 30,2 km/h (5 Bft) W-SW 242 0 min 0,000 mm 0,0 UV-I 0 W/m 4,3 C -5,0 C 43,5 km/h (6 Bft) 96,15 %
29.10.2017 02:37 6,0 C 9,4 C 89 % 1009,7 hPa 0,0 l/m 25,2 km/h (4 Bft) W-NW 299 0 min 0,000 mm 0,0 UV-I 0 W/m 4,3 C -3,6 C 33,8 km/h (5 Bft) 100,00 %
29.10.2017 02:38 6,0 C 9,4 C 89 % 1009,5 hPa 0,2 l/m 21,7 km/h (4 Bft) SW 219 0 min 0,000 mm 0,0 UV-I 0 W/m 4,3 C -2,5 C 33,8 km/h (5 Bft) 96,15 %
29.10.2017 02:39 6,0 C 9,4 C 89 % 1009,5 hPa 0,0 l/m 29,1 km/h (5 Bft) W-SW 254 0 min 0,000 mm 0,0 UV-I 0 W/m 4,3 C -4,7 C 40,2 km/h (6 Bft) 100,00 %
29.10.2017 02:40 5,9 C 9,4 C 89 % 1009,5 hPa 0,0 l/m 23,7 km/h (4 Bft) W-SW 256 0 min 0,000 mm 0,0 UV-I 0 W/m 4,2 C -3,3 C 30,6 km/h (5 Bft) 100,00 %
29.10.2017 02:41 5,9 C 9,4 C 90 % 1009,4 hPa 0,0 l/m 25,7 km/h (4 Bft) W-SW 252 0 min 0,000 mm 0,0 UV-I 0 W/m 4,4 C -3,9 C 30,6 km/h (5 Bft) 100,00 %
29.10.2017 02:42 5,9 C 9,4 C 89 % 1009,4 hPa 0,0 l/m 25,3 km/h (4 Bft) SW 223 0 min 0,000 mm 0,0 UV-I 0 W/m 4,2 C -3,8 C 32,2 km/h (5 Bft) 100,00 %
29.10.2017 02:43 6,0 C 9,4 C 89 % 1009,3 hPa 0,0 l/m 35,3 km/h (5 Bft) W 263 0 min 0,000 mm 0,0 UV-I 0 W/m 4,3 C -6,2 C 51,5 km/h (7 Bft) 100,00 %
29.10.2017 02:44 5,9 C 9,4 C 89 % 1009,3 hPa 0,0 l/m 25,8 km/h (4 Bft) SW 222 0 min 0,000 mm 0,0 UV-I 0 W/m 4,2 C -4,0 C 35,4 km/h (5 Bft) 100,00 %
29.10.2017 02:45 5,9 C 9,4 C 90 % 1009,3 hPa 0,2 l/m 32,9 km/h (5 Bft) W-SW 250 0 min 0,000 mm 0,0 UV-I 0 W/m 4,4 C -5,8 C 48,3 km/h (6 Bft) 100,00 %
29.10.2017 02:46 6,0 C 9,4 C 90 % 1009,2 hPa 0,0 l/m 27,1 km/h (4 Bft) W-SW 238 0 min 0,000 mm 0,0 UV-I 0 W/m 4,5 C -4,2 C 43,5 km/h (6 Bft) 100,00 %
29.10.2017 02:47 5,9 C 9,4 C 90 % 1009,1 hPa 0,0 l/m 29,1 km/h (5 Bft) SW 234 0 min 0,000 mm 0,0 UV-I 0 W/m 4,4 C -4,9 C 40,2 km/h (6 Bft) 100,00 %
29.10.2017 02:48 5,9 C 9,4 C 90 % 1009,1 hPa 0,0 l/m 25,1 km/h (4 Bft) SW 217 0 min 0,000 mm 0,0 UV-I 0 W/m 4,4 C -3,8 C 32,2 km/h (5 Bft) 93,10 %
29.10.2017 02:49 5,9 C 9,4 C 90 % 1009,1 hPa 0,0 l/m 31,9 km/h (5 Bft) W-SW 238 0 min 0,000 mm 0,0 UV-I 0 W/m 4,4 C -5,6 C 43,5 km/h (6 Bft) 100,00 %
29.10.2017 02:50 5,9 C 9,4 C 90 % 1009,0 hPa 0,0 l/m 29,4 km/h (5 Bft) W-SW 239 0 min 0,000 mm 0,0 UV-I 0 W/m 4,4 C -5,0 C 49,9 km/h (6 Bft) 100,00 %
29.10.2017 02:51 5,9 C 9,4 C 90 % 1009,0 hPa 0,0 l/m 36,0 km/h (5 Bft) S-SW 212 0 min 0,000 mm 0,0 UV-I 0 W/m 4,4 C -6,4 C 49,9 km/h (6 Bft) 100,00 %
29.10.2017 02:52 6,0 C 9,4 C 90 % 1009,0 hPa 0,0 l/m 28,9 km/h (5 Bft) S-SW 202 0 min 0,000 mm 0,0 UV-I 0 W/m 4,5 C -4,7 C 38,6 km/h (5 Bft) 100,00 %
29.10.2017 02:53 6,0 C 9,4 C 90 % 1008,9 hPa 0,2 l/m 28,8 km/h (4 Bft) W-SW 240 0 min 0,000 mm 0,0 UV-I 0 W/m 4,5 C -4,7 C 37,0 km/h (5 Bft) 100,00 %
29.10.2017 02:54 6,0 C 9,4 C 90 % 1008,9 hPa 0,0 l/m 33,5 km/h (5 Bft) SW 236 0 min 0,000 mm 0,0 UV-I 0 W/m 4,5 C -5,8 C 45,1 km/h (6 Bft) 100,00 %
29.10.2017 02:55 6,0 C 9,4 C 90 % 1008,9 hPa 0,0 l/m 32,3 km/h (5 Bft) S-SW 211 0 min 0,000 mm 0,0 UV-I 0 W/m 4,5 C -5,5 C 43,5 km/h (6 Bft) 95,83 %
29.10.2017 02:56 6,0 C 9,4 C 90 % 1008,9 hPa 0,0 l/m 29,7 km/h (5 Bft) W 267 0 min 0,000 mm 0,0 UV-I 0 W/m 4,5 C -4,9 C 40,2 km/h (6 Bft) 100,00 %
29.10.2017 02:57 6,0 C 9,4 C 90 % 1008,8 hPa 0,0 l/m 27,8 km/h (4 Bft) S-SW 197 0 min 0,000 mm 0,0 UV-I 0 W/m 4,5 C -4,4 C 38,6 km/h (5 Bft) 100,00 %
29.10.2017 02:58 6,0 C 9,4 C 90 % 1008,7 hPa 0,2 l/m 25,3 km/h (4 Bft) W-SW 243 0 min 0,000 mm 0,0 UV-I 0 W/m 4,5 C -3,7 C 46,7 km/h (6 Bft) 100,00 %
29.10.2017 02:59 6,0 C 9,4 C 90 % 1008,6 hPa 0,0 l/m 31,9 km/h (5 Bft) SW 234 0 min 0,000 mm 0,0 UV-I 0 W/m 4,5 C -5,4 C 45,1 km/h (6 Bft) 100,00 %
29.10.2017 02:00 6,0 C 9,4 C 90 % 1008,6 hPa 0,0 l/m 30,4 km/h (5 Bft) SW 229 0 min 0,026 mm 0,0 UV-I 0 W/m 4,5 C -5,1 C 45,1 km/h (6 Bft) 100,00 %
29.10.2017 02:02 6,0 C 9,4 C 90 % 1008,6 hPa 0,0 l/m 33,0 km/h (5 Bft) SW 232 0 min 0,000 mm 0,0 UV-I 0 W/m 4,5 C -5,7 C 45,1 km/h (6 Bft) 98,00 %
29.10.2017 02:03 6,1 C 9,4 C 90 % 1008,6 hPa 0,0 l/m 21,4 km/h (4 Bft) SW 233 0 min 0,000 mm 0,0 UV-I 0 W/m 4,6 C -2,3 C 29,0 km/h (5 Bft) 100,00 %
29.10.2017 02:04 6,1 C 9,4 C 90 % 1008,6 hPa 0,0 l/m 23,3 km/h (4 Bft) W-SW 245 0 min 0,000 mm 0,0 UV-I 0 W/m 4,6 C -2,9 C 40,2 km/h (6 Bft) 100,00 %
29.10.2017 02:05 6,1 C 9,4 C 90 % 1008,5 hPa 0,0 l/m 30,7 km/h (5 Bft) W-SW 244 0 min 0,000 mm 0,0 UV-I 0 W/m 4,6 C -5,0 C 43,5 km/h (6 Bft) 100,00 %
29.10.2017 02:06 6,1 C 9,4 C 90 % 1008,6 hPa 0,0 l/m 26,0 km/h (4 Bft) S-SW 209 0 min 0,000 mm 0,0 UV-I 0 W/m 4,6 C -3,8 C 37,0 km/h (5 Bft) 100,00 %
29.10.2017 02:07 6,1 C 9,4 C 90 % 1008,6 hPa 0,0 l/m 37,6 km/h (5 Bft) W-SW 251 0 min 0,000 mm 0,0 UV-I 0 W/m 4,6 C -6,5 C 49,9 km/h (6 Bft) 100,00 %
29.10.2017 02:08 6,1 C 9,4 C 90 % 1008,5 hPa 0,0 l/m 29,8 km/h (5 Bft) W-SW 237 0 min 0,000 mm 0,0 UV-I 0 W/m 4,6 C -4,8 C 41,8 km/h (6 Bft) 100,00 %
29.10.2017 02:09 6,1 C 9,4 C 90 % 1008,4 hPa 0,2 l/m 31,2 km/h (5 Bft) W-SW 258 0 min 0,000 mm 0,0 UV-I 0 W/m 4,6 C -5,1 C 43,5 km/h (6 Bft) 100,00 %
29.10.2017 02:10 6,1 C 9,4 C 90 % 1008,4 hPa 0,0 l/m 30,1 km/h (5 Bft) W-SW 250 0 min 0,000 mm 0,0 UV-I 0 W/m 4,6 C -4,9 C 46,7 km/h (6 Bft) 100,00 %
29.10.2017 02:11 6,1 C 9,4 C 90 % 1008,3 hPa 0,0 l/m 33,3 km/h (5 Bft) SW 235 0 min 0,000 mm 0,0 UV-I 0 W/m 4,6 C -5,6 C 45,1 km/h (6 Bft) 100,00 %
29.10.2017 02:12 6,1 C 9,4 C 90 % 1008,3 hPa 0,0 l/m 25,7 km/h (4 Bft) SW 222 0 min 0,000 mm 0,0 UV-I 0 W/m 4,6 C -3,7 C 35,4 km/h (5 Bft) 100,00 %
29.10.2017 02:13 6,1 C 9,4 C 90 % 1008,3 hPa 0,0 l/m 28,6 km/h (4 Bft) S-SW 211 0 min 0,000 mm 0,0 UV-I 0 W/m 4,6 C -4,5 C 43,5 km/h (6 Bft) 100,00 %
29.10.2017 02:14 6,1 C 9,4 C 90 % 1008,3 hPa 0,0 l/m 36,4 km/h (5 Bft) S-SW 209 0 min 0,000 mm 0,0 UV-I 0 W/m 4,6 C -6,2 C 49,9 km/h (6 Bft) 93,33 %
29.10.2017 02:15 6,1 C 9,4 C 90 % 1008,2 hPa 0,0 l/m 33,1 km/h (5 Bft) SW 229 0 min 0,000 mm 0,0 UV-I 0 W/m 4,6 C -5,6 C 41,8 km/h (6 Bft) 100,00 %
29.10.2017 02:16 6,1 C 9,4 C 90 % 1008,1 hPa 0,0 l/m 27,3 km/h (4 Bft) W-SW 248 0 min 0,000 mm 0,0 UV-I 0 W/m 4,6 C -4,1 C 38,6 km/h (5 Bft) 96,15 %
29.10.2017 02:17 6,2 C 9,4 C 90 % 1008,1 hPa 0,0 l/m 26,4 km/h (4 Bft) SW 215 0 min 0,000 mm 0,0 UV-I 0 W/m 4,7 C -3,7 C 32,2 km/h (5 Bft) 100,00 %
29.10.2017 02:18 6,2 C 9,4 C 90 % 1008,0 hPa 0,0 l/m 33,0 km/h (5 Bft) S-SW 213 0 min 0,000 mm 0,0 UV-I 0 W/m 4,7 C -5,4 C 43,5 km/h (6 Bft) 100,00 %
29.10.2017 02:19 6,2 C 9,4 C 90 % 1008,0 hPa 0,0 l/m 26,2 km/h (4 Bft) W-SW 250 0 min 0,000 mm 0,0 UV-I 0 W/m 4,7 C -3,7 C 51,5 km/h (7 Bft) 100,00 %
29.10.2017 02:20 6,2 C 9,4 C 90 % 1008,0 hPa 0,0 l/m 36,9 km/h (5 Bft) SW 227 0 min 0,000 mm 0,0 UV-I 0 W/m 4,7 C -6,2 C 49,9 km/h (6 Bft) 93,10 %
29.10.2017 02:21 6,2 C 9,4 C 90 % 1008,0 hPa 0,2 l/m 31,4 km/h (5 Bft) SW 232 0 min 0,000 mm 0,0 UV-I 0 W/m 4,7 C -5,0 C 43,5 km/h (6 Bft) 100,00 %
29.10.2017 02:22 6,2 C 9,4 C 90 % 1008,0 hPa 0,0 l/m 31,4 km/h (5 Bft) W-SW 242 0 min 0,000 mm 0,0 UV-I 0 W/m 4,7 C -5,0 C 38,6 km/h (5 Bft) 96,15 %
29.10.2017 02:23 6,2 C 9,4 C 90 % 1008,0 hPa 0,0 l/m 30,0 km/h (5 Bft) S-SW 196 0 min 0,000 mm 0,0 UV-I 0 W/m 4,7 C -4,7 C 43,5 km/h (6 Bft) 100,00 %
29.10.2017 02:24 6,2 C 9,4 C 90 % 1008,0 hPa 0,0 l/m 34,7 km/h (5 Bft) W-SW 237 0 min 0,000 mm 0,0 UV-I 0 W/m 4,7 C -5,8 C 48,3 km/h (6 Bft) 100,00 %
29.10.2017 02:25 6,3 C 9,4 C 90 % 1007,8 hPa 0,0 l/m 33,6 km/h (5 Bft) W-SW 248 0 min 0,000 mm 0,0 UV-I 0 W/m 4,8 C -5,4 C 43,5 km/h (6 Bft) 100,00 %
29.10.2017 02:26 6,3 C 9,4 C 90 % 1007,7 hPa 0,0 l/m 31,3 km/h (5 Bft) SW 230 0 min 0,000 mm 0,0 UV-I 0 W/m 4,8 C -4,9 C 46,7 km/h (6 Bft) 100,00 %
29.10.2017 02:27 6,3 C 9,4 C 89 % 1007,7 hPa 0,0 l/m 39,4 km/h (6 Bft) SW 232 0 min 0,000 mm 0,0 UV-I 0 W/m 4,6 C -6,5 C 53,1 km/h (7 Bft) 100,00 %
29.10.2017 02:28 6,3 C 9,4 C 90 % 1007,8 hPa 0,0 l/m 30,3 km/h (5 Bft) W-SW 245 0 min 0,000 mm 0,0 UV-I 0 W/m 4,8 C -4,6 C 40,2 km/h (6 Bft) 100,00 %
29.10.2017 02:29 6,3 C 9,4 C 89 % 1007,7 hPa 0,0 l/m 24,5 km/h (4 Bft) W 263 0 min 0,000 mm 0,0 UV-I 0 W/m 4,6 C -3,0 C 38,6 km/h (5 Bft) 100,00 %
29.10.2017 02:30 6,3 C 9,4 C 90 % 1007,7 hPa 0,0 l/m 28,8 km/h (4 Bft) W-SW 257 0 min 0,000 mm 0,0 UV-I 0 W/m 4,8 C -4,2 C 49,9 km/h (6 Bft) 100,00 %
29.10.2017 02:31 6,3 C 9,4 C 90 % 1007,6 hPa 0,0 l/m 32,0 km/h (5 Bft) W-SW 254 0 min 0,000 mm 0,0 UV-I 0 W/m 4,8 C -5,0 C 41,8 km/h (6 Bft) 100,00 %
29.10.2017 02:32 6,3 C 9,4 C 90 % 1007,6 hPa 0,2 l/m 31,6 km/h (5 Bft) W 259 0 min 0,000 mm 0,0 UV-I 0 W/m 4,8 C -4,9 C 43,5 km/h (6 Bft) 100,00 %
29.10.2017 02:33 6,3 C 9,4 C 90 % 1007,6 hPa 0,0 l/m 28,5 km/h (4 Bft) W 266 0 min 0,000 mm 0,0 UV-I 0 W/m 4,8 C -4,2 C 38,6 km/h (5 Bft) 100,00 %
29.10.2017 02:34 6,3 C 9,4 C 90 % 1007,6 hPa 0,0 l/m 35,8 km/h (5 Bft) SW 236 0 min 0,000 mm 0,0 UV-I 0 W/m 4,8 C -5,8 C 43,5 km/h (6 Bft) 100,00 %
29.10.2017 02:35 6,3 C 9,4 C 90 % 1007,5 hPa 0,0 l/m 28,5 km/h (4 Bft) W 275 0 min 0,000 mm 0,0 UV-I 0 W/m 4,8 C -4,2 C 38,6 km/h (5 Bft) 100,00 %
29.10.2017 02:36 6,3 C 9,4 C 90 % 1007,5 hPa 0,0 l/m 29,2 km/h (5 Bft) SW 228 0 min 0,000 mm 0,0 UV-I 0 W/m 4,8 C -4,3 C 46,7 km/h (6 Bft) 100,00 %
29.10.2017 02:37 6,3 C 9,4 C 90 % 1007,5 hPa 0,0 l/m 28,8 km/h (4 Bft) W-SW 246 0 min 0,000 mm 0,0 UV-I 0 W/m 4,8 C -4,2 C 46,7 km/h (6 Bft) 100,00 %
29.10.2017 02:38 6,4 C 9,4 C 90 % 1007,5 hPa 0,2 l/m 31,1 km/h (5 Bft) W-SW 252 0 min 0,000 mm 0,0 UV-I 0 W/m 4,9 C -4,7 C 45,1 km/h (6 Bft) 100,00 %
29.10.2017 02:39 6,4 C 9,4 C 90 % 1007,5 hPa 0,0 l/m 30,8 km/h (5 Bft) W 266 0 min 0,000 mm 0,0 UV-I 0 W/m 4,9 C -4,6 C 45,1 km/h (6 Bft) 100,00 %
29.10.2017 02:40 6,4 C 9,4 C 90 % 1007,5 hPa 0,0 l/m 26,4 km/h (4 Bft) S-SW 194 0 min 0,000 mm 0,0 UV-I 0 W/m 4,9 C -3,5 C 33,8 km/h (5 Bft) 93,33 %
29.10.2017 02:41 6,4 C 9,4 C 90 % 1007,6 hPa 0,0 l/m 27,9 km/h (4 Bft) W-SW 237 0 min 0,000 mm 0,0 UV-I 0 W/m 4,9 C -3,9 C 43,5 km/h (6 Bft) 100,00 %
29.10.2017 02:42 6,4 C 9,4 C 90 % 1007,5 hPa 0,0 l/m 23,0 km/h (4 Bft) SW 220 0 min 0,000 mm 0,0 UV-I 0 W/m 4,9 C -2,4 C 33,8 km/h (5 Bft) 100,00 %
29.10.2017 02:43 6,4 C 9,4 C 90 % 1007,4 hPa 0,0 l/m 23,8 km/h (4 Bft) W-SW 245 0 min 0,000 mm 0,0 UV-I 0 W/m 4,9 C -2,7 C 33,8 km/h (5 Bft) 100,00 %
29.10.2017 02:44 6,4 C 9,4 C 90 % 1007,5 hPa 0,0 l/m 29,8 km/h (5 Bft) W-SW 251 0 min 0,000 mm 0,0 UV-I 0 W/m 4,9 C -4,4 C 46,7 km/h (6 Bft) 100,00 %
29.10.2017 02:45 6,4 C 9,4 C 90 % 1007,5 hPa 0,0 l/m 28,0 km/h (4 Bft) W-SW 249 0 min 0,000 mm 0,0 UV-I 0 W/m 4,9 C -3,9 C 45,1 km/h (6 Bft) 100,00 %
29.10.2017 02:46 6,4 C 9,4 C 90 % 1007,3 hPa 0,2 l/m 21,3 km/h (4 Bft) W-SW 252 0 min 0,000 mm 0,0 UV-I 0 W/m 4,9 C -1,8 C 32,2 km/h (5 Bft) 100,00 %
29.10.2017 02:47 6,4 C 9,4 C 90 % 1007,3 hPa 0,0 l/m 26,5 km/h (4 Bft) SW 232 0 min 0,000 mm 0,0 UV-I 0 W/m 4,9 C -3,5 C 33,8 km/h (5 Bft) 100,00 %
29.10.2017 02:48 6,4 C 9,4 C 90 % 1007,1 hPa 0,0 l/m 30,1 km/h (5 Bft) W-SW 240 0 min 0,000 mm 0,0 UV-I 0 W/m 4,9 C -4,4 C 49,9 km/h (6 Bft) 100,00 %
29.10.2017 02:49 6,4 C 9,4 C 90 % 1007,2 hPa 0,0 l/m 38,0 km/h (5 Bft) W-SW 244 0 min 0,000 mm 0,0 UV-I 0 W/m 4,9 C -6,1 C 49,9 km/h (6 Bft) 93,33 %
29.10.2017 02:50 6,4 C 9,4 C 90 % 1007,2 hPa 0,2 l/m 28,5 km/h (4 Bft) W-SW 254 0 min 0,000 mm 0,0 UV-I 0 W/m 4,9 C -4,0 C 41,8 km/h (6 Bft) 100,00 %
29.10.2017 02:51 6,4 C 9,4 C 90 % 1007,0 hPa 0,0 l/m 27,4 km/h (4 Bft) W-SW 241 0 min 0,000 mm 0,0 UV-I 0 W/m 4,9 C -3,7 C 51,5 km/h (7 Bft) 100,00 %
29.10.2017 02:52 6,5 C 9,4 C 90 % 1007,1 hPa 0,0 l/m 27,0 km/h (4 Bft) SW 225 0 min 0,000 mm 0,0 UV-I 0 W/m 5,0 C -3,5 C 37,0 km/h (5 Bft) 100,00 %
29.10.2017 02:53 6,5 C 9,4 C 90 % 1007,0 hPa 0,0 l/m 35,6 km/h (5 Bft) W-SW 239 0 min 0,000 mm 0,0 UV-I 0 W/m 5,0 C -5,5 C 48,3 km/h (6 Bft) 100,00 %
29.10.2017 02:54 6,5 C 9,4 C 90 % 1007,0 hPa 0,0 l/m 43,5 km/h (6 Bft) W-SW 240 0 min 0,000 mm 0,0 UV-I 0 W/m 5,0 C -6,8 C 61,2 km/h (7 Bft) 100,00 %
29.10.2017 02:55 6,5 C 9,4 C 90 % 1006,9 hPa 0,2 l/m 34,9 km/h (5 Bft) W-SW 254 0 min 0,000 mm 0,0 UV-I 0 W/m 5,0 C -5,4 C 48,3 km/h (6 Bft) 100,00 %
29.10.2017 02:56 6,6 C 9,4 C 90 % 1006,9 hPa 0,0 l/m 26,3 km/h (4 Bft) W-SW 239 0 min 0,000 mm 0,0 UV-I 0 W/m 5,1 C -3,2 C 43,5 km/h (6 Bft) 100,00 %
29.10.2017 02:57 6,6 C 9,4 C 91 % 1006,9 hPa 0,0 l/m 32,5 km/h (5 Bft) W-SW 258 0 min 0,000 mm 0,0 UV-I 0 W/m 5,2 C -4,7 C 49,9 km/h (6 Bft) 100,00 %
29.10.2017 02:58 6,6 C 9,4 C 91 % 1007,0 hPa 0,2 l/m 38,5 km/h (5 Bft) W-SW 247 0 min 0,000 mm 0,0 UV-I 0 W/m 5,2 C -5,9 C 54,7 km/h (7 Bft) 100,00 %
29.10.2017 02:59 6,6 C 9,4 C 91 % 1006,9 hPa 0,0 l/m 30,7 km/h (5 Bft) SW 223 0 min 0,000 mm 0,0 UV-I 0 W/m 5,2 C -4,3 C 46,7 km/h (6 Bft) 100,00 %
29.10.2017 03:00 6,6 C 9,4 C 91 % 1007,0 hPa 0,0 l/m 37,3 km/h (5 Bft) W-SW 251 0 min 0,025 mm 0,0 UV-I 0 W/m 5,2 C -5,7 C 49,9 km/h (6 Bft) 96,15 %
29.10.2017 03:01 6,6 C 9,4 C 91 % 1006,8 hPa 0,0 l/m 40,0 km/h (6 Bft) W-SW 248 0 min 0,000 mm 0,0 UV-I 0 W/m 5,2 C -6,1 C 48,3 km/h (6 Bft) 100,00 %
29.10.2017 03:02 6,7 C 9,4 C 91 % 1006,8 hPa 0,0 l/m 36,9 km/h (5 Bft) W-SW 250 0 min 0,000 mm 0,0 UV-I 0 W/m 5,3 C -5,5 C 54,7 km/h (7 Bft) 100,00 %
29.10.2017 03:03 6,7 C 9,4 C 91 % 1006,8 hPa 0,2 l/m 38,9 km/h (6 Bft) SW 234 0 min 0,000 mm 0,0 UV-I 0 W/m 5,3 C -5,8 C 49,9 km/h (6 Bft) 100,00 %
29.10.2017 03:04 6,7 C 9,4 C 91 % 1006,8 hPa 0,0 l/m 31,1 km/h (5 Bft) SW 236 0 min 0,000 mm 0,0 UV-I 0 W/m 5,3 C -4,2 C 49,9 km/h (6 Bft) 96,15 %
29.10.2017 03:05 6,7 C 9,4 C 91 % 1006,7 hPa 0,0 l/m 32,3 km/h (5 Bft) SW 221 0 min 0,000 mm 0,0 UV-I 0 W/m 5,3 C -4,5 C 43,5 km/h (6 Bft) 100,00 %
29.10.2017 03:06 6,8 C 9,4 C 90 % 1006,6 hPa 0,0 l/m 38,3 km/h (5 Bft) SW 236 0 min 0,000 mm 0,0 UV-I 0 W/m 5,3 C -5,6 C 46,7 km/h (6 Bft) 91,30 %
29.10.2017 03:07 6,8 C 9,4 C 90 % 1006,5 hPa 0,0 l/m 39,1 km/h (6 Bft) S-SW 207 0 min 0,000 mm 0,0 UV-I 0 W/m 5,3 C -5,7 C 53,1 km/h (7 Bft) 100,00 %
29.10.2017 03:08 6,8 C 9,4 C 90 % 1006,5 hPa 0,0 l/m 35,1 km/h (5 Bft) W-SW 243 0 min 0,000 mm 0,0 UV-I 0 W/m 5,3 C -5,0 C 49,9 km/h (6 Bft) 91,67 %
29.10.2017 03:09 6,8 C 9,4 C 90 % 1006,6 hPa 0,2 l/m 28,6 km/h (4 Bft) W 261 0 min 0,000 mm 0,0 UV-I 0 W/m 5,3 C -3,5 C 35,4 km/h (5 Bft) 97,73 %
29.10.2017 03:10 6,8 C 9,4 C 90 % 1006,5 hPa 0,0 l/m 32,7 km/h (5 Bft) S-SW 211 0 min 0,000 mm 0,0 UV-I 0 W/m 5,3 C -4,5 C 45,1 km/h (6 Bft) 100,00 %
29.10.2017 03:11 6,8 C 9,4 C 90 % 1006,5 hPa 0,0 l/m 35,7 km/h (5 Bft) S-SW 201 0 min 0,000 mm 0,0 UV-I 0 W/m 5,3 C -5,1 C 54,7 km/h (7 Bft) 96,15 %
29.10.2017 03:12 6,8 C 9,4 C 90 % 1006,4 hPa 0,0 l/m 30,3 km/h (5 Bft) W-SW 254 0 min 0,000 mm 0,0 UV-I 0 W/m 5,3 C -3,9 C 40,2 km/h (6 Bft) 100,00 %
29.10.2017 03:13 6,8 C 9,4 C 90 % 1006,3 hPa 0,0 l/m 33,9 km/h (5 Bft) SW 230 0 min 0,000 mm 0,0 UV-I 0 W/m 5,3 C -4,7 C 61,2 km/h (7 Bft) 96,15 %
29.10.2017 03:14 6,8 C 9,4 C 90 % 1006,3 hPa 0,0 l/m 29,3 km/h (5 Bft) W-SW 258 0 min 0,000 mm 0,0 UV-I 0 W/m 5,3 C -3,7 C 46,7 km/h (6 Bft) 100,00 %
29.10.2017 03:15 6,8 C 9,4 C 90 % 1006,5 hPa 0,2 l/m 35,2 km/h (5 Bft) W-SW 242 0 min 0,000 mm 0,0 UV-I 0 W/m 5,3 C -5,0 C 57,9 km/h (7 Bft) 95,65 %
29.10.2017 03:16 6,9 C 9,4 C 90 % 1006,4 hPa 0,0 l/m 29,8 km/h (5 Bft) SW 224 0 min 0,000 mm 0,0 UV-I 0 W/m 5,4 C -3,7 C 41,8 km/h (6 Bft) 100,00 %
29.10.2017 03:17 6,9 C 9,4 C 90 % 1006,3 hPa 0,0 l/m 36,3 km/h (5 Bft) W-SW 241 0 min 0,000 mm 0,0 UV-I 0 W/m 5,4 C -5,1 C 51,5 km/h (7 Bft) 96,15 %
29.10.2017 03:18 6,9 C 9,4 C 90 % 1006,2 hPa 0,0 l/m 30,5 km/h (5 Bft) S-SW 201 0 min 0,000 mm 0,0 UV-I 0 W/m 5,4 C -3,8 C 37,0 km/h (5 Bft) 100,00 %
29.10.2017 03:19 6,9 C 9,4 C 90 % 1006,2 hPa 0,2 l/m 34,1 km/h (5 Bft) S-SW 207 0 min 0,000 mm 0,0 UV-I 0 W/m 5,4 C -4,6 C 49,9 km/h (6 Bft) 97,37 %
29.10.2017 03:20 6,9 C 9,4 C 91 % 1006,3 hPa 0,0 l/m 28,2 km/h (4 Bft) W 259 0 min 0,000 mm 0,0 UV-I 0 W/m 5,5 C -3,3 C 38,6 km/h (5 Bft) 91,67 %
29.10.2017 03:21 6,9 C 9,4 C 91 % 1006,2 hPa 0,0 l/m 23,4 km/h (4 Bft) SW 217 0 min 0,000 mm 0,0 UV-I 0 W/m 5,5 C -1,9 C 32,2 km/h (5 Bft) 100,00 %
29.10.2017 03:22 6,9 C 9,4 C 91 % 1006,2 hPa 0,0 l/m 27,8 km/h (4 Bft) SW 218 0 min 0,000 mm 0,0 UV-I 0 W/m 5,5 C -3,1 C 43,5 km/h (6 Bft) 95,83 %
29.10.2017 03:23 6,9 C 9,4 C 91 % 1006,1 hPa 0,0 l/m 27,4 km/h (4 Bft) SW 225 0 min 0,000 mm 0,0 UV-I 0 W/m 5,5 C -3,0 C 38,6 km/h (5 Bft) 100,00 %
29.10.2017 03:24 6,9 C 9,4 C 91 % 1006,1 hPa 0,0 l/m 31,9 km/h (5 Bft) W-SW 252 0 min 0,000 mm 0,0 UV-I 0 W/m 5,5 C -4,1 C 45,1 km/h (6 Bft) 96,30 %
29.10.2017 03:25 6,9 C 9,4 C 91 % 1006,1 hPa 0,0 l/m 32,9 km/h (5 Bft) SW 234 0 min 0,000 mm 0,0 UV-I 0 W/m 5,5 C -4,4 C 43,5 km/h (6 Bft) 100,00 %
29.10.2017 03:26 6,9 C 9,4 C 91 % 1006,0 hPa 0,0 l/m 28,8 km/h (4 Bft) SW 218 0 min 0,000 mm 0,0 UV-I 0 W/m 5,5 C -3,4 C 37,0 km/h (5 Bft) 96,67 %
29.10.2017 03:27 6,9 C 9,4 C 91 % 1006,1 hPa 0,2 l/m 32,4 km/h (5 Bft) W-SW 242 0 min 0,000 mm 0,0 UV-I 0 W/m 5,5 C -4,3 C 51,5 km/h (7 Bft) 96,55 %
29.10.2017 03:28 6,9 C 9,4 C 91 % 1006,0 hPa 0,0 l/m 29,6 km/h (5 Bft) SW 233 0 min 0,000 mm 0,0 UV-I 0 W/m 5,5 C -3,6 C 37,0 km/h (5 Bft) 100,00 %
29.10.2017 03:29 6,9 C 9,4 C 91 % 1005,8 hPa 0,0 l/m 31,0 km/h (5 Bft) W-SW 238 0 min 0,000 mm 0,0 UV-I 0 W/m 5,5 C -3,9 C 43,5 km/h (6 Bft) 100,00 %
29.10.2017 03:30 6,9 C 9,4 C 91 % 1005,9 hPa 0,0 l/m 28,6 km/h (4 Bft) SW 236 0 min 0,000 mm 0,0 UV-I 0 W/m 5,5 C -3,4 C 41,8 km/h (6 Bft) 96,55 %
29.10.2017 03:31 6,9 C 9,4 C 91 % 1005,8 hPa 0,2 l/m 31,5 km/h (5 Bft) W-SW 240 0 min 0,000 mm 0,0 UV-I 0 W/m 5,5 C -4,1 C 41,8 km/h (6 Bft) 92,59 %
29.10.2017 03:32 6,9 C 9,4 C 91 % 1005,8 hPa 0,0 l/m 27,4 km/h (4 Bft) SW 236 0 min 0,000 mm 0,0 UV-I 0 W/m 5,5 C -3,0 C 37,0 km/h (5 Bft) 100,00 %
29.10.2017 03:33 6,9 C 9,4 C 92 % 1005,8 hPa 0,0 l/m 26,8 km/h (4 Bft) SW 232 0 min 0,000 mm 0,0 UV-I 0 W/m 5,7 C -2,9 C 41,8 km/h (6 Bft) 96,30 %
29.10.2017 03:34 6,9 C 9,4 C 92 % 1005,7 hPa 0,0 l/m 25,3 km/h (4 Bft) SW 227 0 min 0,000 mm 0,0 UV-I 0 W/m 5,7 C -2,5 C 38,6 km/h (5 Bft) 96,15 %
29.10.2017 03:35 6,9 C 9,4 C 92 % 1005,6 hPa 0,0 l/m 31,4 km/h (5 Bft) SW 219 0 min 0,000 mm 0,0 UV-I 0 W/m 5,7 C -4,0 C 45,1 km/h (6 Bft) 100,00 %
29.10.2017 03:36 6,9 C 9,4 C 92 % 1005,5 hPa 0,0 l/m 31,0 km/h (5 Bft) SW 223 0 min 0,000 mm 0,0 UV-I 0 W/m 5,7 C -3,9 C 45,1 km/h (6 Bft) 96,15 %
29.10.2017 03:37 6,9 C 9,4 C 92 % 1005,5 hPa 0,0 l/m 29,7 km/h (5 Bft) SW 220 0 min 0,000 mm 0,0 UV-I 0 W/m 5,7 C -3,6 C 38,6 km/h (5 Bft) 100,00 %
29.10.2017 03:38 7,0 C 9,4 C 92 % 1005,3 hPa 0,0 l/m 28,6 km/h (4 Bft) SW 217 0 min 0,000 mm 0,0 UV-I 0 W/m 5,8 C -3,2 C 40,2 km/h (6 Bft) 91,30 %
29.10.2017 03:39 7,0 C 9,4 C 92 % 1005,2 hPa 0,2 l/m 23,8 km/h (4 Bft) S-SW 209 0 min 0,000 mm 0,0 UV-I 0 W/m 5,8 C -1,9 C 33,8 km/h (5 Bft) 100,00 %
29.10.2017 03:40 7,0 C 9,4 C 92 % 1005,2 hPa 0,0 l/m 29,0 km/h (5 Bft) W 268 0 min 0,000 mm 0,0 UV-I 0 W/m 5,8 C -3,3 C 38,6 km/h (5 Bft) 91,30 %
29.10.2017 03:41 7,0 C 9,4 C 92 % 1005,2 hPa 0,0 l/m 23,7 km/h (4 Bft) S-SW 211 0 min 0,000 mm 0,0 UV-I 0 W/m 5,8 C -1,8 C 32,2 km/h (5 Bft) 100,00 %
29.10.2017 03:42 7,1 C 9,4 C 92 % 1005,1 hPa 0,0 l/m 19,2 km/h (3 Bft) SW 231 0 min 0,000 mm 0,0 UV-I 0 W/m 5,9 C -0,2 C 30,6 km/h (5 Bft) 96,15 %
29.10.2017 03:43 7,1 C 9,4 C 92 % 1005,1 hPa 0,0 l/m 23,7 km/h (4 Bft) W 261 0 min 0,000 mm 0,0 UV-I 0 W/m 5,9 C -1,7 C 33,8 km/h (5 Bft) 100,00 %
29.10.2017 03:44 7,1 C 9,4 C 92 % 1005,0 hPa 0,0 l/m 33,9 km/h (5 Bft) SW 226 0 min 0,000 mm 0,0 UV-I 0 W/m 5,9 C -4,3 C 53,1 km/h (7 Bft) 100,00 %
29.10.2017 03:45 7,1 C 9,4 C 92 % 1004,9 hPa 0,0 l/m 28,6 km/h (4 Bft) SW 232 0 min 0,000 mm 0,0 UV-I 0 W/m 5,9 C -3,1 C 35,4 km/h (5 Bft) 95,83 %
29.10.2017 03:46 7,1 C 9,4 C 92 % 1004,9 hPa 0,0 l/m 34,7 km/h (5 Bft) W-SW 246 0 min 0,000 mm 0,0 UV-I 0 W/m 5,9 C -4,4 C 43,5 km/h (6 Bft) 100,00 %
29.10.2017 03:47 7,2 C 9,4 C 92 % 1004,7 hPa 0,0 l/m 34,6 km/h (5 Bft) SW 232 0 min 0,000 mm 0,0 UV-I 0 W/m 6,0 C -4,3 C 41,8 km/h (6 Bft) 100,00 %
29.10.2017 03:48 7,2 C 9,4 C 92 % 1004,7 hPa 0,2 l/m 29,2 km/h (5 Bft) W-SW 243 0 min 0,000 mm 0,0 UV-I 0 W/m 6,0 C -3,1 C 41,8 km/h (6 Bft) 100,00 %
29.10.2017 03:49 7,2 C 9,4 C 92 % 1004,6 hPa 0,0 l/m 27,1 km/h (4 Bft) SW 233 0 min 0,000 mm 0,0 UV-I 0 W/m 6,0 C -2,5 C 38,6 km/h (5 Bft) 100,00 %
29.10.2017 03:50 7,2 C 9,4 C 92 % 1004,6 hPa 0,0 l/m 21,9 km/h (4 Bft) W-SW 241 0 min 0,000 mm 0,0 UV-I 0 W/m 6,0 C -1,0 C 33,8 km/h (5 Bft) 100,00 %
29.10.2017 03:51 7,3 C 9,4 C 92 % 1004,6 hPa 0,0 l/m 28,1 km/h (4 Bft) SW 226 0 min 0,000 mm 0,0 UV-I 0 W/m 6,1 C -2,7 C 37,0 km/h (5 Bft) 92,31 %
29.10.2017 03:52 7,3 C 9,4 C 92 % 1004,4 hPa 0,0 l/m 26,6 km/h (4 Bft) W-SW 242 0 min 0,000 mm 0,0 UV-I 0 W/m 6,1 C -2,3 C 38,6 km/h (5 Bft) 100,00 %
29.10.2017 03:53 7,3 C 9,4 C 92 % 1004,3 hPa 0,0 l/m 30,4 km/h (5 Bft) SW 222 0 min 0,000 mm 0,0 UV-I 0 W/m 6,1 C -3,2 C 40,2 km/h (6 Bft) 100,00 %
29.10.2017 03:54 7,3 C 9,4 C 92 % 1004,3 hPa 0,0 l/m 26,6 km/h (4 Bft) SW 234 0 min 0,000 mm 0,0 UV-I 0 W/m 6,1 C -2,3 C 40,2 km/h (6 Bft) 100,00 %
29.10.2017 03:55 7,3 C 9,4 C 92 % 1004,2 hPa 0,0 l/m 33,3 km/h (5 Bft) SW 232 0 min 0,000 mm 0,0 UV-I 0 W/m 6,1 C -3,9 C 48,3 km/h (6 Bft) 100,00 %
29.10.2017 03:56 7,4 C 9,4 C 92 % 1004,2 hPa 0,0 l/m 25,4 km/h (4 Bft) SW 229 0 min 0,000 mm 0,0 UV-I 0 W/m 6,2 C -1,8 C 40,2 km/h (6 Bft) 100,00 %
29.10.2017 03:57 7,4 C 9,4 C 92 % 1004,1 hPa 0,0 l/m 34,9 km/h (5 Bft) SW 225 0 min 0,000 mm 0,0 UV-I 0 W/m 6,2 C -4,1 C 46,7 km/h (6 Bft) 90,91 %
29.10.2017 03:58 7,4 C 9,4 C 93 % 1004,0 hPa 0,0 l/m 26,5 km/h (4 Bft) S-SW 206 0 min 0,000 mm 0,0 UV-I 0 W/m 6,3 C -2,1 C 41,8 km/h (6 Bft) 100,00 %
29.10.2017 03:59 7,5 C 9,4 C 93 % 1004,0 hPa 0,0 l/m 28,7 km/h (4 Bft) W-SW 250 0 min 0,000 mm 0,0 UV-I 0 W/m 6,4 C -2,5 C 37,0 km/h (5 Bft) 100,00 %
29.10.2017 04:00 7,5 C 9,4 C 93 % 1004,1 hPa 0,0 l/m 25,3 km/h (4 Bft) W 261 0 min 0,025 mm 0,0 UV-I 0 W/m 6,4 C -1,6 C 33,8 km/h (5 Bft) 96,30 %
29.10.2017 04:01 7,6 C 9,4 C 93 % 1004,1 hPa 0,0 l/m 22,3 km/h (4 Bft) W-SW 244 0 min 0,000 mm 0,0 UV-I 0 W/m 6,5 C -0,6 C 35,4 km/h (5 Bft) 100,00 %
29.10.2017 04:02 7,6 C 9,4 C 92 % 1004,1 hPa 0,2 l/m 22,3 km/h (4 Bft) W 265 0 min 0,000 mm 0,0 UV-I 0 W/m 6,4 C -0,6 C 32,2 km/h (5 Bft) 100,00 %
29.10.2017 04:03 7,6 C 9,4 C 92 % 1004,2 hPa 0,0 l/m 26,2 km/h (4 Bft) W 259 0 min 0,000 mm 0,0 UV-I 0 W/m 6,4 C -1,8 C 35,4 km/h (5 Bft) 100,00 %
29.10.2017 04:04 7,6 C 9,4 C 92 % 1004,3 hPa 0,0 l/m 22,7 km/h (4 Bft) W-SW 238 0 min 0,000 mm 0,0 UV-I 0 W/m 6,4 C -0,7 C 30,6 km/h (5 Bft) 96,30 %
29.10.2017 04:05 7,7 C 9,4 C 92 % 1004,6 hPa 0,0 l/m 15,8 km/h (3 Bft) W 271 0 min 0,000 mm 0,0 UV-I 0 W/m 6,5 C 2,0 C 29,0 km/h (5 Bft) 100,00 %
29.10.2017 04:06 7,7 C 9,4 C 92 % 1004,7 hPa 0,0 l/m 18,4 km/h (3 Bft) W 259 0 min 0,000 mm 0,0 UV-I 0 W/m 6,5 C 0,9 C 29,0 km/h (5 Bft) 96,55 %
29.10.2017 04:07 7,7 C 9,4 C 92 % 1004,6 hPa 0,0 l/m 20,8 km/h (4 Bft) W-SW 248 0 min 0,000 mm 0,0 UV-I 0 W/m 6,5 C 0,0 C 27,4 km/h (4 Bft) 96,55 %
29.10.2017 04:08 7,7 C 9,4 C 92 % 1004,6 hPa 0,2 l/m 17,1 km/h (3 Bft) W-SW 256 0 min 0,000 mm 0,0 UV-I 0 W/m 6,5 C 1,4 C 27,4 km/h (4 Bft) 100,00 %
29.10.2017 04:09 7,7 C 9,4 C 93 % 1004,6 hPa 0,0 l/m 24,4 km/h (4 Bft) W 278 0 min 0,000 mm 0,0 UV-I 0 W/m 6,6 C -1,1 C 38,6 km/h (5 Bft) 96,30 %
29.10.2017 04:10 7,7 C 9,4 C 93 % 1004,7 hPa 0,0 l/m 16,3 km/h (3 Bft) W-SW 252 0 min 0,000 mm 0,0 UV-I 0 W/m 6,6 C 1,8 C 22,5 km/h (4 Bft) 100,00 %
29.10.2017 04:11 7,7 C 9,4 C 93 % 1004,7 hPa 0,0 l/m 15,0 km/h (3 Bft) W 265 0 min 0,000 mm 0,0 UV-I 0 W/m 6,6 C 2,3 C 22,5 km/h (4 Bft) 93,33 %
29.10.2017 04:12 7,7 C 9,4 C 93 % 1004,8 hPa 0,0 l/m 21,1 km/h (4 Bft) W-NW 294 0 min 0,000 mm 0,0 UV-I 0 W/m 6,6 C -0,1 C 32,2 km/h (5 Bft) 96,15 %
29.10.2017 04:13 7,7 C 9,4 C 93 % 1004,7 hPa 0,2 l/m 20,4 km/h (4 Bft) W 281 0 min 0,000 mm 0,0 UV-I 0 W/m 6,6 C 0,2 C 27,4 km/h (4 Bft) 92,59 %
29.10.2017 04:14 7,7 C 9,4 C 93 % 1004,6 hPa 0,0 l/m 30,7 km/h (5 Bft) W 273 0 min 0,000 mm 0,0 UV-I 0 W/m 6,6 C -2,7 C 45,1 km/h (6 Bft) 100,00 %
29.10.2017 04:15 7,7 C 9,4 C 93 % 1004,3 hPa 0,2 l/m 21,3 km/h (4 Bft) W-SW 240 0 min 0,000 mm 0,0 UV-I 0 W/m 6,6 C -0,1 C 32,2 km/h (5 Bft) 96,30 %
29.10.2017 04:17 7,7 C 9,4 C 93 % 1004,2 hPa 0,2 l/m 27,2 km/h (4 Bft) W 275 0 min 0,000 mm 0,0 UV-I 0 W/m 6,6 C -1,9 C 41,8 km/h (6 Bft) 97,56 %
29.10.2017 04:18 7,7 C 9,4 C 93 % 1004,2 hPa 0,2 l/m 24,0 km/h (4 Bft) W 265 0 min 0,000 mm 0,0 UV-I 0 W/m 6,6 C -1,0 C 32,2 km/h (5 Bft) 96,55 %
29.10.2017 04:19 7,7 C 9,4 C 93 % 1004,2 hPa 0,0 l/m 27,8 km/h (4 Bft) SW 234 0 min 0,000 mm 0,0 UV-I 0 W/m 6,6 C -2,0 C 38,6 km/h (5 Bft) 100,00 %
29.10.2017 04:20 7,8 C 9,4 C 93 % 1004,2 hPa 0,0 l/m 25,9 km/h (4 Bft) W 261 0 min 0,000 mm 0,0 UV-I 0 W/m 6,7 C -1,4 C 37,0 km/h (5 Bft) 91,30 %
29.10.2017 04:22 7,8 C 9,4 C 93 % 1004,1 hPa 0,2 l/m 26,1 km/h (4 Bft) SW 220 0 min 0,000 mm 0,0 UV-I 0 W/m 6,7 C -1,5 C 37,0 km/h (5 Bft) 97,73 %
29.10.2017 04:23 7,8 C 9,4 C 93 % 1004,1 hPa 0,0 l/m 26,3 km/h (4 Bft) W 264 0 min 0,000 mm 0,0 UV-I 0 W/m 6,7 C -1,5 C 38,6 km/h (5 Bft) 100,00 %
29.10.2017 04:24 7,8 C 9,4 C 93 % 1004,0 hPa 0,0 l/m 27,5 km/h (4 Bft) W-SW 253 0 min 0,000 mm 0,0 UV-I 0 W/m 6,7 C -1,8 C 35,4 km/h (5 Bft) 92,86 %
29.10.2017 04:25 7,8 C 9,4 C 93 % 1003,9 hPa 0,2 l/m 26,7 km/h (4 Bft) W 267 0 min 0,000 mm 0,0 UV-I 0 W/m 6,7 C -1,6 C 45,1 km/h (6 Bft) 100,00 %
29.10.2017 04:26 7,8 C 9,4 C 93 % 1003,9 hPa 0,0 l/m 26,2 km/h (4 Bft) W-SW 257 0 min 0,000 mm 0,0 UV-I 0 W/m 6,7 C -1,5 C 33,8 km/h (5 Bft) 97,56 %
29.10.2017 04:27 7,8 C 9,4 C 93 % 1004,0 hPa 0,0 l/m 26,2 km/h (4 Bft) SW 232 0 min 0,000 mm 0,0 UV-I 0 W/m 6,7 C -1,5 C 41,8 km/h (6 Bft) 100,00 %
29.10.2017 04:28 7,8 C 9,4 C 93 % 1004,1 hPa 0,0 l/m 26,5 km/h (4 Bft) W-SW 246 0 min 0,000 mm 0,0 UV-I 0 W/m 6,7 C -1,6 C 32,2 km/h (5 Bft) 93,33 %
29.10.2017 04:29 7,8 C 9,4 C 93 % 1004,1 hPa 0,2 l/m 27,5 km/h (4 Bft) W-SW 239 0 min 0,000 mm 0,0 UV-I 0 W/m 6,7 C -1,8 C 37,0 km/h (5 Bft) 97,56 %
29.10.2017 04:30 7,8 C 9,4 C 93 % 1004,0 hPa 0,0 l/m 27,3 km/h (4 Bft) SW 215 0 min 0,000 mm 0,0 UV-I 0 W/m 6,7 C -1,8 C 38,6 km/h (5 Bft) 100,00 %
29.10.2017 04:31 7,9 C 9,4 C 93 % 1003,8 hPa 0,0 l/m 27,9 km/h (4 Bft) S-SW 209 0 min 0,000 mm 0,0 UV-I 0 W/m 6,8 C -1,8 C 35,4 km/h (5 Bft) 91,67 %
29.10.2017 04:32 7,9 C 9,4 C 93 % 1003,7 hPa 0,2 l/m 25,6 km/h (4 Bft) S 189 0 min 0,000 mm 0,0 UV-I 0 W/m 6,8 C -1,2 C 32,2 km/h (5 Bft) 100,00 %
29.10.2017 04:33 7,9 C 9,4 C 93 % 1003,6 hPa 0,0 l/m 31,6 km/h (5 Bft) W-SW 244 0 min 0,000 mm 0,0 UV-I 0 W/m 6,8 C -2,7 C 46,7 km/h (6 Bft) 95,65 %
29.10.2017 04:34 7,9 C 9,4 C 93 % 1003,5 hPa 0,2 l/m 28,0 km/h (4 Bft) S-SW 208 0 min 0,000 mm 0,0 UV-I 0 W/m 6,8 C -1,8 C 37,0 km/h (5 Bft) 100,00 %
29.10.2017 04:35 7,9 C 9,4 C 93 % 1003,5 hPa 0,0 l/m 40,0 km/h (6 Bft) SW 217 0 min 0,000 mm 0,0 UV-I 0 W/m 6,8 C -4,2 C 56,3 km/h (7 Bft) 96,15 %
29.10.2017 04:36 7,9 C 9,4 C 93 % 1003,5 hPa 0,0 l/m 30,8 km/h (5 Bft) W 273 0 min 0,000 mm 0,0 UV-I 0 W/m 6,8 C -2,5 C 40,2 km/h (6 Bft) 100,00 %
29.10.2017 04:37 8,0 C 9,4 C 94 % 1003,6 hPa 0,0 l/m 33,2 km/h (5 Bft) W-SW 243 0 min 0,000 mm 0,0 UV-I 0 W/m 7,1 C -2,9 C 49,9 km/h (6 Bft) 92,86 %
29.10.2017 04:38 8,0 C 9,4 C 94 % 1003,7 hPa 0,0 l/m 32,9 km/h (5 Bft) W-SW 244 0 min 0,000 mm 0,0 UV-I 0 W/m 7,1 C -2,8 C 51,5 km/h (7 Bft) 100,00 %
29.10.2017 04:39 8,1 C 9,4 C 94 % 1003,7 hPa 0,0 l/m 30,9 km/h (5 Bft) W 264 0 min 0,000 mm 0,0 UV-I 0 W/m 7,2 C -2,2 C 41,8 km/h (6 Bft) 96,15 %
29.10.2017 04:40 8,1 C 9,4 C 94 % 1003,7 hPa 0,2 l/m 33,3 km/h (5 Bft) W 262 0 min 0,000 mm 0,0 UV-I 0 W/m 7,2 C -2,7 C 45,1 km/h (6 Bft) 95,83 %
29.10.2017 04:41 8,1 C 9,4 C 94 % 1003,6 hPa 0,0 l/m 30,5 km/h (5 Bft) S-SW 205 0 min 0,000 mm 0,0 UV-I 0 W/m 7,2 C -2,1 C 43,5 km/h (6 Bft) 96,30 %
29.10.2017 04:42 8,1 C 9,4 C 94 % 1003,6 hPa 0,0 l/m 28,6 km/h (4 Bft) W-SW 238 0 min 0,000 mm 0,0 UV-I 0 W/m 7,2 C -1,7 C 38,6 km/h (5 Bft) 96,30 %
29.10.2017 04:43 8,2 C 9,4 C 93 % 1003,5 hPa 0,2 l/m 31,0 km/h (5 Bft) SW 221 0 min 0,000 mm 0,0 UV-I 0 W/m 7,1 C -2,1 C 43,5 km/h (6 Bft) 100,00 %
29.10.2017 04:44 8,2 C 9,4 C 93 % 1003,5 hPa 0,0 l/m 23,4 km/h (4 Bft) W-SW 246 0 min 0,000 mm 0,0 UV-I 0 W/m 7,1 C -0,1 C 37,0 km/h (5 Bft) 96,30 %
29.10.2017 04:45 8,2 C 9,4 C 93 % 1003,2 hPa 0,0 l/m 27,6 km/h (4 Bft) W-SW 244 0 min 0,000 mm 0,0 UV-I 0 W/m 7,1 C -1,3 C 41,8 km/h (6 Bft) 96,15 %
29.10.2017 04:46 8,2 C 9,4 C 93 % 1003,2 hPa 0,2 l/m 32,3 km/h (5 Bft) W-SW 239 0 min 0,000 mm 0,0 UV-I 0 W/m 7,1 C -2,4 C 40,2 km/h (6 Bft) 95,83 %
29.10.2017 04:47 8,2 C 9,4 C 93 % 1003,2 hPa 0,0 l/m 32,8 km/h (5 Bft) W-SW 251 0 min 0,000 mm 0,0 UV-I 0 W/m 7,1 C -2,5 C 46,7 km/h (6 Bft) 95,65 %
29.10.2017 04:48 8,3 C 9,4 C 93 % 1003,1 hPa 0,0 l/m 26,6 km/h (4 Bft) W 269 0 min 0,000 mm 0,0 UV-I 0 W/m 7,2 C -0,9 C 45,1 km/h (6 Bft) 95,83 %
29.10.2017 04:49 8,3 C 9,4 C 93 % 1003,1 hPa 0,0 l/m 26,7 km/h (4 Bft) W-SW 258 0 min 0,000 mm 0,0 UV-I 0 W/m 7,2 C -0,9 C 40,2 km/h (6 Bft) 95,83 %
29.10.2017 04:50 8,3 C 9,4 C 93 % 1003,2 hPa 0,0 l/m 36,5 km/h (5 Bft) W 259 0 min 0,000 mm 0,0 UV-I 0 W/m 7,2 C -3,0 C 53,1 km/h (7 Bft) 100,00 %
29.10.2017 04:51 8,3 C 9,4 C 93 % 1003,1 hPa 0,2 l/m 26,8 km/h (4 Bft) W 262 0 min 0,000 mm 0,0 UV-I 0 W/m 7,2 C -1,0 C 32,2 km/h (5 Bft) 100,00 %
29.10.2017 04:52 8,3 C 9,4 C 93 % 1003,1 hPa 0,0 l/m 30,5 km/h (5 Bft) W-SW 257 0 min 0,000 mm 0,0 UV-I 0 W/m 7,2 C -1,8 C 41,8 km/h (6 Bft) 96,15 %
29.10.2017 04:53 8,3 C 9,4 C 94 % 1003,0 hPa 0,0 l/m 28,9 km/h (5 Bft) SW 232 0 min 0,000 mm 0,0 UV-I 0 W/m 7,4 C -1,5 C 49,9 km/h (6 Bft) 96,30 %
29.10.2017 04:54 8,4 C 9,4 C 93 % 1003,0 hPa 0,0 l/m 25,7 km/h (4 Bft) W 279 0 min 0,000 mm 0,0 UV-I 0 W/m 7,3 C -0,5 C 37,0 km/h (5 Bft) 100,00 %
29.10.2017 04:55 8,4 C 9,4 C 93 % 1003,0 hPa 0,0 l/m 34,8 km/h (5 Bft) W-SW 256 0 min 0,000 mm 0,0 UV-I 0 W/m 7,3 C -2,6 C 48,3 km/h (6 Bft) 96,30 %
29.10.2017 04:56 8,4 C 9,4 C 93 % 1002,9 hPa 0,0 l/m 28,9 km/h (5 Bft) W 265 0 min 0,000 mm 0,0 UV-I 0 W/m 7,3 C -1,3 C 49,9 km/h (6 Bft) 100,00 %
29.10.2017 04:57 8,4 C 9,4 C 93 % 1002,9 hPa 0,0 l/m 28,0 km/h (4 Bft) SW 236 0 min 0,000 mm 0,0 UV-I 0 W/m 7,3 C -1,1 C 35,4 km/h (5 Bft) 91,67 %
29.10.2017 04:58 8,4 C 9,4 C 93 % 1002,8 hPa 0,0 l/m 33,3 km/h (5 Bft) W 265 0 min 0,000 mm 0,0 UV-I 0 W/m 7,3 C -2,3 C 48,3 km/h (6 Bft) 100,00 %
29.10.2017 04:59 8,4 C 9,4 C 93 % 1002,8 hPa 0,0 l/m 35,9 km/h (5 Bft) W-SW 237 0 min 0,000 mm 0,0 UV-I 0 W/m 7,3 C -2,8 C 53,1 km/h (7 Bft) 96,67 %
29.10.2017 05:00 8,5 C 9,4 C 93 % 1002,8 hPa 0,0 l/m 29,5 km/h (5 Bft) SW 234 0 min 0,026 mm 0,0 UV-I 0 W/m 7,4 C -1,3 C 41,8 km/h (6 Bft) 100,00 %
29.10.2017 05:01 8,5 C 9,4 C 93 % 1002,8 hPa 0,0 l/m 27,7 km/h (4 Bft) W-SW 240 0 min 0,000 mm 0,0 UV-I 0 W/m 7,4 C -0,9 C 45,1 km/h (6 Bft) 100,00 %
29.10.2017 05:02 8,6 C 9,4 C 93 % 1002,8 hPa 0,0 l/m 38,6 km/h (5 Bft) SW 227 0 min 0,000 mm 0,0 UV-I 0 W/m 7,5 C -3,0 C 54,7 km/h (7 Bft) 97,56 %
29.10.2017 05:03 8,6 C 9,4 C 93 % 1002,8 hPa 0,0 l/m 32,0 km/h (5 Bft) W-SW 258 0 min 0,000 mm 0,0 UV-I 0 W/m 7,5 C -1,7 C 45,1 km/h (6 Bft) 100,00 %
29.10.2017 05:04 8,6 C 9,4 C 93 % 1002,8 hPa 0,0 l/m 36,4 km/h (5 Bft) W-SW 257 0 min 0,000 mm 0,0 UV-I 0 W/m 7,5 C -2,6 C 48,3 km/h (6 Bft) 96,15 %
29.10.2017 05:05 8,7 C 9,4 C 93 % 1002,8 hPa 0,0 l/m 30,2 km/h (5 Bft) W-SW 242 0 min 0,000 mm 0,0 UV-I 0 W/m 7,6 C -1,2 C 43,5 km/h (6 Bft) 100,00 %
29.10.2017 05:06 8,7 C 9,4 C 93 % 1002,8 hPa 0,0 l/m 29,0 km/h (5 Bft) W-SW 254 0 min 0,000 mm 0,0 UV-I 0 W/m 7,6 C -0,9 C 41,8 km/h (6 Bft) 91,67 %
29.10.2017 05:07 8,7 C 9,4 C 93 % 1002,6 hPa 0,0 l/m 31,2 km/h (5 Bft) W-SW 257 0 min 0,000 mm 0,0 UV-I 0 W/m 7,6 C -1,4 C 45,1 km/h (6 Bft) 100,00 %
29.10.2017 05:08 8,8 C 9,4 C 92 % 1002,6 hPa 0,0 l/m 35,9 km/h (5 Bft) SW 232 0 min 0,000 mm 0,0 UV-I 0 W/m 7,6 C -2,2 C 46,7 km/h (6 Bft) 95,83 %
29.10.2017 05:09 8,8 C 9,4 C 92 % 1002,4 hPa 0,0 l/m 32,2 km/h (5 Bft) W-SW 248 0 min 0,000 mm 0,0 UV-I 0 W/m 7,6 C -1,5 C 43,5 km/h (6 Bft) 100,00 %
29.10.2017 05:10 8,8 C 9,4 C 92 % 1002,5 hPa 0,0 l/m 30,6 km/h (5 Bft) SW 232 0 min 0,000 mm 0,0 UV-I 0 W/m 7,6 C -1,2 C 43,5 km/h (6 Bft) 100,00 %
29.10.2017 05:11 8,9 C 9,4 C 92 % 1002,5 hPa 0,0 l/m 19,1 km/h (3 Bft) SW 215 0 min 0,000 mm 0,0 UV-I 0 W/m 7,7 C 2,2 C 24,1 km/h (4 Bft) 100,00 %
29.10.2017 05:12 8,9 C 9,4 C 92 % 1002,5 hPa 0,0 l/m 30,0 km/h (5 Bft) W 265 0 min 0,000 mm 0,0 UV-I 0 W/m 7,7 C -0,9 C 43,5 km/h (6 Bft) 100,00 %
29.10.2017 05:13 8,9 C 9,4 C 92 % 1002,5 hPa 0,0 l/m 32,2 km/h (5 Bft) W 273 0 min 0,000 mm 0,0 UV-I 0 W/m 7,7 C -1,4 C 61,2 km/h (7 Bft) 100,00 %
29.10.2017 05:14 9,0 C 9,4 C 92 % 1002,4 hPa 0,0 l/m 37,5 km/h (5 Bft) W 260 0 min 0,000 mm 0,0 UV-I 0 W/m 7,8 C -2,2 C 49,9 km/h (6 Bft) 100,00 %
29.10.2017 05:15 9,1 C 9,4 C 91 % 1002,4 hPa 0,0 l/m 31,2 km/h (5 Bft) W 260 0 min 0,000 mm 0,0 UV-I 0 W/m 7,7 C -0,9 C 54,7 km/h (7 Bft) 95,65 %
29.10.2017 05:16 9,1 C 9,4 C 91 % 1002,3 hPa 0,0 l/m 35,9 km/h (5 Bft) S-SW 196 0 min 0,000 mm 0,0 UV-I 0 W/m 7,7 C -1,8 C 53,1 km/h (7 Bft) 96,30 %
29.10.2017 05:17 9,2 C 9,4 C 91 % 1002,4 hPa 0,0 l/m 34,5 km/h (5 Bft) W-SW 244 0 min 0,000 mm 0,0 UV-I 0 W/m 7,8 C -1,4 C 49,9 km/h (6 Bft) 95,65 %
29.10.2017 05:18 9,2 C 9,4 C 91 % 1002,3 hPa 0,0 l/m 31,8 km/h (5 Bft) W-SW 240 0 min 0,000 mm 0,0 UV-I 0 W/m 7,8 C -0,9 C 41,8 km/h (6 Bft) 96,30 %
29.10.2017 05:19 9,2 C 9,4 C 91 % 1002,3 hPa 0,0 l/m 31,3 km/h (5 Bft) W-SW 248 0 min 0,000 mm 0,0 UV-I 0 W/m 7,8 C -0,7 C 41,8 km/h (6 Bft) 100,00 %
29.10.2017 05:20 9,2 C 9,4 C 90 % 1002,3 hPa 0,0 l/m 31,2 km/h (5 Bft) W-SW 244 0 min 0,000 mm 0,0 UV-I 0 W/m 7,6 C -0,7 C 43,5 km/h (6 Bft) 100,00 %
29.10.2017 05:21 9,3 C 9,4 C 90 % 1002,1 hPa 0,0 l/m 27,4 km/h (4 Bft) W 271 0 min 0,000 mm 0,0 UV-I 0 W/m 7,7 C 0,3 C 38,6 km/h (5 Bft) 96,15 %
29.10.2017 05:22 9,3 C 9,4 C 90 % 1002,1 hPa 0,0 l/m 34,0 km/h (5 Bft) SW 221 0 min 0,000 mm 0,0 UV-I 0 W/m 7,7 C -1,1 C 49,9 km/h (6 Bft) 95,83 %
29.10.2017 05:23 9,3 C 9,4 C 90 % 1002,1 hPa 0,0 l/m 34,7 km/h (5 Bft) SW 236 0 min 0,000 mm 0,0 UV-I 0 W/m 7,7 C -1,3 C 41,8 km/h (6 Bft) 100,00 %
29.10.2017 05:24 9,3 C 9,4 C 89 % 1002,0 hPa 0,0 l/m 29,0 km/h (5 Bft) W 272 0 min 0,000 mm 0,0 UV-I 0 W/m 7,6 C -0,1 C 40,2 km/h (6 Bft) 93,33 %
29.10.2017 05:25 9,4 C 9,4 C 89 % 1002,1 hPa 0,0 l/m 29,6 km/h (5 Bft) W-SW 246 0 min 0,000 mm 0,0 UV-I 0 W/m 7,7 C -0,1 C 48,3 km/h (6 Bft) 100,00 %
29.10.2017 05:26 9,4 C 9,4 C 89 % 1002,0 hPa 0,0 l/m 34,2 km/h (5 Bft) W-SW 252 0 min 0,000 mm 0,0 UV-I 0 W/m 7,7 C -1,0 C 46,7 km/h (6 Bft) 95,65 %
29.10.2017 05:27 9,4 C 9,4 C 89 % 1002,0 hPa 0,0 l/m 25,8 km/h (4 Bft) W-SW 244 0 min 0,000 mm 0,0 UV-I 0 W/m 7,7 C 0,8 C 35,4 km/h (5 Bft) 100,00 %
29.10.2017 05:28 9,5 C 9,4 C 89 % 1001,9 hPa 0,0 l/m 31,6 km/h (5 Bft) W-SW 238 0 min 0,000 mm 0,0 UV-I 0 W/m 7,8 C -0,4 C 54,7 km/h (7 Bft) 90,91 %
29.10.2017 05:29 9,5 C 9,4 C 89 % 1001,8 hPa 0,0 l/m 26,3 km/h (4 Bft) W-SW 246 0 min 0,000 mm 0,0 UV-I 0 W/m 7,8 C 0,8 C 32,2 km/h (5 Bft) 97,56 %
29.10.2017 05:30 9,5 C 9,4 C 89 % 1001,8 hPa 0,0 l/m 32,0 km/h (5 Bft) SW 236 0 min 0,000 mm 0,0 UV-I 0 W/m 7,8 C -0,5 C 40,2 km/h (6 Bft) 100,00 %
29.10.2017 05:31 9,6 C 9,4 C 88 % 1001,9 hPa 0,0 l/m 21,1 km/h (4 Bft) W-NW 294 0 min 0,000 mm 0,0 UV-I 0 W/m 7,7 C 2,4 C 33,8 km/h (5 Bft) 92,59 %
29.10.2017 05:32 9,6 C 9,4 C 88 % 1001,7 hPa 0,0 l/m 33,7 km/h (5 Bft) W-SW 254 0 min 0,000 mm 0,0 UV-I 0 W/m 7,7 C -0,7 C 48,3 km/h (6 Bft) 100,00 %
29.10.2017 05:33 9,6 C 9,4 C 88 % 1001,8 hPa 0,0 l/m 34,9 km/h (5 Bft) W 265 0 min 0,000 mm 0,0 UV-I 0 W/m 7,7 C -0,9 C 46,7 km/h (6 Bft) 95,83 %
29.10.2017 05:34 9,6 C 9,4 C 88 % 1001,7 hPa 0,0 l/m 40,2 km/h (6 Bft) SW 234 0 min 0,000 mm 0,0 UV-I 0 W/m 7,7 C -1,7 C 61,2 km/h (7 Bft) 95,65 %
29.10.2017 05:35 9,7 C 9,4 C 87 % 1001,5 hPa 0,0 l/m 41,1 km/h (6 Bft) W 264 0 min 0,000 mm 0,0 UV-I 0 W/m 7,6 C -1,7 C 54,7 km/h (7 Bft) 95,83 %
29.10.2017 05:36 9,7 C 9,4 C 87 % 1001,6 hPa 0,0 l/m 36,6 km/h (5 Bft) SW 220 0 min 0,000 mm 0,0 UV-I 0 W/m 7,6 C -1,0 C 62,8 km/h (8 Bft) 96,15 %
29.10.2017 05:37 9,8 C 9,4 C 87 % 1001,5 hPa 0,0 l/m 35,5 km/h (5 Bft) W-SW 238 0 min 0,000 mm 0,0 UV-I 0 W/m 7,7 C -0,7 C 56,3 km/h (7 Bft) 100,00 %
29.10.2017 05:38 9,8 C 9,4 C 86 % 1001,4 hPa 0,0 l/m 31,2 km/h (5 Bft) S-SW 193 0 min 0,000 mm 0,0 UV-I 0 W/m 7,6 C 0,1 C 43,5 km/h (6 Bft) 95,65 %
29.10.2017 05:39 9,8 C 9,4 C 87 % 1001,5 hPa 0,0 l/m 35,0 km/h (5 Bft) SW 236 0 min 0,000 mm 0,0 UV-I 0 W/m 7,7 C -0,6 C 59,5 km/h (7 Bft) 100,00 %
29.10.2017 05:40 9,9 C 9,4 C 86 % 1001,5 hPa 0,0 l/m 32,7 km/h (5 Bft) W-SW 247 0 min 0,000 mm 0,0 UV-I 0 W/m 7,7 C -0,0 C 41,8 km/h (6 Bft) 95,65 %
29.10.2017 05:41 9,9 C 9,4 C 86 % 1001,6 hPa 0,0 l/m 28,3 km/h (4 Bft) W-SW 250 0 min 0,000 mm 0,0 UV-I 0 W/m 7,7 C 0,9 C 45,1 km/h (6 Bft) 96,30 %
29.10.2017 05:42 9,9 C 9,4 C 86 % 1001,4 hPa 0,0 l/m 28,7 km/h (4 Bft) SW 221 0 min 0,000 mm 0,0 UV-I 0 W/m 7,7 C 0,8 C 43,5 km/h (6 Bft) 95,65 %
29.10.2017 05:43 9,9 C 9,4 C 86 % 1001,4 hPa 0,0 l/m 34,8 km/h (5 Bft) SW 215 0 min 0,000 mm 0,0 UV-I 0 W/m 7,7 C -0,4 C 61,2 km/h (7 Bft) 92,59 %
29.10.2017 05:44 9,9 C 9,4 C 86 % 1001,4 hPa 0,0 l/m 40,1 km/h (6 Bft) W-SW 244 0 min 0,000 mm 0,0 UV-I 0 W/m 7,7 C -1,3 C 54,7 km/h (7 Bft) 100,00 %
29.10.2017 05:45 9,9 C 9,4 C 86 % 1001,5 hPa 0,0 l/m 29,0 km/h (5 Bft) W-SW 244 0 min 0,000 mm 0,0 UV-I 0 W/m 7,7 C 0,7 C 48,3 km/h (6 Bft) 96,30 %
29.10.2017 05:46 9,9 C 9,4 C 86 % 1001,4 hPa 0,0 l/m 39,6 km/h (6 Bft) SW 233 0 min 0,000 mm 0,0 UV-I 0 W/m 7,7 C -1,2 C 49,9 km/h (6 Bft) 100,00 %
29.10.2017 05:47 10,0 C 9,4 C 85 % 1001,2 hPa 0,0 l/m 36,0 km/h (5 Bft) SW 233 0 min 0,000 mm 0,0 UV-I 0 W/m 7,6 C -0,5 C 54,7 km/h (7 Bft) 96,15 %
29.10.2017 05:48 10,0 C 9,4 C 85 % 1001,2 hPa 0,0 l/m 33,9 km/h (5 Bft) W-SW 241 0 min 0,000 mm 0,0 UV-I 0 W/m 7,6 C -0,1 C 54,7 km/h (7 Bft) 100,00 %
29.10.2017 05:49 10,0 C 9,4 C 85 % 1001,3 hPa 0,2 l/m 40,7 km/h (6 Bft) S-SW 206 0 min 0,000 mm 0,0 UV-I 0 W/m 7,6 C -1,2 C 57,9 km/h (7 Bft) 96,15 %
29.10.2017 05:50 10,1 C 9,4 C 85 % 1001,2 hPa 0,0 l/m 38,8 km/h (5 Bft) W-SW 243 0 min 0,000 mm 0,0 UV-I 0 W/m 7,7 C -0,8 C 51,5 km/h (7 Bft) 100,00 %
29.10.2017 05:51 10,1 C 9,4 C 84 % 1001,1 hPa 0,0 l/m 41,0 km/h (6 Bft) SW 229 0 min 0,000 mm 0,0 UV-I 0 W/m 7,5 C -1,1 C 54,7 km/h (7 Bft) 96,15 %
29.10.2017 05:52 10,2 C 9,4 C 84 % 1001,3 hPa 0,0 l/m 37,2 km/h (5 Bft) W-SW 250 0 min 0,000 mm 0,0 UV-I 0 W/m 7,6 C -0,4 C 49,9 km/h (6 Bft) 100,00 %
29.10.2017 05:53 10,2 C 9,4 C 84 % 1001,2 hPa 0,0 l/m 35,7 km/h (5 Bft) W 259 0 min 0,000 mm 0,0 UV-I 0 W/m 7,6 C -0,1 C 56,3 km/h (7 Bft) 100,00 %
29.10.2017 05:54 10,3 C 9,4 C 83 % 1001,2 hPa 0,0 l/m 38,0 km/h (5 Bft) SW 229 0 min 0,000 mm 0,0 UV-I 0 W/m 7,5 C -0,4 C 57,9 km/h (7 Bft) 96,30 %
29.10.2017 05:55 10,3 C 9,4 C 83 % 1001,2 hPa 0,0 l/m 30,6 km/h (5 Bft) W 272 0 min 0,000 mm 0,0 UV-I 0 W/m 7,5 C 1,0 C 45,1 km/h (6 Bft) 100,00 %
29.10.2017 05:56 10,3 C 9,4 C 83 % 1001,2 hPa 0,0 l/m 39,5 km/h (6 Bft) SW 232 0 min 0,000 mm 0,0 UV-I 0 W/m 7,5 C -0,6 C 51,5 km/h (7 Bft) 100,00 %
29.10.2017 05:57 10,4 C 9,4 C 83 % 1001,0 hPa 0,0 l/m 35,2 km/h (5 Bft) W-SW 238 0 min 0,000 mm 0,0 UV-I 0 W/m 7,6 C 0,2 C 69,2 km/h (8 Bft) 96,88 %
29.10.2017 05:58 10,4 C 9,4 C 83 % 1000,9 hPa 0,0 l/m 47,8 km/h (6 Bft) SW 235 0 min 0,000 mm 0,0 UV-I 0 W/m 7,6 C -1,5 C 67,6 km/h (8 Bft) 100,00 %
29.10.2017 05:59 10,4 C 9,4 C 82 % 1001,0 hPa 0,0 l/m 40,6 km/h (6 Bft) W-SW 254 0 min 0,000 mm 0,0 UV-I 0 W/m 7,5 C -0,6 C 49,9 km/h (6 Bft) 93,33 %
29.10.2017 06:00 10,4 C 9,4 C 82 % 1001,0 hPa 0,0 l/m 32,3 km/h (5 Bft) W 267 0 min 0,000 mm 0,0 UV-I 0 W/m 7,5 C 0,8 C 46,7 km/h (6 Bft) 100,00 %
29.10.2017 06:01 10,5 C 9,4 C 82 % 1000,9 hPa 0,0 l/m 29,7 km/h (5 Bft) W 259 0 min 0,051 mm 0,0 UV-I 0 W/m 7,6 C 1,4 C 45,1 km/h (6 Bft) 100,00 %
29.10.2017 06:02 10,5 C 9,4 C 82 % 1000,8 hPa 0,0 l/m 35,3 km/h (5 Bft) W 259 0 min 0,000 mm 0,0 UV-I 0 W/m 7,6 C 0,4 C 48,3 km/h (6 Bft) 100,00 %
29.10.2017 06:03 10,5 C 9,4 C 82 % 1000,7 hPa 0,0 l/m 39,3 km/h (6 Bft) W-SW 257 0 min 0,000 mm 0,0 UV-I 0 W/m 7,6 C -0,3 C 62,8 km/h (8 Bft) 100,00 %
29.10.2017 06:04 10,5 C 9,4 C 82 % 1000,8 hPa 0,0 l/m 38,6 km/h (5 Bft) W-SW 244 0 min 0,000 mm 0,0 UV-I 0 W/m 7,6 C -0,2 C 53,1 km/h (7 Bft) 100,00 %
29.10.2017 06:05 10,6 C 9,4 C 82 % 1000,6 hPa 0,0 l/m 48,2 km/h (6 Bft) W-SW 245 0 min 0,000 mm 0,0 UV-I 0 W/m 7,7 C -1,2 C 72,4 km/h (8 Bft) 100,00 %
29.10.2017 06:06 10,6 C 9,4 C 82 % 1000,5 hPa 0,0 l/m 42,6 km/h (6 Bft) W-SW 238 0 min 0,000 mm 0,0 UV-I 0 W/m 7,7 C -0,6 C 61,2 km/h (7 Bft) 97,60 %
29.10.2017 06:07 10,6 C 9,4 C 82 % 1000,6 hPa 0,0 l/m 34,3 km/h (5 Bft) W-NW 285 0 min 0,000 mm 0,0 UV-I 0 W/m 7,7 C 0,7 C 40,2 km/h (6 Bft) 100,00 %
29.10.2017 06:08 10,6 C 9,4 C 82 % 1000,6 hPa 0,0 l/m 31,2 km/h (5 Bft) SW 236 0 min 0,000 mm 0,0 UV-I 0 W/m 7,7 C 1,3 C 46,7 km/h (6 Bft) 96,15 %
29.10.2017 06:09 10,6 C 9,4 C 82 % 1000,6 hPa 0,0 l/m 33,7 km/h (5 Bft) W 259 0 min 0,000 mm 0,0 UV-I 0 W/m 7,7 C 0,8 C 45,1 km/h (6 Bft) 100,00 %
29.10.2017 06:10 10,6 C 9,4 C 83 % 1000,5 hPa 0,0 l/m 30,5 km/h (5 Bft) W-SW 253 0 min 0,000 mm 0,0 UV-I 0 W/m 7,8 C 1,4 C 40,2 km/h (6 Bft) 100,00 %
29.10.2017 06:11 10,6 C 9,4 C 83 % 1000,6 hPa 0,0 l/m 30,7 km/h (5 Bft) W-SW 242 0 min 0,000 mm 0,0 UV-I 0 W/m 7,8 C 1,4 C 53,1 km/h (7 Bft) 100,00 %
29.10.2017 06:12 10,6 C 9,4 C 83 % 1000,5 hPa 0,0 l/m 36,0 km/h (5 Bft) W 264 0 min 0,000 mm 0,0 UV-I 0 W/m 7,8 C 0,4 C 53,1 km/h (7 Bft) 100,00 %
29.10.2017 06:13 10,6 C 9,4 C 83 % 1000,5 hPa 0,0 l/m 25,9 km/h (4 Bft) W-SW 248 0 min 0,000 mm 0,0 UV-I 0 W/m 7,8 C 2,4 C 41,8 km/h (6 Bft) 100,00 %
29.10.2017 06:14 10,6 C 9,4 C 83 % 1000,5 hPa 0,0 l/m 28,7 km/h (4 Bft) SW 218 0 min 0,000 mm 0,0 UV-I 0 W/m 7,8 C 1,8 C 38,6 km/h (5 Bft) 96,00 %
29.10.2017 06:15 10,6 C 9,4 C 83 % 1000,5 hPa 0,0 l/m 25,4 km/h (4 Bft) W-NW 295 0 min 0,000 mm 0,0 UV-I 0 W/m 7,8 C 2,5 C 33,8 km/h (5 Bft) 100,00 %
29.10.2017 06:16 10,6 C 9,4 C 84 % 1000,5 hPa 0,0 l/m 33,0 km/h (5 Bft) SW 236 0 min 0,000 mm 0,0 UV-I 0 W/m 8,0 C 0,9 C 53,1 km/h (7 Bft) 96,15 %
29.10.2017 06:17 10,5 C 9,4 C 84 % 1000,2 hPa 0,0 l/m 31,1 km/h (5 Bft) W-SW 250 0 min 0,000 mm 0,0 UV-I 0 W/m 7,9 C 1,1 C 43,5 km/h (6 Bft) 100,00 %
29.10.2017 06:18 10,5 C 9,4 C 84 % 1000,2 hPa 0,0 l/m 39,5 km/h (6 Bft) W 269 0 min 0,000 mm 0,0 UV-I 0 W/m 7,9 C -0,3 C 59,5 km/h (7 Bft) 100,00 %
29.10.2017 06:19 10,5 C 9,4 C 84 % 1000,2 hPa 0,2 l/m 37,6 km/h (5 Bft) W-SW 250 0 min 0,000 mm 0,0 UV-I 0 W/m 7,9 C -0,0 C 48,3 km/h (6 Bft) 100,00 %
29.10.2017 06:20 10,5 C 9,4 C 84 % 1000,1 hPa 0,0 l/m 35,6 km/h (5 Bft) W 263 0 min 0,000 mm 0,0 UV-I 0 W/m 7,9 C 0,3 C 46,7 km/h (6 Bft) 97,75 %
29.10.2017 06:21 10,4 C 9,4 C 84 % 1000,1 hPa 0,0 l/m 39,3 km/h (6 Bft) W 259 0 min 0,000 mm 0,0 UV-I 0 W/m 7,8 C -0,4 C 59,5 km/h (7 Bft) 97,56 %
29.10.2017 06:22 10,4 C 9,4 C 84 % 1000,0 hPa 0,0 l/m 32,7 km/h (5 Bft) W-SW 253 0 min 0,000 mm 0,0 UV-I 0 W/m 7,8 C 0,7 C 48,3 km/h (6 Bft) 100,00 %
29.10.2017 06:23 10,4 C 9,4 C 84 % 1000,2 hPa 0,0 l/m 30,6 km/h (5 Bft) W-SW 252 0 min 0,000 mm 0,0 UV-I 0 W/m 7,8 C 1,1 C 40,2 km/h (6 Bft) 100,00 %
29.10.2017 06:24 10,5 C 9,4 C 84 % 1000,1 hPa 0,0 l/m 34,8 km/h (5 Bft) W-SW 253 0 min 0,000 mm 0,0 UV-I 0 W/m 7,9 C 0,4 C 46,7 km/h (6 Bft) 96,30 %
29.10.2017 06:25 10,5 C 9,4 C 84 % 1000,1 hPa 0,0 l/m 30,2 km/h (5 Bft) W 265 0 min 0,000 mm 0,0 UV-I 0 W/m 7,9 C 1,3 C 41,8 km/h (6 Bft) 100,00 %
29.10.2017 06:26 10,4 C 9,4 C 84 % 999,9 hPa 0,0 l/m 35,3 km/h (5 Bft) W 261 0 min 0,000 mm 0,0 UV-I 0 W/m 7,8 C 0,2 C 48,3 km/h (6 Bft) 100,00 %
29.10.2017 06:27 10,5 C 9,4 C 84 % 999,9 hPa 0,0 l/m 32,9 km/h (5 Bft) W-SW 254 0 min 0,000 mm 0,0 UV-I 0 W/m 7,9 C 0,8 C 49,9 km/h (6 Bft) 100,00 %
29.10.2017 06:28 10,5 C 9,4 C 84 % 1000,0 hPa 0,0 l/m 43,8 km/h (6 Bft) W-SW 254 0 min 0,000 mm 0,0 UV-I 0 W/m 7,9 C -0,9 C 57,9 km/h (7 Bft) 100,00 %
29.10.2017 06:29 10,5 C 9,4 C 84 % 1000,0 hPa 0,0 l/m 30,7 km/h (5 Bft) SW 236 0 min 0,000 mm 0,0 UV-I 0 W/m 7,9 C 1,2 C 49,9 km/h (6 Bft) 100,00 %
29.10.2017 06:30 10,5 C 9,4 C 84 % 1000,0 hPa 0,2 l/m 39,6 km/h (6 Bft) W 262 0 min 0,000 mm 0,0 UV-I 0 W/m 7,9 C -0,3 C 53,1 km/h (7 Bft) 100,00 %
29.10.2017 06:31 10,5 C 9,4 C 84 % 999,8 hPa 0,0 l/m 51,1 km/h (7 Bft) W 261 0 min 0,000 mm 0,0 UV-I 0 W/m 7,9 C -1,7 C 57,9 km/h (7 Bft) 100,00 %
29.10.2017 06:32 10,6 C 9,4 C 84 % 999,8 hPa 0,0 l/m 35,6 km/h (5 Bft) W-SW 250 0 min 0,000 mm 0,0 UV-I 0 W/m 8,0 C 0,5 C 45,1 km/h (6 Bft) 100,00 %
29.10.2017 06:33 10,5 C 9,4 C 84 % 999,8 hPa 0,0 l/m 34,4 km/h (5 Bft) W-SW 257 0 min 0,000 mm 0,0 UV-I 0 W/m 7,9 C 0,5 C 59,5 km/h (7 Bft) 100,00 %
29.10.2017 06:34 10,5 C 9,4 C 84 % 999,7 hPa 0,0 l/m 34,6 km/h (5 Bft) W-SW 248 0 min 0,000 mm 0,0 UV-I 0 W/m 7,9 C 0,5 C 46,7 km/h (6 Bft) 100,00 %
29.10.2017 06:35 10,5 C 9,4 C 84 % 999,6 hPa 0,0 l/m 48,9 km/h (6 Bft) W 261 0 min 0,000 mm 0,0 UV-I 0 W/m 7,9 C -1,4 C 66,0 km/h (8 Bft) 100,00 %
29.10.2017 06:36 10,6 C 9,4 C 84 % 999,4 hPa 0,0 l/m 36,7 km/h (5 Bft) W-SW 238 0 min 0,000 mm 0,0 UV-I 0 W/m 8,0 C 0,3 C 62,8 km/h (8 Bft) 100,00 %
29.10.2017 06:37 10,6 C 9,4 C 84 % 999,5 hPa 0,0 l/m 43,4 km/h (6 Bft) W 261 0 min 0,000 mm 0,0 UV-I 0 W/m 8,0 C -0,7 C 80,5 km/h (9 Bft) 100,00 %
29.10.2017 06:38 10,6 C 9,4 C 84 % 999,7 hPa 0,2 l/m 47,8 km/h (6 Bft) W 262 0 min 0,000 mm 0,0 UV-I 0 W/m 8,0 C -1,2 C 61,2 km/h (7 Bft) 97,96 %
29.10.2017 06:39 10,6 C 9,4 C 84 % 999,5 hPa 0,0 l/m 46,8 km/h (6 Bft) W-SW 245 0 min 0,000 mm 0,0 UV-I 0 W/m 8,0 C -1,1 C 64,4 km/h (8 Bft) 100,00 %
29.10.2017 06:40 10,7 C 9,4 C 83 % 999,4 hPa 0,0 l/m 39,4 km/h (6 Bft) W-SW 247 0 min 0,000 mm 0,0 UV-I 0 W/m 7,9 C 0,0 C 53,1 km/h (7 Bft) 94,44 %
29.10.2017 06:41 10,7 C 9,4 C 83 % 999,4 hPa 0,0 l/m 36,2 km/h (5 Bft) W 265 0 min 0,000 mm 0,0 UV-I 0 W/m 7,9 C 0,5 C 56,3 km/h (7 Bft) 100,00 %
29.10.2017 06:42 10,7 C 9,4 C 83 % 999,4 hPa 0,0 l/m 37,4 km/h (5 Bft) W-SW 242 0 min 0,000 mm 0,0 UV-I 0 W/m 7,9 C 0,3 C 48,3 km/h (6 Bft) 100,00 %
29.10.2017 06:43 10,7 C 9,4 C 83 % 999,4 hPa 0,0 l/m 35,3 km/h (5 Bft) SW 225 0 min 0,000 mm 0,0 UV-I 0 W/m 7,9 C 0,7 C 53,1 km/h (7 Bft) 100,00 %
29.10.2017 06:44 10,8 C 9,4 C 83 % 999,3 hPa 0,0 l/m 35,8 km/h (5 Bft) W-SW 251 0 min 0,000 mm 0,0 UV-I 0 W/m 8,0 C 0,7 C 46,7 km/h (6 Bft) 100,00 %
29.10.2017 06:45 10,8 C 9,4 C 82 % 999,2 hPa 0,0 l/m 52,8 km/h (7 Bft) SW 231 0 min 0,000 mm 0,0 UV-I 0 W/m 7,9 C -1,3 C 78,9 km/h (9 Bft) 100,00 %
29.10.2017 06:46 10,8 C 9,4 C 82 % 999,5 hPa 0,0 l/m 45,5 km/h (6 Bft) W 266 0 min 0,000 mm 0,0 UV-I 0 W/m 7,9 C -0,6 C 69,2 km/h (8 Bft) 96,15 %
29.10.2017 06:47 10,9 C 9,4 C 82 % 999,3 hPa 0,0 l/m 45,1 km/h (6 Bft) W-SW 240 0 min 0,000 mm 0,0 UV-I 0 W/m 7,9 C -0,4 C 61,2 km/h (7 Bft) 100,00 %
29.10.2017 06:48 10,9 C 9,4 C 82 % 999,3 hPa 0,0 l/m 38,8 km/h (5 Bft) SW 220 0 min 0,000 mm 0,0 UV-I 0 W/m 7,9 C 0,4 C 49,9 km/h (6 Bft) 100,00 %
29.10.2017 06:49 10,9 C 9,4 C 81 % 999,0 hPa 0,0 l/m 49,2 km/h (6 Bft) W-SW 238 0 min 0,000 mm 0,0 UV-I 0 W/m 7,8 C -0,9 C 74,0 km/h (8 Bft) 100,00 %
29.10.2017 06:50 11,0 C 9,4 C 81 % 999,0 hPa 0,0 l/m 45,4 km/h (6 Bft) W-SW 243 0 min 0,000 mm 0,0 UV-I 0 W/m 7,9 C -0,3 C 70,8 km/h (8 Bft) 95,83 %
29.10.2017 06:51 11,1 C 9,4 C 81 % 999,0 hPa 0,0 l/m 41,3 km/h (6 Bft) W 259 0 min 0,000 mm 0,0 UV-I 0 W/m 8,0 C 0,3 C 69,2 km/h (8 Bft) 100,00 %
29.10.2017 06:52 11,1 C 9,4 C 81 % 999,3 hPa 0,0 l/m 34,5 km/h (5 Bft) W 273 0 min 0,000 mm 0,0 UV-I 0 W/m 8,0 C 1,4 C 43,5 km/h (6 Bft) 96,15 %
29.10.2017 06:53 11,2 C 9,4 C 80 % 999,0 hPa 0,0 l/m 28,8 km/h (4 Bft) W-SW 242 0 min 0,000 mm 0,0 UV-I 0 W/m 7,9 C 2,6 C 40,2 km/h (6 Bft) 100,00 %
29.10.2017 06:54 11,2 C 9,4 C 80 % 998,8 hPa 0,0 l/m 51,9 km/h (7 Bft) SW 227 0 min 0,000 mm 0,0 UV-I 0 W/m 7,9 C -0,6 C 72,4 km/h (8 Bft) 100,00 %
29.10.2017 06:55 11,2 C 9,4 C 79 % 999,0 hPa 0,0 l/m 44,3 km/h (6 Bft) W-SW 240 0 min 0,000 mm 0,0 UV-I 0 W/m 7,7 C 0,1 C 54,7 km/h (7 Bft) 100,00 %
29.10.2017 06:56 11,3 C 9,4 C 79 % 998,9 hPa 0,0 l/m 38,9 km/h (6 Bft) W-SW 248 0 min 0,000 mm 0,0 UV-I 0 W/m 7,8 C 1,0 C 67,6 km/h (8 Bft) 100,00 %
29.10.2017 06:57 11,3 C 9,4 C 79 % 998,9 hPa 0,0 l/m 43,5 km/h (6 Bft) W 259 0 min 0,000 mm 0,0 UV-I 0 W/m 7,8 C 0,4 C 64,4 km/h (8 Bft) 100,00 %
29.10.2017 06:58 11,4 C 9,4 C 78 % 998,8 hPa 0,0 l/m 35,8 km/h (5 Bft) W 264 0 min 0,000 mm 0,0 UV-I 0 W/m 7,7 C 1,6 C 51,5 km/h (7 Bft) 98,09 %
29.10.2017 06:59 11,4 C 9,4 C 78 % 998,8 hPa 0,0 l/m 36,9 km/h (5 Bft) W 265 0 min 0,000 mm 0,0 UV-I 0 W/m 7,7 C 1,4 C 48,3 km/h (6 Bft) 100,00 %
29.10.2017 07:00 11,5 C 9,4 C 78 % 998,8 hPa 0,0 l/m 42,0 km/h (6 Bft) W 269 0 min 0,000 mm 0,0 UV-I 0 W/m 7,8 C 0,9 C 53,1 km/h (7 Bft) 100,00 %
29.10.2017 07:01 11,5 C 9,4 C 78 % 998,7 hPa 0,0 l/m 39,7 km/h (6 Bft) S-SW 210 0 min 0,076 mm 0,0 UV-I 0 W/m 7,8 C 1,2 C 53,1 km/h (7 Bft) 100,00 %
29.10.2017 07:02 11,5 C 9,4 C 78 % 998,6 hPa 0,0 l/m 30,2 km/h (5 Bft) W-NW 284 0 min 0,000 mm 0,0 UV-I 0 W/m 7,8 C 2,7 C 40,2 km/h (6 Bft) 100,00 %
29.10.2017 07:03 11,6 C 9,4 C 78 % 998,6 hPa 0,0 l/m 39,0 km/h (6 Bft) W 259 0 min 0,000 mm 0,0 UV-I 0 W/m 7,9 C 1,4 C 51,5 km/h (7 Bft) 100,00 %
29.10.2017 07:04 11,6 C 9,4 C 77 % 998,6 hPa 0,0 l/m 41,9 km/h (6 Bft) W 266 0 min 0,000 mm 0,0 UV-I 0 W/m 7,7 C 1,0 C 67,6 km/h (8 Bft) 100,00 %
29.10.2017 07:05 11,6 C 9,4 C 77 % 998,6 hPa 0,0 l/m 37,3 km/h (5 Bft) W-SW 249 0 min 0,000 mm 0,0 UV-I 4 W/m 7,7 C 1,6 C 49,9 km/h (6 Bft) 100,00 %
29.10.2017 07:06 11,6 C 9,4 C 77 % 998,6 hPa 0,0 l/m 39,6 km/h (6 Bft) W-SW 254 0 min 0,000 mm 0,0 UV-I 5 W/m 7,7 C 1,3 C 54,7 km/h (7 Bft) 100,00 %
29.10.2017 07:07 11,6 C 9,4 C 77 % 998,5 hPa 0,0 l/m 37,0 km/h (5 Bft) W-SW 255 0 min 0,000 mm 0,0 UV-I 5 W/m 7,7 C 1,7 C 51,5 km/h (7 Bft) 100,00 %
29.10.2017 07:08 11,6 C 9,4 C 77 % 998,4 hPa 0,0 l/m 32,7 km/h (5 Bft) W 263 0 min 0,000 mm 0,0 UV-I 5 W/m 7,7 C 2,4 C 51,5 km/h (7 Bft) 100,00 %
29.10.2017 07:09 11,7 C 9,4 C 77 % 998,3 hPa 0,0 l/m 37,8 km/h (5 Bft) W-SW 240 0 min 0,000 mm 0,0 UV-I 6 W/m 7,8 C 1,7 C 49,9 km/h (6 Bft) 96,55 %
29.10.2017 07:10 11,7 C 9,4 C 77 % 998,3 hPa 0,0 l/m 48,5 km/h (6 Bft) SW 223 0 min 0,000 mm 0,0 UV-I 7 W/m 7,8 C 0,4 C 69,2 km/h (8 Bft) 100,00 %
29.10.2017 07:11 11,7 C 9,4 C 76 % 998,2 hPa 0,0 l/m 53,5 km/h (7 Bft) W 272 0 min 0,000 mm 0,0 UV-I 7 W/m 7,6 C -0,0 C 82,1 km/h (9 Bft) 100,00 %
29.10.2017 07:12 11,8 C 9,4 C 76 % 998,4 hPa 0,0 l/m 42,2 km/h (6 Bft) W 278 0 min 0,000 mm 0,0 UV-I 9 W/m 7,7 C 1,3 C 59,5 km/h (7 Bft) 100,00 %
29.10.2017 07:13 11,8 C 9,4 C 76 % 998,5 hPa 0,0 l/m 41,4 km/h (6 Bft) W-SW 242 0 min 0,000 mm 0,0 UV-I 9 W/m 7,7 C 1,4 C 53,1 km/h (7 Bft) 100,00 %
29.10.2017 07:14 11,8 C 9,4 C 76 % 998,5 hPa 0,0 l/m 33,1 km/h (5 Bft) W-SW 247 0 min 0,000 mm 0,0 UV-I 10 W/m 7,7 C 2,6 C 51,5 km/h (7 Bft) 100,00 %
29.10.2017 07:15 11,8 C 9,4 C 76 % 998,5 hPa 0,0 l/m 35,7 km/h (5 Bft) SW 219 0 min 0,000 mm 0,0 UV-I 11 W/m 7,7 C 2,2 C 53,1 km/h (7 Bft) 100,00 %
29.10.2017 07:16 11,8 C 9,4 C 76 % 998,2 hPa 0,0 l/m 40,7 km/h (6 Bft) W-SW 242 0 min 0,000 mm 0,0 UV-I 9 W/m 7,7 C 1,5 C 51,5 km/h (7 Bft) 100,00 %
29.10.2017 07:17 11,8 C 9,4 C 76 % 998,4 hPa 0,0 l/m 43,7 km/h (6 Bft) W-SW 238 0 min 0,000 mm 0,0 UV-I 7 W/m 7,7 C 1,1 C 53,1 km/h (7 Bft) 100,00 %
29.10.2017 07:18 11,8 C 9,4 C 76 % 998,4 hPa 0,0 l/m 39,6 km/h (6 Bft) W-SW 250 0 min 0,000 mm 0,0 UV-I 8 W/m 7,7 C 1,6 C 56,3 km/h (7 Bft) 100,00 %
29.10.2017 07:19 11,8 C 9,4 C 76 % 998,5 hPa 0,0 l/m 42,5 km/h (6 Bft) W-SW 251 0 min 0,000 mm 0,0 UV-I 9 W/m 7,7 C 1,2 C 61,2 km/h (7 Bft) 96,15 %
29.10.2017 07:20 11,8 C 9,4 C 76 % 998,5 hPa 0,0 l/m 36,8 km/h (5 Bft) W-SW 250 0 min 0,000 mm 0,0 UV-I 10 W/m 7,7 C 2,0 C 53,1 km/h (7 Bft) 95,83 %
29.10.2017 07:21 11,8 C 9,4 C 76 % 998,6 hPa 0,0 l/m 43,9 km/h (6 Bft) W-SW 243 0 min 0,000 mm 0,0 UV-I 11 W/m 7,7 C 1,1 C 69,2 km/h (8 Bft) 96,15 %
29.10.2017 07:22 11,8 C 9,4 C 76 % 998,2 hPa 0,0 l/m 35,0 km/h (5 Bft) W 267 0 min 0,000 mm 0,0 UV-I 11 W/m 7,7 C 2,3 C 53,1 km/h (7 Bft) 100,00 %
29.10.2017 07:23 11,8 C 9,4 C 76 % 998,3 hPa 0,0 l/m 54,8 km/h (7 Bft) W-SW 240 0 min 0,000 mm 0,0 UV-I 9 W/m 7,7 C 0,1 C 74,0 km/h (8 Bft) 100,00 %
29.10.2017 07:24 11,8 C 9,4 C 75 % 998,1 hPa 0,0 l/m 43,2 km/h (6 Bft) W-SW 257 0 min 0,000 mm 0,0 UV-I 9 W/m 7,5 C 1,2 C 53,1 km/h (7 Bft) 100,00 %
29.10.2017 07:25 11,8 C 9,4 C 76 % 998,2 hPa 0,0 l/m 44,4 km/h (6 Bft) SW 229 0 min 0,000 mm 0,0 UV-I 9 W/m 7,7 C 1,0 C 61,2 km/h (7 Bft) 100,00 %
29.10.2017 07:26 11,8 C 9,4 C 76 % 998,1 hPa 0,0 l/m 29,3 km/h (5 Bft) W-SW 257 0 min 0,000 mm 0,0 UV-I 9 W/m 7,7 C 3,3 C 38,6 km/h (5 Bft) 100,00 %
29.10.2017 07:27 11,8 C 9,4 C 76 % 998,1 hPa 0,0 l/m 34,4 km/h (5 Bft) W 259 0 min 0,000 mm 0,0 UV-I 10 W/m 7,7 C 2,4 C 56,3 km/h (7 Bft) 100,00 %
29.10.2017 07:28 11,8 C 9,4 C 76 % 998,1 hPa 0,0 l/m 30,3 km/h (5 Bft) W 273 0 min 0,000 mm 0,0 UV-I 11 W/m 7,7 C 3,1 C 45,1 km/h (6 Bft) 100,00 %
29.10.2017 07:29 11,8 C 9,4 C 76 % 998,1 hPa 0,0 l/m 31,9 km/h (5 Bft) W 266 0 min 0,000 mm 0,0 UV-I 11 W/m 7,7 C 2,8 C 48,3 km/h (6 Bft) 100,00 %
29.10.2017 07:30 11,8 C 9,4 C 76 % 997,9 hPa 0,0 l/m 38,4 km/h (5 Bft) W-SW 257 0 min 0,000 mm 0,0 UV-I 9 W/m 7,7 C 1,8 C 54,7 km/h (7 Bft) 100,00 %
29.10.2017 07:31 11,8 C 9,4 C 76 % 998,0 hPa 0,0 l/m 30,1 km/h (5 Bft) W-SW 237 0 min 0,000 mm 0,0 UV-I 11 W/m 7,7 C 3,2 C 43,5 km/h (6 Bft) 100,00 %
29.10.2017 07:32 11,8 C 9,4 C 76 % 997,9 hPa 0,0 l/m 51,9 km/h (7 Bft) W-SW 237 0 min 0,000 mm 0,0 UV-I 11 W/m 7,7 C 0,3 C 74,0 km/h (8 Bft) 96,15 %
29.10.2017 07:33 11,8 C 9,4 C 76 % 998,0 hPa 0,0 l/m 53,6 km/h (7 Bft) SW 232 0 min 0,000 mm 0,0 UV-I 13 W/m 7,7 C 0,1 C 67,6 km/h (8 Bft) 96,67 %
29.10.2017 07:34 11,8 C 9,4 C 76 % 997,9 hPa 0,0 l/m 47,2 km/h (6 Bft) W 262 0 min 0,000 mm 0,0 UV-I 16 W/m 7,7 C 0,7 C 72,4 km/h (8 Bft) 100,00 %
29.10.2017 07:35 11,8 C 9,4 C 76 % 997,9 hPa 0,0 l/m 42,6 km/h (6 Bft) W 259 0 min 0,000 mm 0,0 UV-I 15 W/m 7,7 C 1,2 C 51,5 km/h (7 Bft) 96,97 %
29.10.2017 07:36 11,8 C 9,4 C 76 % 997,9 hPa 0,0 l/m 41,6 km/h (6 Bft) W-SW 246 0 min 0,000 mm 0,0 UV-I 17 W/m 7,7 C 1,4 C 61,2 km/h (7 Bft) 96,15 %
29.10.2017 07:37 11,8 C 9,4 C 76 % 997,8 hPa 0,0 l/m 34,2 km/h (5 Bft) W-NW 285 0 min 0,000 mm 0,0 UV-I 17 W/m 7,7 C 2,4 C 56,3 km/h (7 Bft) 100,00 %
29.10.2017 07:38 11,8 C 9,4 C 76 % 997,8 hPa 0,0 l/m 34,8 km/h (5 Bft) W 269 0 min 0,000 mm 0,0 UV-I 15 W/m 7,7 C 2,3 C 41,8 km/h (6 Bft) 92,86 %
29.10.2017 07:39 11,8 C 9,4 C 76 % 997,9 hPa 0,0 l/m 35,2 km/h (5 Bft) W-SW 244 0 min 0,000 mm 0,0 UV-I 15 W/m 7,7 C 2,3 C 43,5 km/h (6 Bft) 96,30 %
29.10.2017 07:40 11,8 C 9,4 C 77 % 997,9 hPa 0,0 l/m 28,1 km/h (4 Bft) W-NW 290 0 min 0,000 mm 0,0 UV-I 16 W/m 7,9 C 3,6 C 35,4 km/h (5 Bft) 94,44 %
29.10.2017 07:41 11,8 C 9,4 C 77 % 997,8 hPa 0,0 l/m 42,8 km/h (6 Bft) W 263 0 min 0,000 mm 0,0 UV-I 18 W/m 7,9 C 1,2 C 67,6 km/h (8 Bft) 100,00 %
29.10.2017 07:42 11,8 C 9,4 C 77 % 997,9 hPa 0,0 l/m 40,0 km/h (6 Bft) W-SW 240 0 min 0,000 mm 0,0 UV-I 20 W/m 7,9 C 1,6 C 59,5 km/h (7 Bft) 96,15 %
29.10.2017 07:43 11,8 C 9,4 C 77 % 997,7 hPa 0,2 l/m 44,9 km/h (6 Bft) W 264 0 min 0,000 mm 0,0 UV-I 20 W/m 7,9 C 1,0 C 66,0 km/h (8 Bft) 95,83 %
29.10.2017 07:44 11,8 C 9,4 C 76 % 997,8 hPa 0,0 l/m 43,7 km/h (6 Bft) W-SW 245 0 min 0,000 mm 0,0 UV-I 18 W/m 7,7 C 1,1 C 64,4 km/h (8 Bft) 94,44 %
29.10.2017 07:45 11,8 C 9,4 C 76 % 997,8 hPa 0,0 l/m 42,3 km/h (6 Bft) W-SW 250 0 min 0,000 mm 0,0 UV-I 19 W/m 7,7 C 1,3 C 62,8 km/h (8 Bft) 96,55 %
29.10.2017 07:46 11,9 C 9,4 C 76 % 997,8 hPa 0,0 l/m 41,9 km/h (6 Bft) W 262 0 min 0,000 mm 0,0 UV-I 23 W/m 7,8 C 1,5 C 57,9 km/h (7 Bft) 100,00 %
29.10.2017 07:47 11,9 C 9,4 C 76 % 997,8 hPa 0,0 l/m 42,6 km/h (6 Bft) W-SW 254 0 min 0,000 mm 0,0 UV-I 28 W/m 7,8 C 1,4 C 59,5 km/h (7 Bft) 96,55 %
29.10.2017 07:48 11,9 C 9,4 C 75 % 997,5 hPa 0,0 l/m 44,1 km/h (6 Bft) W-SW 244 0 min 0,000 mm 0,0 UV-I 30 W/m 7,6 C 1,2 C 53,1 km/h (7 Bft) 100,00 %
29.10.2017 07:49 11,9 C 9,4 C 75 % 997,7 hPa 0,0 l/m 37,0 km/h (5 Bft) SW 231 0 min 0,000 mm 0,0 UV-I 31 W/m 7,6 C 2,1 C 62,8 km/h (8 Bft) 96,15 %
29.10.2017 07:50 12,0 C 9,4 C 75 % 997,3 hPa 0,0 l/m 44,2 km/h (6 Bft) W 268 0 min 0,000 mm 0,0 UV-I 26 W/m 7,7 C 1,3 C 69,2 km/h (8 Bft) 100,00 %
29.10.2017 07:51 12,0 C 9,4 C 75 % 997,6 hPa 0,0 l/m 45,9 km/h (6 Bft) W-NW 294 0 min 0,000 mm 0,0 UV-I 25 W/m 7,7 C 1,2 C 72,4 km/h (8 Bft) 93,10 %
29.10.2017 07:52 12,1 C 9,4 C 75 % 997,7 hPa 0,0 l/m 29,8 km/h (5 Bft) W 259 0 min 0,000 mm 0,0 UV-I 25 W/m 7,8 C 3,6 C 41,8 km/h (6 Bft) 95,83 %
29.10.2017 07:53 12,1 C 9,4 C 75 % 997,7 hPa 0,0 l/m 35,4 km/h (5 Bft) W 276 0 min 0,000 mm 0,0 UV-I 27 W/m 7,8 C 2,7 C 48,3 km/h (6 Bft) 96,15 %
29.10.2017 07:54 12,1 C 9,4 C 75 % 997,6 hPa 0,0 l/m 53,3 km/h (7 Bft) W-SW 251 0 min 0,000 mm 0,0 UV-I 28 W/m 7,8 C 0,6 C 72,4 km/h (8 Bft) 91,67 %
29.10.2017 07:55 12,1 C 9,4 C 74 % 997,5 hPa 0,0 l/m 39,8 km/h (6 Bft) W 279 0 min 0,000 mm 0,0 UV-I 29 W/m 7,6 C 2,0 C 54,7 km/h (7 Bft) 97,14 %
29.10.2017 07:56 12,2 C 9,4 C 74 % 997,5 hPa 0,0 l/m 48,0 km/h (6 Bft) W-SW 254 0 min 0,000 mm 0,0 UV-I 29 W/m 7,7 C 1,3 C 67,6 km/h (8 Bft) 91,67 %
29.10.2017 07:57 12,2 C 9,4 C 74 % 997,6 hPa 0,0 l/m 51,4 km/h (7 Bft) W-SW 254 0 min 0,000 mm 0,0 UV-I 30 W/m 7,7 C 0,9 C 66,0 km/h (8 Bft) 96,55 %
29.10.2017 07:58 12,2 C 9,4 C 74 % 997,6 hPa 0,0 l/m 50,9 km/h (7 Bft) W 269 0 min 0,000 mm 0,0 UV-I 30 W/m 7,7 C 1,0 C 67,6 km/h (8 Bft) 91,67 %
29.10.2017 07:59 12,3 C 9,4 C 74 % 997,6 hPa 0,0 l/m 35,9 km/h (5 Bft) SW 235 0 min 0,000 mm 0,0 UV-I 31 W/m 7,8 C 2,9 C 53,1 km/h (7 Bft) 97,37 %
29.10.2017 08:00 12,3 C 9,4 C 74 % 997,5 hPa 0,0 l/m 33,9 km/h (5 Bft) SW 225 0 min 0,101 mm 0,0 UV-I 33 W/m 7,8 C 3,2 C 46,7 km/h (6 Bft) 91,67 %
29.10.2017 08:01 12,3 C 9,4 C 73 % 997,5 hPa 0,0 l/m 49,6 km/h (6 Bft) W 259 0 min 0,000 mm 0,0 UV-I 30 W/m 7,6 C 1,3 C 64,4 km/h (8 Bft) 88,46 %
29.10.2017 08:02 12,3 C 9,4 C 73 % 997,5 hPa 0,0 l/m 46,4 km/h (6 Bft) W 267 0 min 0,000 mm 0,0 UV-I 30 W/m 7,6 C 1,6 C 57,9 km/h (7 Bft) 100,00 %
29.10.2017 08:03 12,3 C 9,4 C 73 % 997,6 hPa 0,0 l/m 39,4 km/h (6 Bft) W-SW 257 0 min 0,000 mm 0,0 UV-I 30 W/m 7,6 C 2,4 C 56,3 km/h (7 Bft) 92,31 %
29.10.2017 08:04 12,4 C 9,4 C 74 % 997,6 hPa 0,0 l/m 39,7 km/h (6 Bft) W-SW 240 0 min 0,000 mm 0,0 UV-I 32 W/m 7,9 C 2,5 C 57,9 km/h (7 Bft) 100,00 %
29.10.2017 08:05 12,4 C 9,4 C 73 % 997,5 hPa 0,0 l/m 44,4 km/h (6 Bft) W 265 0 min 0,000 mm 0,0 UV-I 33 W/m 7,7 C 1,9 C 57,9 km/h (7 Bft) 91,67 %
29.10.2017 08:06 12,4 C 9,4 C 73 % 997,4 hPa 0,0 l/m 44,1 km/h (6 Bft) SW 225 0 min 0,000 mm 0,0 UV-I 33 W/m 7,7 C 2,0 C 62,8 km/h (8 Bft) 96,88 %
29.10.2017 08:07 12,4 C 9,4 C 74 % 997,4 hPa 0,0 l/m 39,7 km/h (6 Bft) W-SW 257 0 min 0,000 mm 0,0 UV-I 32 W/m 7,9 C 2,5 C 56,3 km/h (7 Bft) 92,59 %
29.10.2017 08:08 12,4 C 9,4 C 74 % 997,7 hPa 0,0 l/m 43,5 km/h (6 Bft) W-SW 256 0 min 0,000 mm 0,0 UV-I 34 W/m 7,9 C 2,0 C 57,9 km/h (7 Bft) 100,00 %
29.10.2017 08:09 12,4 C 9,4 C 75 % 997,5 hPa 0,0 l/m 46,3 km/h (6 Bft) W-SW 253 0 min 0,000 mm 0,0 UV-I 35 W/m 8,1 C 1,7 C 66,0 km/h (8 Bft) 93,33 %
29.10.2017 08:10 12,3 C 9,4 C 75 % 997,2 hPa 0,0 l/m 39,3 km/h (6 Bft) W-SW 244 0 min 0,000 mm 0,0 UV-I 33 W/m 8,0 C 2,4 C 49,9 km/h (6 Bft) 96,55 %
29.10.2017 08:11 12,3 C 9,4 C 75 % 997,6 hPa 0,0 l/m 46,2 km/h (6 Bft) W-SW 250 0 min 0,000 mm 0,0 UV-I 36 W/m 8,0 C 1,6 C 78,9 km/h (9 Bft) 100,00 %
29.10.2017 08:12 12,3 C 9,4 C 75 % 997,6 hPa 0,0 l/m 32,9 km/h (5 Bft) W-SW 253 0 min 0,000 mm 0,0 UV-I 38 W/m 8,0 C 3,4 C 51,5 km/h (7 Bft) 100,00 %
29.10.2017 08:13 12,3 C 9,4 C 75 % 997,6 hPa 0,0 l/m 43,2 km/h (6 Bft) W 265 0 min 0,000 mm 0,0 UV-I 36 W/m 8,0 C 1,9 C 62,8 km/h (8 Bft) 95,83 %
29.10.2017 08:14 12,3 C 9,4 C 75 % 997,6 hPa 0,0 l/m 44,1 km/h (6 Bft) W-SW 258 0 min 0,000 mm 0,0 UV-I 36 W/m 8,0 C 1,8 C 70,8 km/h (8 Bft) 100,00 %
29.10.2017 08:15 12,2 C 9,4 C 75 % 997,3 hPa 0,0 l/m 40,5 km/h (6 Bft) W 259 0 min 0,000 mm 0,0 UV-I 39 W/m 7,9 C 2,1 C 64,4 km/h (8 Bft) 91,67 %
29.10.2017 08:16 12,2 C 9,4 C 75 % 997,4 hPa 0,0 l/m 38,0 km/h (5 Bft) W 259 0 min 0,000 mm 0,0 UV-I 39 W/m 7,9 C 2,4 C 70,8 km/h (8 Bft) 95,65 %
29.10.2017 08:17 12,2 C 9,4 C 75 % 997,2 hPa 0,0 l/m 49,8 km/h (6 Bft) W 271 0 min 0,000 mm 0,0 UV-I 39 W/m 7,9 C 1,1 C 77,2 km/h (9 Bft) 100,00 %
29.10.2017 08:18 12,2 C 9,4 C 75 % 997,1 hPa 0,0 l/m 45,5 km/h (6 Bft) W 271 0 min 0,000 mm 0,0 UV-I 36 W/m 7,9 C 1,5 C 59,5 km/h (7 Bft) 96,55 %
29.10.2017 08:19 12,2 C 9,4 C 75 % 997,4 hPa 0,0 l/m 37,8 km/h (5 Bft) W-NW 303 0 min 0,000 mm 0,0 UV-I 34 W/m 7,9 C 2,5 C 53,1 km/h (7 Bft) 100,00 %
29.10.2017 08:20 12,3 C 9,4 C 75 % 997,6 hPa 0,0 l/m 49,0 km/h (6 Bft) W-SW 253 0 min 0,000 mm 0,0 UV-I 36 W/m 8,0 C 1,3 C 66,0 km/h (8 Bft) 96,55 %
29.10.2017 08:21 12,3 C 9,4 C 74 % 997,3 hPa 0,0 l/m 47,5 km/h (6 Bft) W 261 0 min 0,000 mm 0,0 UV-I 37 W/m 7,8 C 1,5 C 66,0 km/h (8 Bft) 100,00 %
29.10.2017 08:22 12,3 C 9,4 C 74 % 997,3 hPa 0,0 l/m 50,7 km/h (7 Bft) W-SW 254 0 min 0,000 mm 0,0 UV-I 35 W/m 7,8 C 1,2 C 62,8 km/h (8 Bft) 95,65 %
29.10.2017 08:23 12,3 C 9,4 C 74 % 997,4 hPa 0,0 l/m 34,6 km/h (5 Bft) W-SW 255 0 min 0,000 mm 0,0 UV-I 37 W/m 7,8 C 3,1 C 56,3 km/h (7 Bft) 96,30 %
29.10.2017 08:24 12,4 C 9,4 C 74 % 997,4 hPa 0,0 l/m 40,2 km/h (6 Bft) W-SW 248 0 min 0,000 mm 0,0 UV-I 39 W/m 7,9 C 2,4 C 53,1 km/h (7 Bft) 100,00 %
29.10.2017 08:25 12,4 C 9,4 C 74 % 997,2 hPa 0,0 l/m 41,0 km/h (6 Bft) W 277 0 min 0,000 mm 0,0 UV-I 38 W/m 7,9 C 2,3 C 56,3 km/h (7 Bft) 93,10 %
29.10.2017 08:26 12,4 C 9,4 C 74 % 997,4 hPa 0,0 l/m 42,0 km/h (6 Bft) W-SW 242 0 min 0,000 mm 0,0 UV-I 39 W/m 7,9 C 2,2 C 61,2 km/h (7 Bft) 100,00 %
29.10.2017 08:27 12,4 C 9,4 C 73 % 997,1 hPa 0,0 l/m 35,4 km/h (5 Bft) W 261 0 min 0,000 mm 0,0 UV-I 39 W/m 7,7 C 3,1 C 66,0 km/h (8 Bft) 95,65 %
29.10.2017 08:28 12,5 C 9,4 C 74 % 997,3 hPa 0,0 l/m 34,7 km/h (5 Bft) W-SW 253 0 min 0,000 mm 0,0 UV-I 39 W/m 8,0 C 3,4 C 45,1 km/h (6 Bft) 100,00 %
29.10.2017 08:29 12,5 C 9,4 C 74 % 997,2 hPa 0,0 l/m 43,0 km/h (6 Bft) W 261 0 min 0,000 mm 0,0 UV-I 40 W/m 8,0 C 2,2 C 74,0 km/h (8 Bft) 89,66 %
29.10.2017 08:30 12,5 C 9,4 C 73 % 997,2 hPa 0,0 l/m 40,9 km/h (6 Bft) W-SW 252 0 min 0,000 mm 0,0 UV-I 39 W/m 7,8 C 2,5 C 56,3 km/h (7 Bft) 100,00 %
29.10.2017 08:31 12,6 C 9,4 C 73 % 997,3 hPa 0,0 l/m 40,4 km/h (6 Bft) W 272 0 min 0,000 mm 0,0 UV-I 41 W/m 7,9 C 2,7 C 56,3 km/h (7 Bft) 96,15 %
29.10.2017 08:32 12,6 C 9,4 C 73 % 997,2 hPa 0,0 l/m 41,3 km/h (6 Bft) SW 225 0 min 0,000 mm 0,0 UV-I 46 W/m 7,9 C 2,6 C 53,1 km/h (7 Bft) 100,00 %
29.10.2017 08:33 12,6 C 9,4 C 73 % 997,4 hPa 0,0 l/m 36,2 km/h (5 Bft) W 265 0 min 0,000 mm 0,0 UV-I 54 W/m 7,9 C 3,3 C 46,7 km/h (6 Bft) 96,88 %
29.10.2017 08:34 12,6 C 9,4 C 73 % 997,1 hPa 0,0 l/m 41,6 km/h (6 Bft) SW 230 0 min 0,000 mm 0,0 UV-I 58 W/m 7,9 C 2,5 C 61,2 km/h (7 Bft) 100,00 %
29.10.2017 08:35 12,6 C 9,4 C 73 % 997,4 hPa 0,0 l/m 37,4 km/h (5 Bft) SW 228 0 min 0,000 mm 0,0 UV-I 57 W/m 7,9 C 3,1 C 54,7 km/h (7 Bft) 96,15 %
29.10.2017 08:36 12,7 C 9,4 C 72 % 997,3 hPa 0,0 l/m 46,0 km/h (6 Bft) W-SW 255 0 min 0,000 mm 0,0 UV-I 56 W/m 7,8 C 2,2 C 69,2 km/h (8 Bft) 96,67 %
29.10.2017 08:37 12,7 C 9,4 C 72 % 997,4 hPa 0,0 l/m 43,6 km/h (6 Bft) W-NW 288 0 min 0,000 mm 0,0 UV-I 61 W/m 7,8 C 2,5 C 66,0 km/h (8 Bft) 100,00 %
29.10.2017 08:38 12,7 C 9,4 C 72 % 997,1 hPa 0,0 l/m 48,7 km/h (6 Bft) W 265 0 min 0,000 mm 0,0 UV-I 63 W/m 7,8 C 1,9 C 69,2 km/h (8 Bft) 92,86 %
29.10.2017 08:39 12,8 C 9,4 C 72 % 997,3 hPa 0,0 l/m 43,7 km/h (6 Bft) W 270 0 min 0,000 mm 0,0 UV-I 65 W/m 7,9 C 2,6 C 61,2 km/h (7 Bft) 100,00 %
29.10.2017 08:40 12,8 C 9,4 C 72 % 997,3 hPa 0,0 l/m 36,9 km/h (5 Bft) W-SW 242 0 min 0,000 mm 0,0 UV-I 62 W/m 7,9 C 3,5 C 70,8 km/h (8 Bft) 97,87 %
29.10.2017 08:41 12,8 C 9,4 C 72 % 997,4 hPa 0,0 l/m 42,0 km/h (6 Bft) W 279 0 min 0,000 mm 0,0 UV-I 62 W/m 7,9 C 2,8 C 57,9 km/h (7 Bft) 97,78 %
29.10.2017 08:42 12,8 C 9,4 C 72 % 997,3 hPa 0,0 l/m 31,4 km/h (5 Bft) W-SW 246 0 min 0,000 mm 0,0 UV-I 65 W/m 7,9 C 4,3 C 57,9 km/h (7 Bft) 95,65 %
29.10.2017 08:43 12,8 C 9,4 C 72 % 997,1 hPa 0,0 l/m 37,1 km/h (5 Bft) W-SW 251 0 min 0,000 mm 0,0 UV-I 74 W/m 7,9 C 3,4 C 53,1 km/h (7 Bft) 100,00 %
29.10.2017 08:44 12,8 C 9,4 C 72 % 997,5 hPa 0,0 l/m 46,7 km/h (6 Bft) SW 229 0 min 0,000 mm 0,0 UV-I 72 W/m 7,9 C 2,3 C 67,6 km/h (8 Bft) 95,00 %
29.10.2017 08:45 12,9 C 9,4 C 71 % 997,4 hPa 0,0 l/m 51,3 km/h (7 Bft) W-SW 240 0 min 0,000 mm 0,0 UV-I 76 W/m 7,8 C 2,0 C 67,6 km/h (8 Bft) 100,00 %
29.10.2017 08:46 12,9 C 9,4 C 71 % 997,2 hPa 0,0 l/m 48,5 km/h (6 Bft) W-SW 257 0 min 0,000 mm 0,0 UV-I 83 W/m 7,8 C 2,3 C 74,0 km/h (8 Bft) 88,46 %
29.10.2017 08:47 12,9 C 9,4 C 71 % 997,4 hPa 0,0 l/m 43,9 km/h (6 Bft) W 279 0 min 0,000 mm 0,0 UV-I 93 W/m 7,8 C 2,7 C 66,0 km/h (8 Bft) 97,83 %
29.10.2017 08:48 13,0 C 9,4 C 71 % 997,4 hPa 0,0 l/m 43,8 km/h (6 Bft) W 273 0 min 0,000 mm 0,0 UV-I 91 W/m 7,9 C 2,9 C 61,2 km/h (7 Bft) 97,87 %
29.10.2017 08:49 13,0 C 9,4 C 71 % 997,1 hPa 0,0 l/m 41,5 km/h (6 Bft) W-SW 248 0 min 0,000 mm 0,0 UV-I 91 W/m 7,9 C 3,2 C 64,4 km/h (8 Bft) 100,00 %
29.10.2017 08:50 13,0 C 9,4 C 71 % 997,1 hPa 0,0 l/m 48,3 km/h (6 Bft) W-SW 255 0 min 0,000 mm 0,0 UV-I 88 W/m 7,9 C 2,4 C 67,6 km/h (8 Bft) 100,00 %
29.10.2017 08:51 13,1 C 9,4 C 71 % 997,0 hPa 0,0 l/m 58,4 km/h (7 Bft) W 269 0 min 0,000 mm 0,0 UV-I 75 W/m 8,0 C 1,8 C 75,6 km/h (9 Bft) 100,00 %
29.10.2017 08:52 13,1 C 9,4 C 71 % 997,1 hPa 0,0 l/m 42,3 km/h (6 Bft) W-SW 254 0 min 0,000 mm 0,0 UV-I 55 W/m 8,0 C 3,2 C 61,2 km/h (7 Bft) 100,00 %
29.10.2017 08:53 13,1 C 9,4 C 71 % 997,4 hPa 0,0 l/m 46,8 km/h (6 Bft) W-SW 241 0 min 0,000 mm 0,0 UV-I 52 W/m 8,0 C 2,7 C 70,8 km/h (8 Bft) 100,00 %
29.10.2017 08:54 13,1 C 9,4 C 71 % 997,5 hPa 0,0 l/m 35,9 km/h (5 Bft) O-NO 57 0 min 0,000 mm 0,0 UV-I 70 W/m 8,0 C 4,0 C 49,9 km/h (6 Bft) 100,00 %
29.10.2017 08:55 13,1 C 9,4 C 71 % 997,5 hPa 0,0 l/m 47,9 km/h (6 Bft) S 189 0 min 0,000 mm 0,0 UV-I 97 W/m 8,0 C 2,6 C 72,4 km/h (8 Bft) 100,00 %
29.10.2017 08:56 13,1 C 9,4 C 71 % 997,1 hPa 0,0 l/m 50,6 km/h (7 Bft) W 270 0 min 0,000 mm 0,0 UV-I 98 W/m 8,0 C 2,4 C 74,0 km/h (8 Bft) 100,00 %
29.10.2017 08:57 13,1 C 9,4 C 71 % 997,3 hPa 0,0 l/m 46,8 km/h (6 Bft) SW 230 0 min 0,000 mm 0,0 UV-I 84 W/m 8,0 C 2,7 C 62,8 km/h (8 Bft) 100,00 %
29.10.2017 08:58 13,1 C 9,4 C 71 % 997,3 hPa 0,0 l/m 42,4 km/h (6 Bft) W-SW 249 0 min 0,000 mm 0,0 UV-I 71 W/m 8,0 C 3,2 C 56,3 km/h (7 Bft) 100,00 %
29.10.2017 08:59 13,1 C 9,4 C 71 % 997,3 hPa 0,0 l/m 43,7 km/h (6 Bft) W 272 0 min 0,000 mm 0,0 UV-I 70 W/m 8,0 C 3,1 C 61,2 km/h (7 Bft) 100,00 %
29.10.2017 09:00 13,1 C 9,4 C 71 % 997,2 hPa 0,0 l/m 45,8 km/h (6 Bft) W 262 0 min 0,000 mm 0,0 UV-I 71 W/m 8,0 C 2,8 C 64,4 km/h (8 Bft) 100,00 %
29.10.2017 09:01 13,1 C 9,4 C 72 % 997,3 hPa 0,0 l/m 32,8 km/h (5 Bft) W-SW 258 0 min 0,153 mm 0,0 UV-I 62 W/m 8,2 C 4,5 C 48,3 km/h (6 Bft) 100,00 %
29.10.2017 09:03 13,0 C 9,4 C 72 % 997,5 hPa 0,0 l/m 37,7 km/h (5 Bft) W 263 0 min 0,000 mm 0,0 UV-I 50 W/m 8,1 C 3,6 C 53,1 km/h (7 Bft) 100,00 %
29.10.2017 09:04 13,0 C 9,4 C 72 % 997,5 hPa 0,0 l/m 35,6 km/h (5 Bft) W 263 0 min 0,000 mm 0,0 UV-I 62 W/m 8,1 C 3,9 C 51,5 km/h (7 Bft) 100,00 %
29.10.2017 09:05 12,9 C 9,4 C 72 % 997,5 hPa 0,0 l/m 40,7 km/h (6 Bft) W-SW 239 0 min 0,000 mm 0,0 UV-I 66 W/m 8,0 C 3,1 C 56,3 km/h (7 Bft) 100,00 %
29.10.2017 09:06 12,9 C 9,4 C 72 % 997,5 hPa 0,0 l/m 41,2 km/h (6 Bft) W-SW 251 0 min 0,000 mm 0,0 UV-I 66 W/m 8,0 C 3,0 C 57,9 km/h (7 Bft) 100,00 %
29.10.2017 09:07 12,9 C 9,4 C 72 % 997,3 hPa 0,0 l/m 39,5 km/h (6 Bft) W 266 0 min 0,000 mm 0,0 UV-I 56 W/m 8,0 C 3,3 C 53,1 km/h (7 Bft) 100,00 %
29.10.2017 09:08 12,9 C 9,4 C 72 % 997,3 hPa 0,0 l/m 38,8 km/h (5 Bft) W 274 0 min 0,000 mm 0,0 UV-I 45 W/m 8,0 C 3,3 C 61,2 km/h (7 Bft) 100,00 %
29.10.2017 09:09 12,9 C 9,4 C 72 % 997,4 hPa 0,0 l/m 47,6 km/h (6 Bft) SW 219 0 min 0,000 mm 0,0 UV-I 48 W/m 8,0 C 2,4 C 69,2 km/h (8 Bft) 100,00 %
29.10.2017 09:10 12,9 C 9,4 C 72 % 997,3 hPa 0,0 l/m 50,8 km/h (7 Bft) W-NW 296 0 min 0,000 mm 0,0 UV-I 54 W/m 8,0 C 2,1 C 67,6 km/h (8 Bft) 100,00 %
29.10.2017 09:11 12,9 C 9,4 C 72 % 997,5 hPa 0,0 l/m 36,1 km/h (5 Bft) W-SW 243 0 min 0,000 mm 0,0 UV-I 66 W/m 8,0 C 3,7 C 51,5 km/h (7 Bft) 100,00 %
29.10.2017 09:12 12,9 C 9,4 C 72 % 997,3 hPa 0,0 l/m 32,4 km/h (5 Bft) SW 231 0 min 0,000 mm 0,0 UV-I 88 W/m 8,0 C 4,3 C 51,5 km/h (7 Bft) 100,00 %
29.10.2017 09:13 13,0 C 9,4 C 71 % 997,3 hPa 0,0 l/m 49,5 km/h (6 Bft) SW 227 0 min 0,000 mm 0,0 UV-I 97 W/m 7,9 C 2,3 C 66,0 km/h (8 Bft) 100,00 %
29.10.2017 09:14 13,0 C 9,4 C 72 % 997,3 hPa 0,0 l/m 39,5 km/h (6 Bft) W 273 0 min 0,000 mm 0,0 UV-I 95 W/m 8,1 C 3,4 C 51,5 km/h (7 Bft) 95,83 %
29.10.2017 09:15 13,0 C 9,4 C 72 % 997,3 hPa 0,0 l/m 30,8 km/h (5 Bft) W-NW 291 0 min 0,000 mm 0,0 UV-I 75 W/m 8,1 C 4,7 C 62,8 km/h (8 Bft) 96,15 %
29.10.2017 09:16 13,0 C 9,4 C 72 % 997,4 hPa 0,0 l/m 39,9 km/h (6 Bft) W 260 0 min 0,000 mm 0,0 UV-I 47 W/m 8,1 C 3,4 C 53,1 km/h (7 Bft) 100,00 %
29.10.2017 09:17 13,0 C 9,4 C 72 % 997,1 hPa 0,0 l/m 38,4 km/h (5 Bft) W-SW 257 0 min 0,000 mm 0,0 UV-I 38 W/m 8,1 C 3,6 C 53,1 km/h (7 Bft) 100,00 %
29.10.2017 09:18 13,0 C 9,4 C 72 % 997,6 hPa 0,0 l/m 44,4 km/h (6 Bft) W 275 0 min 0,000 mm 0,0 UV-I 43 W/m 8,1 C 2,8 C 64,4 km/h (8 Bft) 96,30 %
29.10.2017 09:19 13,0 C 9,4 C 71 % 997,4 hPa 0,0 l/m 54,3 km/h (7 Bft) W-SW 257 0 min 0,000 mm 0,0 UV-I 70 W/m 7,9 C 2,0 C 82,1 km/h (9 Bft) 100,00 %
29.10.2017 09:20 13,0 C 9,4 C 72 % 997,6 hPa 0,0 l/m 52,5 km/h (7 Bft) W-SW 244 0 min 0,000 mm 0,0 UV-I 97 W/m 8,1 C 2,1 C 74,0 km/h (8 Bft) 100,00 %
29.10.2017 09:21 13,1 C 9,4 C 71 % 997,7 hPa 0,0 l/m 40,3 km/h (6 Bft) W 273 0 min 0,000 mm 0,0 UV-I 86 W/m 8,0 C 3,5 C 62,8 km/h (8 Bft) 100,00 %
29.10.2017 09:22 13,1 C 9,4 C 71 % 997,7 hPa 0,0 l/m 52,9 km/h (7 Bft) SW 223 0 min 0,000 mm 0,0 UV-I 65 W/m 8,0 C 2,2 C 70,8 km/h (8 Bft) 100,00 %
29.10.2017 09:23 13,1 C 9,4 C 71 % 997,7 hPa 0,0 l/m 45,4 km/h (6 Bft) W-SW 242 0 min 0,000 mm 0,0 UV-I 52 W/m 8,0 C 2,9 C 75,6 km/h (9 Bft) 91,67 %
29.10.2017 09:24 13,1 C 9,4 C 72 % 997,5 hPa 0,0 l/m 35,2 km/h (5 Bft) W 271 0 min 0,000 mm 0,0 UV-I 45 W/m 8,2 C 4,2 C 56,3 km/h (7 Bft) 100,00 %
29.10.2017 09:25 13,1 C 9,4 C 72 % 997,5 hPa 0,0 l/m 39,4 km/h (6 Bft) W 275 0 min 0,000 mm 0,0 UV-I 42 W/m 8,2 C 3,6 C 69,2 km/h (8 Bft) 95,83 %
29.10.2017 09:26 13,1 C 9,4 C 71 % 997,6 hPa 0,0 l/m 50,6 km/h (7 Bft) W 268 0 min 0,000 mm 0,0 UV-I 50 W/m 8,0 C 2,4 C 66,0 km/h (8 Bft) 100,00 %
29.10.2017 09:27 13,1 C 9,4 C 71 % 997,6 hPa 0,0 l/m 49,7 km/h (6 Bft) W 279 0 min 0,000 mm 0,1 UV-I 78 W/m 8,0 C 2,5 C 62,8 km/h (8 Bft) 100,00 %
29.10.2017 09:28 13,1 C 9,4 C 71 % 997,6 hPa 0,0 l/m 49,2 km/h (6 Bft) W-SW 255 0 min 0,000 mm 0,5 UV-I 112 W/m 8,0 C 2,5 C 77,2 km/h (9 Bft) 100,00 %
29.10.2017 09:29 13,2 C 9,4 C 71 % 997,9 hPa 0,0 l/m 33,8 km/h (5 Bft) W-SW 257 0 min 0,000 mm 0,5 UV-I 126 W/m 8,1 C 4,5 C 46,7 km/h (6 Bft) 100,00 %
29.10.2017 09:30 13,1 C 9,4 C 72 % 997,8 hPa 0,0 l/m 32,8 km/h (5 Bft) W 266 0 min 0,000 mm 0,2 UV-I 121 W/m 8,2 C 4,5 C 45,1 km/h (6 Bft) 100,00 %
29.10.2017 09:31 13,1 C 9,4 C 72 % 997,5 hPa 0,0 l/m 40,2 km/h (6 Bft) W-SW 248 0 min 0,000 mm 0,0 UV-I 96 W/m 8,2 C 3,5 C 53,1 km/h (7 Bft) 100,00 %
29.10.2017 09:32 13,1 C 9,4 C 71 % 997,5 hPa 0,0 l/m 61,3 km/h (7 Bft) W-SW 252 0 min 0,000 mm 0,0 UV-I 68 W/m 8,0 C 1,7 C 91,7 km/h (10 Bft) 100,00 %
29.10.2017 09:33 13,2 C 9,4 C 71 % 997,5 hPa 0,0 l/m 67,4 km/h (8 Bft) W-SW 257 0 min 0,000 mm 0,0 UV-I 54 W/m 8,1 C 1,5 C 94,9 km/h (10 Bft) 100,00 %
29.10.2017 09:34 13,2 C 9,4 C 71 % 997,5 hPa 0,0 l/m 49,0 km/h (6 Bft) SW 226 0 min 0,000 mm 0,0 UV-I 43 W/m 8,1 C 2,7 C 85,3 km/h (9 Bft) 100,00 %
29.10.2017 09:35 13,2 C 9,4 C 71 % 997,5 hPa 0,0 l/m 36,1 km/h (5 Bft) W-SW 248 0 min 0,000 mm 0,0 UV-I 48 W/m 8,1 C 4,2 C 51,5 km/h (7 Bft) 100,00 %
29.10.2017 09:36 13,2 C 9,4 C 71 % 997,7 hPa 0,0 l/m 36,5 km/h (5 Bft) W 272 0 min 0,000 mm 0,0 UV-I 46 W/m 8,1 C 4,1 C 69,2 km/h (8 Bft) 100,00 %
29.10.2017 09:37 13,2 C 9,4 C 71 % 997,5 hPa 0,0 l/m 52,0 km/h (7 Bft) W-SW 254 0 min 0,000 mm 0,0 UV-I 50 W/m 8,1 C 2,4 C 86,9 km/h (9 Bft) 100,00 %
29.10.2017 09:38 13,2 C 9,4 C 71 % 998,0 hPa 0,0 l/m 67,3 km/h (8 Bft) W-SW 246 0 min 0,000 mm 0,0 UV-I 54 W/m 8,1 C 1,6 C 93,3 km/h (10 Bft) 100,00 %
29.10.2017 09:39 13,2 C 9,4 C 71 % 997,8 hPa 0,0 l/m 63,6 km/h (8 Bft) W-SW 258 0 min 0,000 mm 0,0 UV-I 53 W/m 8,1 C 1,7 C 80,5 km/h (9 Bft) 100,00 %
29.10.2017 09:40 13,2 C 9,4 C 72 % 997,4 hPa 0,0 l/m 42,5 km/h (6 Bft) W-SW 240 0 min 0,000 mm 0,0 UV-I 45 W/m 8,3 C 3,3 C 72,4 km/h (8 Bft) 96,15 %
29.10.2017 09:41 13,1 C 9,4 C 73 % 997,6 hPa 0,0 l/m 36,3 km/h (5 Bft) W 264 0 min 0,000 mm 0,0 UV-I 31 W/m 8,4 C 4,0 C 62,8 km/h (8 Bft) 100,00 %
29.10.2017 09:42 13,1 C 9,4 C 73 % 997,8 hPa 0,0 l/m 46,8 km/h (6 Bft) W 277 0 min 0,000 mm 0,0 UV-I 25 W/m 8,4 C 2,7 C 83,7 km/h (9 Bft) 91,30 %
29.10.2017 09:43 13,0 C 9,4 C 73 % 997,8 hPa 0,0 l/m 32,9 km/h (5 Bft) W 278 0 min 0,000 mm 0,0 UV-I 31 W/m 8,3 C 4,4 C 53,1 km/h (7 Bft) 100,00 %
29.10.2017 09:44 12,9 C 9,4 C 73 % 997,8 hPa 0,0 l/m 40,7 km/h (6 Bft) W 260 0 min 0,000 mm 0,0 UV-I 40 W/m 8,2 C 3,1 C 67,6 km/h (8 Bft) 95,24 %
29.10.2017 09:45 12,9 C 9,4 C 73 % 997,5 hPa 0,0 l/m 50,2 km/h (7 Bft) W-SW 256 0 min 0,000 mm 0,0 UV-I 57 W/m 8,2 C 2,1 C 74,0 km/h (8 Bft) 100,00 %
29.10.2017 09:46 12,9 C 9,4 C 73 % 997,5 hPa 0,0 l/m 55,4 km/h (7 Bft) W 262 0 min 0,000 mm 0,0 UV-I 75 W/m 8,2 C 1,7 C 78,9 km/h (9 Bft) 96,30 %
29.10.2017 09:47 12,9 C 9,4 C 73 % 997,5 hPa 0,0 l/m 57,4 km/h (7 Bft) W-NW 283 0 min 0,000 mm 0,0 UV-I 88 W/m 8,2 C 1,6 C 83,7 km/h (9 Bft) 98,07 %
29.10.2017 09:48 12,9 C 9,4 C 73 % 998,0 hPa 0,0 l/m 39,8 km/h (6 Bft) S-SW 213 0 min 0,000 mm 0,0 UV-I 87 W/m 8,2 C 3,2 C 49,9 km/h (6 Bft) 96,00 %
29.10.2017 09:49 12,9 C 9,4 C 73 % 997,6 hPa 0,0 l/m 37,3 km/h (5 Bft) W-SW 253 0 min 0,000 mm 0,0 UV-I 70 W/m 8,2 C 3,6 C 53,1 km/h (7 Bft) 94,12 %
29.10.2017 09:50 12,9 C 9,4 C 73 % 997,9 hPa 0,0 l/m 46,2 km/h (6 Bft) W-SW 252 0 min 0,000 mm 0,0 UV-I 75 W/m 8,2 C 2,5 C 80,5 km/h (9 Bft) 100,00 %
29.10.2017 09:51 12,9 C 9,4 C 73 % 997,4 hPa 0,0 l/m 57,8 km/h (7 Bft) W-SW 246 0 min 0,000 mm 0,0 UV-I 79 W/m 8,2 C 1,6 C 80,5 km/h (9 Bft) 94,12 %
29.10.2017 09:52 12,9 C 9,4 C 72 % 997,5 hPa 0,0 l/m 48,4 km/h (6 Bft) W 263 0 min 0,000 mm 0,0 UV-I 72 W/m 8,0 C 2,3 C 80,5 km/h (9 Bft) 100,00 %
29.10.2017 09:53 12,9 C 9,4 C 73 % 997,8 hPa 0,0 l/m 43,5 km/h (6 Bft) NW 315 0 min 0,000 mm 0,0 UV-I 61 W/m 8,2 C 2,8 C 57,9 km/h (7 Bft) 94,12 %
29.10.2017 09:54 12,9 C 9,4 C 73 % 997,9 hPa 0,0 l/m 50,8 km/h (7 Bft) W 272 0 min 0,000 mm 0,0 UV-I 54 W/m 8,2 C 2,1 C 75,6 km/h (9 Bft) 100,00 %
29.10.2017 09:55 12,9 C 9,4 C 73 % 998,2 hPa 0,0 l/m 53,9 km/h (7 Bft) W 263 0 min 0,000 mm 0,0 UV-I 47 W/m 8,2 C 1,8 C 66,0 km/h (8 Bft) 96,55 %
29.10.2017 09:56 12,9 C 9,4 C 73 % 997,9 hPa 0,0 l/m 49,6 km/h (6 Bft) W-SW 240 0 min 0,000 mm 0,5 UV-I 82 W/m 8,2 C 2,2 C 75,6 km/h (9 Bft) 95,83 %
29.10.2017 09:57 12,8 C 9,4 C 73 % 998,1 hPa 0,0 l/m 43,0 km/h (6 Bft) W-SW 247 0 min 0,000 mm 0,5 UV-I 105 W/m 8,1 C 2,7 C 69,2 km/h (8 Bft) 100,00 %
29.10.2017 09:58 12,8 C 9,4 C 73 % 998,0 hPa 0,0 l/m 51,5 km/h (7 Bft) W-SW 247 0 min 0,000 mm 0,7 UV-I 116 W/m 8,1 C 1,9 C 61,2 km/h (7 Bft) 98,05 %
29.10.2017 09:59 12,8 C 9,4 C 73 % 997,8 hPa 0,0 l/m 58,9 km/h (7 Bft) W-SW 255 0 min 0,000 mm 0,7 UV-I 167 W/m 8,1 C 1,3 C 88,5 km/h (10 Bft) 98,00 %
29.10.2017 10:00 12,8 C 9,4 C 73 % 997,5 hPa 0,0 l/m 50,7 km/h (7 Bft) W-SW 254 0 min 0,000 mm 0,6 UV-I 185 W/m 8,1 C 1,9 C 72,4 km/h (8 Bft) 93,33 %
29.10.2017 10:01 12,9 C 9,4 C 73 % 997,5 hPa 0,0 l/m 49,5 km/h (6 Bft) W-SW 258 0 min 0,178 mm 0,1 UV-I 85 W/m 8,2 C 2,2 C 69,2 km/h (8 Bft) 100,00 %
29.10.2017 10:03 12,9 C 9,4 C 73 % 997,8 hPa 0,0 l/m 48,7 km/h (6 Bft) W-SW 257 0 min 0,000 mm 0,0 UV-I 54 W/m 8,2 C 2,3 C 69,2 km/h (8 Bft) 95,45 %
29.10.2017 10:04 12,9 C 9,4 C 73 % 998,0 hPa 0,0 l/m 51,6 km/h (7 Bft) W 260 0 min 0,000 mm 0,0 UV-I 55 W/m 8,2 C 2,0 C 69,2 km/h (8 Bft) 96,15 %
29.10.2017 10:05 12,8 C 9,4 C 73 % 997,6 hPa 0,0 l/m 37,9 km/h (5 Bft) W-NW 300 0 min 0,000 mm 0,0 UV-I 50 W/m 8,1 C 3,3 C 56,3 km/h (7 Bft) 92,59 %
29.10.2017 10:06 12,8 C 9,4 C 73 % 997,9 hPa 0,0 l/m 48,4 km/h (6 Bft) W-SW 242 0 min 0,000 mm 0,0 UV-I 42 W/m 8,1 C 2,1 C 67,6 km/h (8 Bft) 100,00 %
29.10.2017 10:07 12,8 C 9,4 C 73 % 998,0 hPa 0,0 l/m 46,7 km/h (6 Bft) SW 233 0 min 0,000 mm 0,0 UV-I 36 W/m 8,1 C 2,3 C 61,2 km/h (7 Bft) 96,30 %
29.10.2017 10:08 12,8 C 9,4 C 73 % 998,2 hPa 0,0 l/m 51,2 km/h (7 Bft) W-SW 247 0 min 0,000 mm 0,0 UV-I 52 W/m 8,1 C 1,9 C 77,2 km/h (9 Bft) 100,00 %
29.10.2017 10:09 12,8 C 9,4 C 73 % 998,1 hPa 0,0 l/m 45,5 km/h (6 Bft) W-SW 257 0 min 0,000 mm 0,1 UV-I 77 W/m 8,1 C 2,4 C 61,2 km/h (7 Bft) 95,83 %
29.10.2017 10:10 12,8 C 9,4 C 73 % 997,9 hPa 0,0 l/m 40,7 km/h (6 Bft) W-SW 252 0 min 0,000 mm 0,5 UV-I 87 W/m 8,1 C 3,0 C 61,2 km/h (7 Bft) 95,65 %
29.10.2017 10:11 12,8 C 9,4 C 73 % 997,9 hPa 0,0 l/m 31,8 km/h (5 Bft) SW 217 0 min 0,000 mm 0,6 UV-I 103 W/m 8,1 C 4,3 C 43,5 km/h (6 Bft) 96,67 %
29.10.2017 10:12 12,8 C 9,4 C 73 % 997,8 hPa 0,0 l/m 47,5 km/h (6 Bft) W 270 0 min 0,000 mm 0,6 UV-I 114 W/m 8,1 C 2,2 C 66,0 km/h (8 Bft) 100,00 %
29.10.2017 10:13 12,8 C 9,4 C 73 % 997,7 hPa 0,0 l/m 48,6 km/h (6 Bft) W-SW 252 0 min 0,000 mm 0,1 UV-I 94 W/m 8,1 C 2,1 C 72,4 km/h (8 Bft) 93,33 %
29.10.2017 10:14 12,8 C 9,4 C 73 % 997,5 hPa 0,0 l/m 45,3 km/h (6 Bft) W-NW 284 0 min 0,000 mm 0,0 UV-I 59 W/m 8,1 C 2,4 C 70,8 km/h (8 Bft) 95,65 %
29.10.2017 10:15 12,8 C 9,4 C 73 % 997,8 hPa 0,0 l/m 55,2 km/h (7 Bft) W 263 0 min 0,000 mm 0,0 UV-I 64 W/m 8,1 C 1,6 C 78,9 km/h (9 Bft) 100,00 %
29.10.2017 10:16 12,8 C 9,4 C 73 % 997,8 hPa 0,0 l/m 41,4 km/h (6 Bft) SW 225 0 min 0,000 mm 0,0 UV-I 74 W/m 8,1 C 2,9 C 66,0 km/h (8 Bft) 95,65 %
29.10.2017 10:17 12,8 C 9,4 C 73 % 997,7 hPa 0,0 l/m 38,5 km/h (5 Bft) W 270 0 min 0,000 mm 0,3 UV-I 85 W/m 8,1 C 3,2 C 67,6 km/h (8 Bft) 100,00 %
29.10.2017 10:18 12,9 C 9,4 C 72 % 997,8 hPa 0,0 l/m 57,2 km/h (7 Bft) W-SW 257 0 min 0,000 mm 0,6 UV-I 108 W/m 8,0 C 1,6 C 90,1 km/h (10 Bft) 100,00 %
29.10.2017 10:19 12,9 C 9,4 C 72 % 997,8 hPa 0,0 l/m 47,9 km/h (6 Bft) W-SW 258 0 min 0,000 mm 0,1 UV-I 84 W/m 8,0 C 2,3 C 67,6 km/h (8 Bft) 100,00 %
29.10.2017 10:20 12,9 C 9,4 C 72 % 997,9 hPa 0,0 l/m 58,4 km/h (7 Bft) W-SW 251 0 min 0,000 mm 0,0 UV-I 61 W/m 8,0 C 1,5 C 85,3 km/h (9 Bft) 100,00 %
29.10.2017 10:21 13,0 C 9,4 C 71 % 997,5 hPa 0,0 l/m 48,3 km/h (6 Bft) W 259 0 min 0,000 mm 0,0 UV-I 60 W/m 7,9 C 2,4 C 83,7 km/h (9 Bft) 100,00 %
29.10.2017 10:22 13,0 C 9,4 C 71 % 997,7 hPa 0,0 l/m 43,1 km/h (6 Bft) W-SW 257 0 min 0,000 mm 0,0 UV-I 52 W/m 7,9 C 3,0 C 57,9 km/h (7 Bft) 96,30 %
29.10.2017 10:24 13,1 C 9,4 C 71 % 997,7 hPa 0,0 l/m 41,3 km/h (6 Bft) W 263 0 min 0,000 mm 0,5 UV-I 70 W/m 8,0 C 3,3 C 77,2 km/h (9 Bft) 100,00 %
29.10.2017 10:25 13,1 C 9,4 C 72 % 997,6 hPa 0,0 l/m 26,3 km/h (4 Bft) W-SW 245 0 min 0,000 mm 0,6 UV-I 110 W/m 8,2 C 5,7 C 38,6 km/h (5 Bft) 96,15 %
29.10.2017 10:26 13,1 C 9,4 C 72 % 997,6 hPa 0,0 l/m 37,4 km/h (5 Bft) W-SW 257 0 min 0,000 mm 0,6 UV-I 121 W/m 8,2 C 3,8 C 49,9 km/h (6 Bft) 100,00 %
29.10.2017 10:27 13,0 C 9,4 C 72 % 997,6 hPa 0,0 l/m 32,6 km/h (5 Bft) W 261 0 min 0,000 mm 0,7 UV-I 120 W/m 8,1 C 4,4 C 49,9 km/h (6 Bft) 98,01 %
29.10.2017 10:28 13,1 C 9,4 C 72 % 997,5 hPa 0,0 l/m 37,7 km/h (5 Bft) W-SW 244 0 min 0,000 mm 0,7 UV-I 126 W/m 8,2 C 3,8 C 57,9 km/h (7 Bft) 100,00 %
29.10.2017 10:29 13,1 C 9,4 C 71 % 997,5 hPa 0,0 l/m 53,8 km/h (7 Bft) W 265 0 min 0,000 mm 0,7 UV-I 141 W/m 8,0 C 2,1 C 64,4 km/h (8 Bft) 100,00 %
29.10.2017 10:31 13,1 C 9,4 C 71 % 997,5 hPa 0,0 l/m 53,1 km/h (7 Bft) SW 234 0 min 0,000 mm 0,8 UV-I 117 W/m 8,0 C 2,2 C 77,2 km/h (9 Bft) 97,56 %
29.10.2017 10:32 13,1 C 9,4 C 71 % 997,0 hPa 0,0 l/m 61,8 km/h (7 Bft) W 268 0 min 0,000 mm 0,9 UV-I 129 W/m 8,0 C 1,6 C 80,5 km/h (9 Bft) 100,00 %
29.10.2017 10:33 13,1 C 9,4 C 71 % 997,0 hPa 0,0 l/m 46,1 km/h (6 Bft) W-SW 240 0 min 0,000 mm 0,9 UV-I 146 W/m 8,0 C 2,8 C 82,1 km/h (9 Bft) 100,00 %
29.10.2017 10:34 13,1 C 9,4 C 71 % 997,0 hPa 0,0 l/m 52,4 km/h (7 Bft) W 270 0 min 0,000 mm 0,8 UV-I 116 W/m 8,0 C 2,2 C 70,8 km/h (8 Bft) 100,00 %
29.10.2017 10:35 13,1 C 9,4 C 72 % 997,6 hPa 0,0 l/m 37,2 km/h (5 Bft) W-SW 257 0 min 0,000 mm 0,7 UV-I 99 W/m 8,2 C 3,9 C 59,5 km/h (7 Bft) 96,15 %
29.10.2017 10:36 13,1 C 9,4 C 72 % 997,6 hPa 0,0 l/m 43,3 km/h (6 Bft) W-SW 251 0 min 0,000 mm 0,9 UV-I 189 W/m 8,2 C 3,1 C 83,7 km/h (9 Bft) 100,00 %
29.10.2017 10:37 13,1 C 9,4 C 72 % 997,3 hPa 0,0 l/m 56,8 km/h (7 Bft) W-SW 247 0 min 0,000 mm 0,7 UV-I 188 W/m 8,2 C 1,9 C 74,0 km/h (8 Bft) 100,00 %
29.10.2017 10:38 13,1 C 9,4 C 72 % 997,3 hPa 0,0 l/m 49,6 km/h (6 Bft) W 262 0 min 0,000 mm 0,8 UV-I 157 W/m 8,2 C 2,5 C 67,6 km/h (8 Bft) 100,00 %
29.10.2017 10:39 13,1 C 9,4 C 72 % 997,6 hPa 0,0 l/m 49,8 km/h (6 Bft) W 277 0 min 0,000 mm 0,7 UV-I 163 W/m 8,2 C 2,5 C 66,0 km/h (8 Bft) 100,00 %
29.10.2017 10:40 13,1 C 9,4 C 73 % 997,7 hPa 0,0 l/m 36,9 km/h (5 Bft) W-SW 252 0 min 0,000 mm 0,9 UV-I 192 W/m 8,4 C 3,9 C 61,2 km/h (7 Bft) 100,00 %
29.10.2017 10:41 13,0 C 9,4 C 72 % 997,7 hPa 0,0 l/m 56,9 km/h (7 Bft) W-SW 244 1 min 0,000 mm 0,9 UV-I 251 W/m 8,1 C 1,8 C 85,3 km/h (9 Bft) 100,00 %
29.10.2017 10:42 13,0 C 9,4 C 73 % 997,4 hPa 0,0 l/m 55,4 km/h (7 Bft) W-SW 257 0 min 0,000 mm 0,8 UV-I 237 W/m 8,3 C 1,9 C 70,8 km/h (8 Bft) 100,00 %
29.10.2017 10:43 13,0 C 9,4 C 73 % 997,6 hPa 0,0 l/m 43,7 km/h (6 Bft) SW 220 0 min 0,000 mm 0,8 UV-I 216 W/m 8,3 C 2,9 C 78,9 km/h (9 Bft) 100,00 %
29.10.2017 10:44 12,9 C 9,4 C 73 % 997,6 hPa 0,0 l/m 35,8 km/h (5 Bft) W 266 0 min 0,000 mm 0,7 UV-I 163 W/m 8,2 C 3,8 C 54,7 km/h (7 Bft) 100,00 %
29.10.2017 10:45 12,9 C 9,4 C 74 % 997,8 hPa 0,0 l/m 32,2 km/h (5 Bft) W-NW 294 0 min 0,000 mm 0,5 UV-I 102 W/m 8,4 C 4,3 C 41,8 km/h (6 Bft) 96,67 %
29.10.2017 10:46 12,9 C 9,4 C 74 % 997,9 hPa 0,0 l/m 27,6 km/h (4 Bft) NW 318 0 min 0,000 mm 0,5 UV-I 88 W/m 8,4 C 5,2 C 40,2 km/h (6 Bft) 100,00 %
29.10.2017 10:48 12,9 C 9,4 C 74 % 998,0 hPa 0,0 l/m 41,4 km/h (6 Bft) W-SW 246 0 min 0,000 mm 0,6 UV-I 97 W/m 8,4 C 3,0 C 77,2 km/h (9 Bft) 97,73 %
29.10.2017 10:49 12,8 C 9,4 C 74 % 998,0 hPa 0,0 l/m 44,3 km/h (6 Bft) W-SW 238 0 min 0,000 mm 0,7 UV-I 119 W/m 8,3 C 2,5 C 66,0 km/h (8 Bft) 100,00 %
29.10.2017 10:50 12,8 C 9,4 C 74 % 997,8 hPa 0,0 l/m 49,9 km/h (6 Bft) W 262 0 min 0,000 mm 0,9 UV-I 130 W/m 8,3 C 2,0 C 67,6 km/h (8 Bft) 100,00 %
29.10.2017 10:51 12,8 C 9,4 C 74 % 997,8 hPa 0,0 l/m 45,1 km/h (6 Bft) W-SW 248 0 min 0,000 mm 0,8 UV-I 112 W/m 8,3 C 2,5 C 62,8 km/h (8 Bft) 100,00 %
29.10.2017 10:52 12,8 C 9,4 C 74 % 997,6 hPa 0,0 l/m 56,1 km/h (7 Bft) W-SW 238 0 min 0,000 mm 0,7 UV-I 104 W/m 8,3 C 1,5 C 90,1 km/h (10 Bft) 100,00 %
29.10.2017 10:53 12,7 C 9,4 C 74 % 997,9 hPa 0,0 l/m 45,7 km/h (6 Bft) W 272 0 min 0,000 mm 0,6 UV-I 100 W/m 8,2 C 2,2 C 67,6 km/h (8 Bft) 100,00 %
29.10.2017 10:54 12,7 C 9,4 C 74 % 998,0 hPa 0,0 l/m 36,3 km/h (5 Bft) W 279 0 min 0,000 mm 0,6 UV-I 95 W/m 8,2 C 3,4 C 57,9 km/h (7 Bft) 96,55 %
29.10.2017 10:55 12,7 C 9,4 C 75 % 998,0 hPa 0,0 l/m 50,7 km/h (7 Bft) W-SW 254 0 min 0,000 mm 0,6 UV-I 96 W/m 8,4 C 1,8 C 80,5 km/h (9 Bft) 100,00 %
29.10.2017 10:56 12,7 C 9,4 C 74 % 998,2 hPa 0,0 l/m 33,1 km/h (5 Bft) W-SW 246 0 min 0,000 mm 0,6 UV-I 95 W/m 8,2 C 3,9 C 48,3 km/h (6 Bft) 100,00 %
29.10.2017 10:57 12,7 C 9,4 C 74 % 997,9 hPa 0,0 l/m 61,8 km/h (7 Bft) S-SW 213 0 min 0,000 mm 0,6 UV-I 98 W/m 8,2 C 1,0 C 90,1 km/h (10 Bft) 100,00 %
29.10.2017 10:58 12,7 C 9,4 C 74 % 997,9 hPa 0,0 l/m 42,0 km/h (6 Bft) SW 226 0 min 0,000 mm 0,5 UV-I 92 W/m 8,2 C 2,7 C 57,9 km/h (7 Bft) 95,83 %
29.10.2017 10:59 12,7 C 9,4 C 75 % 998,1 hPa 0,0 l/m 41,7 km/h (6 Bft) W 263 0 min 0,000 mm 0,1 UV-I 86 W/m 8,4 C 2,7 C 69,2 km/h (8 Bft) 100,00 %
29.10.2017 11:00 12,6 C 9,4 C 75 % 998,0 hPa 0,0 l/m 35,0 km/h (5 Bft) W-NW 303 0 min 0,177 mm 0,0 UV-I 76 W/m 8,3 C 3,5 C 57,9 km/h (7 Bft) 100,00 %
29.10.2017 11:01 12,6 C 9,4 C 75 % 998,2 hPa 0,0 l/m 43,6 km/h (6 Bft) W-SW 254 0 min 0,000 mm 0,4 UV-I 84 W/m 8,3 C 2,3 C 57,9 km/h (7 Bft) 100,00 %
29.10.2017 11:02 12,6 C 9,4 C 74 % 998,0 hPa 0,0 l/m 44,1 km/h (6 Bft) SW 236 0 min 0,000 mm 0,2 UV-I 103 W/m 8,1 C 2,3 C 70,8 km/h (8 Bft) 100,00 %
29.10.2017 11:03 12,7 C 9,4 C 75 % 998,0 hPa 0,0 l/m 38,6 km/h (5 Bft) W 262 0 min 0,000 mm 0,5 UV-I 127 W/m 8,4 C 3,1 C 61,2 km/h (7 Bft) 92,86 %
29.10.2017 11:04 12,7 C 9,4 C 75 % 998,1 hPa 0,0 l/m 52,2 km/h (7 Bft) W-NW 292 0 min 0,000 mm 0,7 UV-I 159 W/m 8,4 C 1,6 C 74,0 km/h (8 Bft) 95,83 %
29.10.2017 11:05 12,6 C 9,4 C 76 % 998,3 hPa 0,0 l/m 40,9 km/h (6 Bft) W-SW 248 0 min 0,000 mm 0,7 UV-I 137 W/m 8,5 C 2,6 C 56,3 km/h (7 Bft) 100,00 %
29.10.2017 11:06 12,6 C 9,4 C 76 % 998,4 hPa 0,0 l/m 51,4 km/h (7 Bft) W-SW 254 0 min 0,000 mm 0,6 UV-I 115 W/m 8,5 C 1,6 C 70,8 km/h (8 Bft) 100,00 %
29.10.2017 11:07 12,6 C 9,4 C 75 % 998,1 hPa 0,0 l/m 51,6 km/h (7 Bft) W 267 0 min 0,000 mm 0,5 UV-I 110 W/m 8,3 C 1,5 C 94,9 km/h (10 Bft) 100,00 %
29.10.2017 11:08 12,5 C 9,4 C 75 % 998,1 hPa 0,0 l/m 49,6 km/h (6 Bft) W-SW 258 0 min 0,000 mm 0,5 UV-I 111 W/m 8,2 C 1,6 C 70,8 km/h (8 Bft) 100,00 %
29.10.2017 11:09 12,5 C 9,4 C 76 % 998,3 hPa 0,0 l/m 45,3 km/h (6 Bft) W-SW 255 0 min 0,000 mm 0,5 UV-I 115 W/m 8,4 C 2,0 C 59,5 km/h (7 Bft) 100,00 %
29.10.2017 11:10 12,4 C 9,4 C 76 % 998,5 hPa 0,0 l/m 47,3 km/h (6 Bft) W-NW 290 0 min 0,000 mm 0,6 UV-I 127 W/m 8,3 C 1,6 C 66,0 km/h (8 Bft) 100,00 %
29.10.2017 11:11 12,4 C 9,4 C 76 % 998,2 hPa 0,0 l/m 56,0 km/h (7 Bft) W-NW 296 0 min 0,000 mm 0,5 UV-I 117 W/m 8,3 C 0,9 C 75,6 km/h (9 Bft) 91,67 %
29.10.2017 11:12 12,4 C 9,4 C 77 % 998,3 hPa 0,0 l/m 55,9 km/h (7 Bft) W 271 0 min 0,000 mm 0,5 UV-I 124 W/m 8,5 C 0,9 C 72,4 km/h (8 Bft) 100,00 %
29.10.2017 11:13 12,3 C 9,4 C 77 % 998,5 hPa 0,0 l/m 43,6 km/h (6 Bft) W 273 0 min 0,000 mm 0,5 UV-I 138 W/m 8,4 C 1,9 C 70,8 km/h (8 Bft) 100,00 %
29.10.2017 11:14 12,3 C 9,4 C 78 % 998,7 hPa 0,0 l/m 33,6 km/h (5 Bft) W-SW 254 0 min 0,000 mm 0,7 UV-I 180 W/m 8,6 C 3,2 C 67,6 km/h (8 Bft) 100,00 %
29.10.2017 11:15 12,2 C 9,4 C 78 % 998,6 hPa 0,0 l/m 45,8 km/h (6 Bft) W-NW 286 0 min 0,000 mm 0,8 UV-I 220 W/m 8,5 C 1,5 C 77,2 km/h (9 Bft) 100,00 %
29.10.2017 11:16 12,2 C 9,4 C 79 % 998,5 hPa 0,0 l/m 41,5 km/h (6 Bft) NW 306 0 min 0,000 mm 0,7 UV-I 191 W/m 8,7 C 2,0 C 56,3 km/h (7 Bft) 92,86 %
29.10.2017 11:17 12,1 C 9,4 C 79 % 998,7 hPa 0,0 l/m 48,4 km/h (6 Bft) W-NW 291 0 min 0,000 mm 0,5 UV-I 124 W/m 8,6 C 1,1 C 67,6 km/h (8 Bft) 100,00 %
29.10.2017 11:18 12,1 C 9,4 C 78 % 998,8 hPa 0,0 l/m 43,1 km/h (6 Bft) W 267 0 min 0,000 mm 0,0 UV-I 89 W/m 8,4 C 1,6 C 72,4 km/h (8 Bft) 100,00 %
29.10.2017 11:19 12,1 C 9,4 C 78 % 998,7 hPa 0,0 l/m 45,1 km/h (6 Bft) W-SW 258 0 min 0,000 mm 0,0 UV-I 83 W/m 8,4 C 1,4 C 70,8 km/h (8 Bft) 100,00 %
29.10.2017 11:20 12,1 C 9,4 C 79 % 998,8 hPa 0,0 l/m 40,9 km/h (6 Bft) W 263 0 min 0,000 mm 0,0 UV-I 70 W/m 8,6 C 1,9 C 56,3 km/h (7 Bft) 100,00 %
29.10.2017 11:21 12,1 C 9,4 C 79 % 998,6 hPa 0,0 l/m 42,8 km/h (6 Bft) W 275 0 min 0,000 mm 0,0 UV-I 57 W/m 8,6 C 1,7 C 54,7 km/h (7 Bft) 100,00 %
29.10.2017 11:22 12,0 C 9,4 C 79 % 998,6 hPa 0,0 l/m 50,5 km/h (7 Bft) W 259 0 min 0,000 mm 0,0 UV-I 54 W/m 8,5 C 0,7 C 75,6 km/h (9 Bft) 100,00 %
29.10.2017 11:23 11,9 C 9,4 C 80 % 998,9 hPa 0,0 l/m 36,8 km/h (5 Bft) W-NW 285 0 min 0,000 mm 0,0 UV-I 42 W/m 8,6 C 2,2 C 53,1 km/h (7 Bft) 100,00 %
29.10.2017 11:24 11,9 C 9,4 C 80 % 999,2 hPa 0,0 l/m 39,9 km/h (6 Bft) W 259 0 min 0,000 mm 0,0 UV-I 38 W/m 8,6 C 1,7 C 51,5 km/h (7 Bft) 100,00 %
29.10.2017 11:25 11,8 C 9,4 C 81 % 999,0 hPa 0,0 l/m 30,1 km/h (5 Bft) W 276 0 min 0,000 mm 0,0 UV-I 39 W/m 8,6 C 3,2 C 49,9 km/h (6 Bft) 100,00 %
29.10.2017 11:26 11,7 C 9,4 C 82 % 999,2 hPa 0,2 l/m 27,4 km/h (4 Bft) W-SW 244 0 min 0,000 mm 0,0 UV-I 34 W/m 8,7 C 3,6 C 37,0 km/h (5 Bft) 100,00 %
29.10.2017 11:27 11,7 C 9,4 C 83 % 999,1 hPa 0,0 l/m 34,8 km/h (5 Bft) W 269 0 min 0,000 mm 0,0 UV-I 34 W/m 8,9 C 2,2 C 54,7 km/h (7 Bft) 100,00 %
29.10.2017 11:28 11,5 C 9,4 C 83 % 999,2 hPa 0,2 l/m 36,6 km/h (5 Bft) W-NW 287 0 min 0,000 mm 0,0 UV-I 37 W/m 8,7 C 1,6 C 49,9 km/h (6 Bft) 100,00 %
29.10.2017 11:29 11,4 C 9,4 C 84 % 999,4 hPa 0,2 l/m 32,4 km/h (5 Bft) W-SW 258 0 min 0,000 mm 0,0 UV-I 31 W/m 8,8 C 2,2 C 46,7 km/h (6 Bft) 100,00 %
29.10.2017 11:30 11,3 C 9,4 C 84 % 999,7 hPa 0,2 l/m 18,9 km/h (3 Bft) W 263 0 min 0,000 mm 0,0 UV-I 26 W/m 8,7 C 5,3 C 27,4 km/h (4 Bft) 100,00 %
29.10.2017 11:31 11,2 C 9,4 C 85 % 1000,0 hPa 0,0 l/m 10,7 km/h (2 Bft) W 267 0 min 0,000 mm 0,0 UV-I 25 W/m 8,8 C 8,5 C 19,3 km/h (3 Bft) 93,33 %
29.10.2017 11:32 11,1 C 9,4 C 86 % 1000,0 hPa 0,2 l/m 14,9 km/h (3 Bft) NW 317 0 min 0,000 mm 0,0 UV-I 26 W/m 8,8 C 6,5 C 24,1 km/h (4 Bft) 100,00 %
29.10.2017 11:33 11,0 C 9,4 C 86 % 1000,1 hPa 0,2 l/m 12,3 km/h (3 Bft) W-NW 302 0 min 0,000 mm 0,0 UV-I 22 W/m 8,7 C 7,5 C 19,3 km/h (3 Bft) 100,00 %
29.10.2017 11:34 10,9 C 9,4 C 86 % 1000,1 hPa 0,4 l/m 22,5 km/h (4 Bft) N-NW 338 0 min 0,000 mm 0,0 UV-I 17 W/m 8,7 C 3,7 C 32,2 km/h (5 Bft) 100,00 %
29.10.2017 11:35 10,6 C 9,4 C 85 % 1000,2 hPa 0,8 l/m 13,4 km/h (3 Bft) W 264 0 min 0,000 mm 0,0 UV-I 29 W/m 8,2 C 6,5 C 25,7 km/h (4 Bft) 100,00 %
29.10.2017 11:37 10,0 C 9,4 C 85 % 1000,5 hPa 0,2 l/m 23,6 km/h (4 Bft) W 264 0 min 0,000 mm 0,0 UV-I 37 W/m 7,6 C 2,2 C 45,1 km/h (6 Bft) 98,11 %
29.10.2017 11:38 9,8 C 9,4 C 86 % 1000,4 hPa 0,0 l/m 17,3 km/h (3 Bft) W 278 0 min 0,000 mm 0,0 UV-I 41 W/m 7,6 C 4,0 C 37,0 km/h (5 Bft) 100,00 %
29.10.2017 11:39 9,7 C 9,4 C 86 % 1000,4 hPa 0,2 l/m 20,2 km/h (4 Bft) W 263 0 min 0,000 mm 0,0 UV-I 44 W/m 7,5 C 2,8 C 29,0 km/h (5 Bft) 96,15 %
29.10.2017 11:40 9,5 C 9,4 C 87 % 1000,4 hPa 0,0 l/m 19,7 km/h (3 Bft) W 271 0 min 0,000 mm 0,0 UV-I 42 W/m 7,4 C 2,7 C 48,3 km/h (6 Bft) 100,00 %
29.10.2017 11:41 9,3 C 9,4 C 87 % 1000,5 hPa 0,0 l/m 22,0 km/h (4 Bft) W-NW 294 0 min 0,000 mm 0,0 UV-I 42 W/m 7,2 C 1,7 C 27,4 km/h (4 Bft) 94,12 %
29.10.2017 11:42 9,2 C 9,4 C 88 % 1000,3 hPa 0,2 l/m 26,9 km/h (4 Bft) W-NW 292 0 min 0,000 mm 0,0 UV-I 46 W/m 7,3 C 0,3 C 56,3 km/h (7 Bft) 92,59 %
29.10.2017 11:43 9,1 C 9,4 C 88 % 1000,5 hPa 0,2 l/m 15,8 km/h (3 Bft) N-NW 329 0 min 0,000 mm 0,0 UV-I 42 W/m 7,2 C 3,7 C 29,0 km/h (5 Bft) 94,12 %
29.10.2017 11:44 9,0 C 9,4 C 89 % 1000,7 hPa 0,0 l/m 23,0 km/h (4 Bft) W-SW 239 0 min 0,000 mm 0,0 UV-I 41 W/m 7,3 C 1,0 C 37,0 km/h (5 Bft) 92,59 %
29.10.2017 11:45 8,9 C 9,4 C 89 % 1000,3 hPa 0,2 l/m 25,6 km/h (4 Bft) W 274 0 min 0,000 mm 0,0 UV-I 44 W/m 7,2 C 0,2 C 53,1 km/h (7 Bft) 96,15 %
29.10.2017 11:46 8,8 C 9,4 C 89 % 1000,4 hPa 0,0 l/m 19,9 km/h (4 Bft) W 266 0 min 0,000 mm 0,0 UV-I 42 W/m 7,1 C 1,8 C 45,1 km/h (6 Bft) 93,33 %
29.10.2017 11:47 8,7 C 9,4 C 89 % 1000,5 hPa 0,2 l/m 25,3 km/h (4 Bft) W 265 0 min 0,000 mm 0,0 UV-I 39 W/m 7,0 C -0,0 C 41,8 km/h (6 Bft) 100,00 %
29.10.2017 11:48 8,6 C 9,4 C 89 % 1000,6 hPa 0,0 l/m 19,7 km/h (3 Bft) O-SO 120 0 min 0,000 mm 0,0 UV-I 39 W/m 6,9 C 1,6 C 38,6 km/h (5 Bft) 92,31 %
29.10.2017 11:49 8,6 C 9,4 C 89 % 1000,6 hPa 0,2 l/m 25,8 km/h (4 Bft) NW 315 0 min 0,000 mm 0,0 UV-I 40 W/m 6,9 C -0,3 C 46,7 km/h (6 Bft) 96,55 %
29.10.2017 11:50 8,5 C 9,4 C 90 % 1000,7 hPa 0,0 l/m 26,8 km/h (4 Bft) W 278 0 min 0,000 mm 0,0 UV-I 42 W/m 7,0 C -0,7 C 43,5 km/h (6 Bft) 96,30 %
29.10.2017 11:51 8,4 C 9,4 C 90 % 1000,7 hPa 0,2 l/m 24,3 km/h (4 Bft) W-SW 246 0 min 0,000 mm 0,0 UV-I 44 W/m 6,9 C -0,1 C 40,2 km/h (6 Bft) 91,67 %
29.10.2017 11:52 8,4 C 9,4 C 90 % 1000,6 hPa 0,0 l/m 26,4 km/h (4 Bft) W 267 0 min 0,000 mm 0,0 UV-I 48 W/m 6,9 C -0,7 C 33,8 km/h (5 Bft) 96,88 %
29.10.2017 11:53 8,3 C 9,4 C 90 % 1000,8 hPa 0,0 l/m 24,3 km/h (4 Bft) W 277 0 min 0,000 mm 0,0 UV-I 49 W/m 6,8 C -0,3 C 49,9 km/h (6 Bft) 98,12 %
29.10.2017 11:54 8,3 C 9,4 C 90 % 1000,7 hPa 0,2 l/m 25,5 km/h (4 Bft) W-NW 285 0 min 0,000 mm 0,0 UV-I 47 W/m 6,8 C -0,6 C 37,0 km/h (5 Bft) 92,68 %
29.10.2017 11:55 8,3 C 9,4 C 91 % 1000,7 hPa 0,0 l/m 13,8 km/h (3 Bft) SW 219 0 min 0,000 mm 0,0 UV-I 46 W/m 6,9 C 3,6 C 25,7 km/h (4 Bft) 95,83 %
29.10.2017 11:56 8,3 C 9,4 C 91 % 1000,8 hPa 0,2 l/m 28,4 km/h (4 Bft) W-NW 284 0 min 0,000 mm 0,0 UV-I 43 W/m 6,9 C -1,4 C 57,9 km/h (7 Bft) 95,65 %
29.10.2017 11:57 8,3 C 9,4 C 91 % 1000,8 hPa 0,0 l/m 24,1 km/h (4 Bft) W-SW 257 0 min 0,000 mm 0,0 UV-I 46 W/m 6,9 C -0,2 C 45,1 km/h (6 Bft) 96,15 %
29.10.2017 11:58 8,2 C 9,4 C 91 % 1000,8 hPa 0,0 l/m 20,8 km/h (4 Bft) W-SW 254 0 min 0,000 mm 0,0 UV-I 55 W/m 6,8 C 0,7 C 41,8 km/h (6 Bft) 94,12 %
29.10.2017 11:59 8,2 C 9,4 C 92 % 1001,0 hPa 0,0 l/m 22,3 km/h (4 Bft) W 269 0 min 0,000 mm 0,0 UV-I 68 W/m 7,0 C 0,2 C 46,7 km/h (6 Bft) 92,59 %
29.10.2017 12:00 8,2 C 9,4 C 92 % 1000,8 hPa 0,0 l/m 20,2 km/h (4 Bft) N 355 0 min 0,000 mm 0,0 UV-I 88 W/m 7,0 C 0,9 C 43,5 km/h (6 Bft) 96,15 %
29.10.2017 12:01 8,2 C 9,4 C 92 % 1001,0 hPa 0,0 l/m 26,2 km/h (4 Bft) W 273 0 min 0,102 mm 0,0 UV-I 93 W/m 7,0 C -0,9 C 48,3 km/h (6 Bft) 96,67 %
29.10.2017 12:02 8,2 C 9,4 C 92 % 1001,1 hPa 0,0 l/m 18,9 km/h (3 Bft) W-NW 301 0 min 0,000 mm 0,0 UV-I 80 W/m 7,0 C 1,4 C 29,0 km/h (5 Bft) 93,33 %
29.10.2017 12:03 8,2 C 9,4 C 92 % 1001,2 hPa 0,0 l/m 16,9 km/h (3 Bft) W 275 0 min 0,000 mm 0,0 UV-I 66 W/m 7,0 C 2,1 C 33,8 km/h (5 Bft) 96,15 %
29.10.2017 12:04 8,3 C 9,4 C 92 % 1001,2 hPa 0,2 l/m 25,5 km/h (4 Bft) SW 220 0 min 0,000 mm 0,0 UV-I 58 W/m 7,1 C -0,6 C 45,1 km/h (6 Bft) 88,46 %
29.10.2017 12:05 8,2 C 9,4 C 92 % 1001,3 hPa 0,0 l/m 19,2 km/h (3 Bft) W-SW 251 0 min 0,000 mm 0,0 UV-I 55 W/m 7,0 C 1,2 C 25,7 km/h (4 Bft) 92,59 %
29.10.2017 12:07 8,2 C 9,4 C 92 % 1001,5 hPa 0,2 l/m 17,4 km/h (3 Bft) W 269 0 min 0,000 mm 0,0 UV-I 56 W/m 7,0 C 1,9 C 32,2 km/h (5 Bft) 95,12 %
29.10.2017 12:08 8,3 C 9,4 C 92 % 1001,5 hPa 0,0 l/m 18,7 km/h (3 Bft) W-SW 254 0 min 0,000 mm 0,0 UV-I 62 W/m 7,1 C 1,6 C 29,0 km/h (5 Bft) 96,15 %
29.10.2017 12:09 8,3 C 9,4 C 92 % 1001,6 hPa 0,0 l/m 18,6 km/h (3 Bft) W 265 0 min 0,000 mm 0,0 UV-I 59 W/m 7,1 C 1,6 C 27,4 km/h (4 Bft) 95,83 %
29.10.2017 12:10 8,2 C 9,4 C 93 % 1001,7 hPa 0,0 l/m 20,1 km/h (4 Bft) W 279 0 min 0,000 mm 0,0 UV-I 52 W/m 7,1 C 0,9 C 37,0 km/h (5 Bft) 96,15 %
29.10.2017 12:11 8,3 C 9,4 C 93 % 1001,5 hPa 0,0 l/m 21,1 km/h (4 Bft) W-SW 241 0 min 0,000 mm 0,0 UV-I 45 W/m 7,2 C 0,7 C 41,8 km/h (6 Bft) 95,83 %
29.10.2017 12:12 8,2 C 9,4 C 93 % 1001,7 hPa 0,2 l/m 24,5 km/h (4 Bft) W 280 0 min 0,000 mm 0,0 UV-I 37 W/m 7,1 C -0,5 C 48,3 km/h (6 Bft) 91,30 %
29.10.2017 12:13 8,2 C 9,4 C 93 % 1001,7 hPa 0,2 l/m 22,3 km/h (4 Bft) W-NW 284 0 min 0,000 mm 0,0 UV-I 33 W/m 7,1 C 0,2 C 53,1 km/h (7 Bft) 100,00 %
29.10.2017 12:14 8,2 C 9,4 C 93 % 1001,6 hPa 0,0 l/m 21,2 km/h (4 Bft) W-SW 256 0 min 0,000 mm 0,0 UV-I 32 W/m 7,1 C 0,6 C 37,0 km/h (5 Bft) 95,83 %
29.10.2017 12:15 8,2 C 9,4 C 93 % 1001,7 hPa 0,0 l/m 25,7 km/h (4 Bft) W-SW 254 0 min 0,000 mm 0,0 UV-I 36 W/m 7,1 C -0,8 C 33,8 km/h (5 Bft) 92,31 %
29.10.2017 12:16 8,2 C 9,4 C 93 % 1001,7 hPa 0,2 l/m 19,4 km/h (3 Bft) W-SW 238 0 min 0,000 mm 0,0 UV-I 43 W/m 7,1 C 1,2 C 25,7 km/h (4 Bft) 94,44 %
29.10.2017 12:17 8,2 C 9,4 C 93 % 1001,7 hPa 0,0 l/m 26,5 km/h (4 Bft) W 261 0 min 0,000 mm 0,0 UV-I 49 W/m 7,1 C -1,0 C 45,1 km/h (6 Bft) 88,46 %
29.10.2017 12:18 8,2 C 9,4 C 93 % 1001,7 hPa 0,0 l/m 28,8 km/h (4 Bft) W 263 0 min 0,000 mm 0,0 UV-I 58 W/m 7,1 C -1,6 C 48,3 km/h (6 Bft) 93,33 %
29.10.2017 12:19 8,2 C 9,4 C 93 % 1001,7 hPa 0,0 l/m 20,0 km/h (4 Bft) SW 229 0 min 0,000 mm 0,0 UV-I 64 W/m 7,1 C 1,0 C 32,2 km/h (5 Bft) 97,56 %
29.10.2017 12:20 8,2 C 9,4 C 93 % 1001,7 hPa 0,0 l/m 22,7 km/h (4 Bft) W-NW 288 0 min 0,000 mm 0,0 UV-I 78 W/m 7,1 C 0,1 C 32,2 km/h (5 Bft) 100,00 %
29.10.2017 12:21 8,2 C 9,4 C 93 % 1001,7 hPa 0,0 l/m 23,8 km/h (4 Bft) W-NW 301 0 min 0,000 mm 0,4 UV-I 104 W/m 7,1 C -0,3 C 30,6 km/h (5 Bft) 97,14 %
29.10.2017 12:22 8,2 C 9,4 C 93 % 1001,8 hPa 0,0 l/m 23,0 km/h (4 Bft) SW 215 0 min 0,000 mm 0,5 UV-I 107 W/m 7,1 C -0,0 C 37,0 km/h (5 Bft) 87,50 %
29.10.2017 12:23 8,3 C 9,4 C 93 % 1001,9 hPa 0,0 l/m 20,9 km/h (4 Bft) NW 306 0 min 0,000 mm 0,0 UV-I 99 W/m 7,2 C 0,8 C 32,2 km/h (5 Bft) 95,65 %
29.10.2017 12:24 8,3 C 9,4 C 93 % 1001,9 hPa 0,0 l/m 24,2 km/h (4 Bft) W 269 0 min 0,000 mm 0,0 UV-I 79 W/m 7,2 C -0,2 C 35,4 km/h (5 Bft) 100,00 %
29.10.2017 12:25 8,3 C 9,4 C 92 % 1001,9 hPa 0,0 l/m 30,2 km/h (5 Bft) W 279 0 min 0,000 mm 0,0 UV-I 75 W/m 7,1 C -1,8 C 53,1 km/h (7 Bft) 96,15 %
29.10.2017 12:26 8,3 C 9,4 C 92 % 1001,8 hPa 0,0 l/m 24,1 km/h (4 Bft) W-SW 246 0 min 0,000 mm 0,0 UV-I 65 W/m 7,1 C -0,2 C 30,6 km/h (5 Bft) 100,00 %
29.10.2017 12:27 8,3 C 9,4 C 92 % 1001,9 hPa 0,0 l/m 24,1 km/h (4 Bft) SW 236 0 min 0,000 mm 0,0 UV-I 62 W/m 7,1 C -0,2 C 37,0 km/h (5 Bft) 96,15 %
29.10.2017 12:28 8,3 C 9,4 C 92 % 1001,9 hPa 0,0 l/m 22,0 km/h (4 Bft) W 265 0 min 0,000 mm 0,0 UV-I 80 W/m 7,1 C 0,4 C 40,2 km/h (6 Bft) 100,00 %
29.10.2017 12:29 8,3 C 9,4 C 92 % 1001,8 hPa 0,2 l/m 27,8 km/h (4 Bft) W 266 0 min 0,000 mm 0,4 UV-I 98 W/m 7,1 C -1,2 C 38,6 km/h (5 Bft) 96,55 %
29.10.2017 12:30 8,3 C 9,4 C 92 % 1001,8 hPa 0,0 l/m 20,8 km/h (4 Bft) W-NW 290 0 min 0,000 mm 0,0 UV-I 78 W/m 7,1 C 0,8 C 33,8 km/h (5 Bft) 92,59 %
29.10.2017 12:31 8,3 C 9,4 C 92 % 1002,0 hPa 0,0 l/m 21,6 km/h (4 Bft) W 275 0 min 0,000 mm 0,0 UV-I 52 W/m 7,1 C 0,6 C 32,2 km/h (5 Bft) 100,00 %
29.10.2017 12:32 8,3 C 9,4 C 92 % 1002,0 hPa 0,0 l/m 17,2 km/h (3 Bft) S 178 0 min 0,000 mm 0,0 UV-I 49 W/m 7,1 C 2,1 C 24,1 km/h (4 Bft) 96,15 %
29.10.2017 12:33 8,3 C 9,4 C 92 % 1002,1 hPa 0,0 l/m 25,6 km/h (4 Bft) W 267 0 min 0,000 mm 0,0 UV-I 63 W/m 7,1 C -0,6 C 49,9 km/h (6 Bft) 100,00 %
29.10.2017 12:34 8,3 C 9,4 C 92 % 1002,0 hPa 0,0 l/m 26,3 km/h (4 Bft) W 260 0 min 0,000 mm 0,0 UV-I 88 W/m 7,1 C -0,8 C 37,0 km/h (5 Bft) 96,15 %
29.10.2017 12:35 8,4 C 9,4 C 91 % 1001,9 hPa 0,0 l/m 27,8 km/h (4 Bft) W 281 0 min 0,000 mm 0,5 UV-I 109 W/m 7,0 C -1,1 C 40,2 km/h (6 Bft) 100,00 %
29.10.2017 12:36 8,4 C 9,4 C 91 % 1001,9 hPa 0,0 l/m 20,6 km/h (4 Bft) W-NW 284 0 min 0,000 mm 0,6 UV-I 128 W/m 7,0 C 1,0 C 27,4 km/h (4 Bft) 96,15 %
29.10.2017 12:37 8,4 C 9,4 C 91 % 1002,0 hPa 0,0 l/m 26,5 km/h (4 Bft) W 269 0 min 0,000 mm 0,7 UV-I 127 W/m 7,0 C -0,7 C 38,6 km/h (5 Bft) 100,00 %
29.10.2017 12:38 8,4 C 9,4 C 91 % 1002,0 hPa 0,0 l/m 21,1 km/h (4 Bft) W 260 0 min 0,000 mm 0,7 UV-I 107 W/m 7,0 C 0,8 C 37,0 km/h (5 Bft) 90,91 %
29.10.2017 12:39 8,4 C 9,4 C 91 % 1002,0 hPa 0,0 l/m 25,7 km/h (4 Bft) W 277 0 min 0,000 mm 0,7 UV-I 98 W/m 7,0 C -0,5 C 33,8 km/h (5 Bft) 100,00 %
29.10.2017 12:40 8,4 C 9,4 C 91 % 1002,0 hPa 0,0 l/m 27,2 km/h (4 Bft) W-SW 244 0 min 0,000 mm 0,7 UV-I 101 W/m 7,0 C -0,9 C 46,7 km/h (6 Bft) 95,65 %
29.10.2017 12:41 8,4 C 9,4 C 91 % 1002,0 hPa 0,0 l/m 27,9 km/h (4 Bft) W 276 0 min 0,000 mm 0,8 UV-I 107 W/m 7,0 C -1,1 C 51,5 km/h (7 Bft) 96,67 %
29.10.2017 12:42 8,4 C 9,4 C 91 % 1001,8 hPa 0,0 l/m 23,9 km/h (4 Bft) W 281 0 min 0,000 mm 0,8 UV-I 139 W/m 7,0 C -0,0 C 33,8 km/h (5 Bft) 100,00 %
29.10.2017 12:43 8,5 C 9,4 C 90 % 1002,0 hPa 0,0 l/m 20,6 km/h (4 Bft) W 266 0 min 0,000 mm 1,0 UV-I 173 W/m 7,0 C 1,1 C 46,7 km/h (6 Bft) 96,30 %
29.10.2017 12:44 8,5 C 9,4 C 90 % 1002,1 hPa 0,0 l/m 28,4 km/h (4 Bft) W-NW 284 0 min 0,000 mm 0,9 UV-I 158 W/m 7,0 C -1,1 C 41,8 km/h (6 Bft) 100,00 %
29.10.2017 12:45 8,6 C 9,4 C 90 % 1002,1 hPa 0,0 l/m 28,9 km/h (5 Bft) W 281 0 min 0,000 mm 0,9 UV-I 132 W/m 7,1 C -1,1 C 43,5 km/h (6 Bft) 100,00 %
29.10.2017 12:46 8,6 C 9,4 C 89 % 1002,2 hPa 0,0 l/m 17,9 km/h (3 Bft) W 266 0 min 0,000 mm 0,9 UV-I 130 W/m 6,9 C 2,2 C 24,1 km/h (4 Bft) 100,00 %
29.10.2017 12:47 8,6 C 9,4 C 89 % 1002,3 hPa 0,0 l/m 23,0 km/h (4 Bft) W 265 0 min 0,000 mm 0,8 UV-I 82 W/m 6,9 C 0,5 C 32,2 km/h (5 Bft) 100,00 %
29.10.2017 12:48 8,6 C 9,4 C 89 % 1002,2 hPa 0,0 l/m 21,9 km/h (4 Bft) W 266 0 min 0,000 mm 1,0 UV-I 80 W/m 6,9 C 0,9 C 33,8 km/h (5 Bft) 100,00 %
29.10.2017 12:49 8,6 C 9,4 C 89 % 1002,3 hPa 0,0 l/m 25,0 km/h (4 Bft) W 260 0 min 0,000 mm 1,0 UV-I 80 W/m 6,9 C -0,1 C 40,2 km/h (6 Bft) 100,00 %
29.10.2017 12:50 8,6 C 9,4 C 88 % 1002,2 hPa 0,0 l/m 28,2 km/h (4 Bft) W-SW 254 0 min 0,000 mm 0,9 UV-I 67 W/m 6,7 C -0,9 C 46,7 km/h (6 Bft) 100,00 %
29.10.2017 12:51 8,6 C 9,4 C 88 % 1002,3 hPa 0,0 l/m 23,8 km/h (4 Bft) W-SW 252 0 min 0,000 mm 0,9 UV-I 78 W/m 6,7 C 0,3 C 37,0 km/h (5 Bft) 100,00 %
29.10.2017 12:52 8,6 C 9,4 C 88 % 1002,4 hPa 0,0 l/m 21,7 km/h (4 Bft) W 265 0 min 0,000 mm 1,0 UV-I 145 W/m 6,7 C 0,9 C 32,2 km/h (5 Bft) 100,00 %
29.10.2017 12:53 8,6 C 9,4 C 88 % 1002,4 hPa 0,0 l/m 26,1 km/h (4 Bft) W-SW 252 0 min 0,000 mm 1,1 UV-I 97 W/m 6,7 C -0,4 C 43,5 km/h (6 Bft) 100,00 %
29.10.2017 12:54 8,6 C 9,4 C 88 % 1002,2 hPa 0,0 l/m 30,1 km/h (5 Bft) W 261 1 min 0,000 mm 1,3 UV-I 252 W/m 6,7 C -1,3 C 48,3 km/h (6 Bft) 100,00 %
29.10.2017 12:55 8,6 C 9,4 C 87 % 1002,4 hPa 0,0 l/m 21,3 km/h (4 Bft) W-SW 243 1 min 0,000 mm 1,2 UV-I 384 W/m 6,6 C 1,0 C 37,0 km/h (5 Bft) 100,00 %
29.10.2017 12:56 8,7 C 9,4 C 87 % 1002,5 hPa 0,0 l/m 19,9 km/h (4 Bft) W-NW 300 1 min 0,000 mm 1,1 UV-I 348 W/m 6,7 C 1,6 C 32,2 km/h (5 Bft) 100,00 %
29.10.2017 12:57 8,7 C 9,4 C 88 % 1002,5 hPa 0,0 l/m 16,7 km/h (3 Bft) W-SW 256 0 min 0,000 mm 1,1 UV-I 218 W/m 6,8 C 2,8 C 24,1 km/h (4 Bft) 100,00 %
29.10.2017 12:58 8,7 C 9,4 C 88 % 1002,6 hPa 0,0 l/m 20,5 km/h (4 Bft) W-SW 257 0 min 0,000 mm 0,9 UV-I 166 W/m 6,8 C 1,4 C 29,0 km/h (5 Bft) 100,00 %
29.10.2017 12:59 8,7 C 9,4 C 87 % 1002,6 hPa 0,0 l/m 18,3 km/h (3 Bft) W-SW 250 0 min 0,000 mm 0,9 UV-I 106 W/m 6,7 C 2,2 C 24,1 km/h (4 Bft) 100,00 %
29.10.2017 13:00 8,7 C 9,4 C 86 % 1002,6 hPa 0,0 l/m 26,6 km/h (4 Bft) NW 309 0 min 0,000 mm 1,1 UV-I 123 W/m 6,5 C -0,4 C 45,1 km/h (6 Bft) 100,00 %
29.10.2017 13:01 8,7 C 9,4 C 87 % 1002,6 hPa 0,0 l/m 18,3 km/h (3 Bft) W-SW 252 1 min 0,076 mm 1,3 UV-I 371 W/m 6,7 C 2,2 C 27,4 km/h (4 Bft) 95,65 %
29.10.2017 13:02 8,8 C 9,4 C 87 % 1002,7 hPa 0,0 l/m 29,1 km/h (5 Bft) SW 236 1 min 0,000 mm 1,2 UV-I 428 W/m 6,8 C -0,8 C 45,1 km/h (6 Bft) 100,00 %
29.10.2017 13:03 8,8 C 9,4 C 86 % 1002,7 hPa 0,0 l/m 20,4 km/h (4 Bft) SW 236 1 min 0,000 mm 1,0 UV-I 424 W/m 6,6 C 1,6 C 27,4 km/h (4 Bft) 100,00 %
29.10.2017 13:04 8,8 C 9,4 C 86 % 1002,7 hPa 0,0 l/m 19,3 km/h (3 Bft) W 276 1 min 0,000 mm 1,2 UV-I 424 W/m 6,6 C 2,0 C 29,0 km/h (5 Bft) 96,30 %
29.10.2017 13:05 8,9 C 9,4 C 86 % 1002,7 hPa 0,0 l/m 19,9 km/h (4 Bft) NW 319 1 min 0,000 mm 1,0 UV-I 320 W/m 6,7 C 1,9 C 30,6 km/h (5 Bft) 100,00 %
29.10.2017 13:06 8,9 C 9,4 C 85 % 1002,8 hPa 0,0 l/m 19,6 km/h (3 Bft) SW 229 1 min 0,000 mm 1,0 UV-I 272 W/m 6,5 C 2,0 C 30,6 km/h (5 Bft) 100,00 %
29.10.2017 13:07 8,9 C 9,4 C 84 % 1002,9 hPa 0,0 l/m 22,5 km/h (4 Bft) W-SW 248 1 min 0,000 mm 0,9 UV-I 272 W/m 6,3 C 1,1 C 30,6 km/h (5 Bft) 100,00 %
29.10.2017 13:08 8,9 C 9,4 C 84 % 1003,0 hPa 0,0 l/m 22,7 km/h (4 Bft) NW 304 0 min 0,000 mm 0,8 UV-I 81 W/m 6,3 C 1,0 C 37,0 km/h (5 Bft) 100,00 %
29.10.2017 13:09 8,9 C 9,4 C 84 % 1002,9 hPa 0,0 l/m 23,0 km/h (4 Bft) W 261 0 min 0,000 mm 0,8 UV-I 72 W/m 6,3 C 0,9 C 38,6 km/h (5 Bft) 100,00 %
29.10.2017 13:10 8,9 C 9,4 C 84 % 1003,0 hPa 0,0 l/m 20,9 km/h (4 Bft) W 266 0 min 0,000 mm 0,8 UV-I 82 W/m 6,3 C 1,6 C 35,4 km/h (5 Bft) 96,55 %
29.10.2017 13:11 8,9 C 9,4 C 83 % 1003,0 hPa 0,0 l/m 19,3 km/h (3 Bft) W-SW 244 0 min 0,000 mm 0,7 UV-I 91 W/m 6,2 C 2,1 C 22,5 km/h (4 Bft) 100,00 %
29.10.2017 13:12 8,9 C 9,4 C 83 % 1003,1 hPa 0,0 l/m 29,6 km/h (5 Bft) W-SW 241 0 min 0,000 mm 0,7 UV-I 87 W/m 6,2 C -0,8 C 43,5 km/h (6 Bft) 100,00 %
29.10.2017 13:13 8,9 C 9,4 C 82 % 1003,1 hPa 0,0 l/m 16,2 km/h (3 Bft) W-NW 302 0 min 0,000 mm 0,6 UV-I 87 W/m 6,0 C 3,3 C 27,4 km/h (4 Bft) 100,00 %
29.10.2017 13:14 8,9 C 9,4 C 82 % 1003,0 hPa 0,0 l/m 19,3 km/h (3 Bft) W 261 0 min 0,000 mm 0,6 UV-I 93 W/m 6,0 C 2,1 C 33,8 km/h (5 Bft) 100,00 %
29.10.2017 13:15 8,9 C 9,4 C 82 % 1003,2 hPa 0,0 l/m 21,5 km/h (4 Bft) W-SW 252 0 min 0,000 mm 0,6 UV-I 98 W/m 6,0 C 1,4 C 35,4 km/h (5 Bft) 100,00 %
29.10.2017 13:16 8,9 C 9,4 C 82 % 1003,2 hPa 0,0 l/m 22,3 km/h (4 Bft) W-SW 248 0 min 0,000 mm 0,6 UV-I 87 W/m 6,0 C 1,1 C 33,8 km/h (5 Bft) 100,00 %
29.10.2017 13:17 8,9 C 9,4 C 82 % 1003,3 hPa 0,0 l/m 19,2 km/h (3 Bft) W-SW 250 0 min 0,000 mm 0,6 UV-I 112 W/m 6,0 C 2,1 C 25,7 km/h (4 Bft) 100,00 %
29.10.2017 13:18 8,9 C 9,4 C 82 % 1003,2 hPa 0,0 l/m 15,6 km/h (3 Bft) W-SW 248 0 min 0,000 mm 0,6 UV-I 127 W/m 6,0 C 3,5 C 27,4 km/h (4 Bft) 100,00 %
29.10.2017 13:19 8,9 C 9,4 C 82 % 1003,2 hPa 0,0 l/m 22,9 km/h (4 Bft) W-NW 284 0 min 0,000 mm 0,6 UV-I 133 W/m 6,0 C 0,9 C 32,2 km/h (5 Bft) 100,00 %
29.10.2017 13:20 8,9 C 9,4 C 82 % 1003,3 hPa 0,0 l/m 15,4 km/h (3 Bft) W 269 0 min 0,000 mm 0,6 UV-I 112 W/m 6,0 C 3,6 C 22,5 km/h (4 Bft) 100,00 %
29.10.2017 13:21 8,9 C 9,4 C 82 % 1003,1 hPa 0,0 l/m 22,7 km/h (4 Bft) W 275 0 min 0,000 mm 0,6 UV-I 115 W/m 6,0 C 1,0 C 38,6 km/h (5 Bft) 100,00 %
29.10.2017 13:22 8,9 C 9,4 C 82 % 1003,3 hPa 0,0 l/m 17,7 km/h (3 Bft) W-NW 289 0 min 0,000 mm 0,7 UV-I 118 W/m 6,0 C 2,7 C 24,1 km/h (4 Bft) 98,00 %
29.10.2017 13:23 8,9 C 9,4 C 81 % 1003,4 hPa 0,0 l/m 21,8 km/h (4 Bft) W 267 0 min 0,000 mm 0,7 UV-I 137 W/m 5,8 C 1,3 C 32,2 km/h (5 Bft) 100,00 %
29.10.2017 13:24 9,0 C 9,4 C 81 % 1003,5 hPa 0,0 l/m 24,1 km/h (4 Bft) W 273 0 min 0,000 mm 0,8 UV-I 167 W/m 5,9 C 0,7 C 37,0 km/h (5 Bft) 100,00 %
29.10.2017 13:25 9,0 C 9,4 C 81 % 1003,5 hPa 0,0 l/m 20,8 km/h (4 Bft) W-NW 286 0 min 0,000 mm 0,8 UV-I 167 W/m 5,9 C 1,7 C 29,0 km/h (5 Bft) 100,00 %
29.10.2017 13:26 9,1 C 9,4 C 81 % 1003,5 hPa 0,0 l/m 22,0 km/h (4 Bft) W 276 0 min 0,000 mm 0,7 UV-I 139 W/m 6,0 C 1,5 C 32,2 km/h (5 Bft) 98,01 %
29.10.2017 13:27 9,1 C 9,4 C 81 % 1003,4 hPa 0,0 l/m 26,1 km/h (4 Bft) W-SW 257 0 min 0,000 mm 0,8 UV-I 153 W/m 6,0 C 0,3 C 40,2 km/h (6 Bft) 100,00 %
29.10.2017 13:28 9,1 C 9,4 C 81 % 1003,5 hPa 0,0 l/m 20,6 km/h (4 Bft) W 259 0 min 0,000 mm 0,7 UV-I 139 W/m 6,0 C 1,9 C 29,0 km/h (5 Bft) 100,00 %
29.10.2017 13:29 9,1 C 9,4 C 81 % 1003,6 hPa 0,0 l/m 28,9 km/h (5 Bft) W 277 0 min 0,000 mm 0,7 UV-I 136 W/m 6,0 C -0,4 C 37,0 km/h (5 Bft) 100,00 %
29.10.2017 13:30 9,1 C 9,4 C 80 % 1003,5 hPa 0,0 l/m 24,7 km/h (4 Bft) W 273 0 min 0,000 mm 0,8 UV-I 152 W/m 5,8 C 0,7 C 46,7 km/h (6 Bft) 100,00 %
29.10.2017 13:31 9,1 C 9,4 C 80 % 1003,6 hPa 0,0 l/m 24,5 km/h (4 Bft) W 268 0 min 0,000 mm 0,8 UV-I 206 W/m 5,8 C 0,7 C 37,0 km/h (5 Bft) 100,00 %
29.10.2017 13:32 9,2 C 9,4 C 81 % 1003,5 hPa 0,0 l/m 22,7 km/h (4 Bft) W 275 0 min 0,000 mm 0,8 UV-I 175 W/m 6,1 C 1,4 C 37,0 km/h (5 Bft) 96,15 %
29.10.2017 13:33 9,2 C 9,4 C 80 % 1003,6 hPa 0,0 l/m 25,8 km/h (4 Bft) W 264 0 min 0,000 mm 0,8 UV-I 158 W/m 5,9 C 0,5 C 41,8 km/h (6 Bft) 100,00 %
29.10.2017 13:34 9,2 C 9,4 C 80 % 1003,5 hPa 0,0 l/m 24,3 km/h (4 Bft) W-NW 286 0 min 0,000 mm 0,9 UV-I 158 W/m 5,9 C 0,9 C 33,8 km/h (5 Bft) 100,00 %
29.10.2017 13:35 9,2 C 9,4 C 80 % 1003,6 hPa 0,0 l/m 19,4 km/h (3 Bft) W 272 1 min 0,000 mm 1,1 UV-I 246 W/m 5,9 C 2,5 C 32,2 km/h (5 Bft) 100,00 %
29.10.2017 13:36 9,3 C 9,4 C 79 % 1003,6 hPa 0,0 l/m 21,8 km/h (4 Bft) W 268 1 min 0,000 mm 1,1 UV-I 308 W/m 5,8 C 1,8 C 32,2 km/h (5 Bft) 100,00 %
29.10.2017 13:37 9,3 C 9,4 C 79 % 1003,6 hPa 0,0 l/m 20,5 km/h (4 Bft) NW 319 1 min 0,000 mm 1,0 UV-I 308 W/m 5,8 C 2,2 C 30,6 km/h (5 Bft) 100,00 %
29.10.2017 13:38 9,4 C 9,4 C 79 % 1003,6 hPa 0,0 l/m 18,3 km/h (3 Bft) W 263 1 min 0,000 mm 0,9 UV-I 294 W/m 5,9 C 3,1 C 27,4 km/h (4 Bft) 100,00 %
29.10.2017 13:39 9,4 C 9,4 C 79 % 1003,7 hPa 0,0 l/m 16,9 km/h (3 Bft) NW 318 1 min 0,000 mm 1,1 UV-I 330 W/m 5,9 C 3,6 C 22,5 km/h (4 Bft) 100,00 %
29.10.2017 13:40 9,5 C 9,4 C 79 % 1003,7 hPa 0,0 l/m 20,2 km/h (4 Bft) W 272 1 min 0,000 mm 1,1 UV-I 389 W/m 6,0 C 2,6 C 29,0 km/h (5 Bft) 100,00 %
29.10.2017 13:41 9,6 C 9,4 C 78 % 1003,5 hPa 0,0 l/m 19,9 km/h (4 Bft) NW 306 1 min 0,000 mm 1,1 UV-I 387 W/m 6,0 C 2,8 C 29,0 km/h (5 Bft) 100,00 %
29.10.2017 13:42 9,7 C 9,4 C 77 % 1003,7 hPa 0,0 l/m 15,3 km/h (3 Bft) W 261 1 min 0,000 mm 1,0 UV-I 388 W/m 5,9 C 4,6 C 20,9 km/h (4 Bft) 100,00 %
29.10.2017 13:43 9,7 C 9,4 C 77 % 1003,7 hPa 0,0 l/m 18,3 km/h (3 Bft) SW 232 1 min 0,000 mm 1,0 UV-I 387 W/m 5,9 C 3,5 C 22,5 km/h (4 Bft) 96,15 %
29.10.2017 13:44 9,8 C 9,4 C 77 % 1003,7 hPa 0,0 l/m 15,8 km/h (3 Bft) W-SW 238 1 min 0,000 mm 1,0 UV-I 383 W/m 6,0 C 4,6 C 20,9 km/h (4 Bft) 96,30 %
29.10.2017 13:45 9,8 C 9,4 C 77 % 1003,7 hPa 0,0 l/m 21,2 km/h (4 Bft) W 279 1 min 0,000 mm 1,0 UV-I 383 W/m 6,0 C 2,6 C 30,6 km/h (5 Bft) 100,00 %
29.10.2017 13:46 9,9 C 9,4 C 77 % 1003,7 hPa 0,0 l/m 15,7 km/h (3 Bft) W-SW 243 1 min 0,000 mm 1,0 UV-I 382 W/m 6,1 C 4,7 C 29,0 km/h (5 Bft) 96,55 %
29.10.2017 13:47 10,0 C 9,4 C 76 % 1003,6 hPa 0,0 l/m 18,5 km/h (3 Bft) W-SW 252 1 min 0,000 mm 1,0 UV-I 380 W/m 6,0 C 3,8 C 25,7 km/h (4 Bft) 100,00 %
29.10.2017 13:48 10,1 C 9,4 C 76 % 1003,7 hPa 0,0 l/m 23,3 km/h (4 Bft) W 273 1 min 0,000 mm 1,0 UV-I 377 W/m 6,1 C 2,4 C 33,8 km/h (5 Bft) 96,55 %
29.10.2017 13:49 10,1 C 9,4 C 75 % 1003,7 hPa 0,0 l/m 15,0 km/h (3 Bft) W 276 1 min 0,000 mm 1,0 UV-I 385 W/m 5,9 C 5,3 C 22,5 km/h (4 Bft) 96,55 %
29.10.2017 13:50 10,1 C 9,4 C 75 % 1003,7 hPa 0,0 l/m 22,4 km/h (4 Bft) W-SW 248 1 min 0,000 mm 1,0 UV-I 375 W/m 5,9 C 2,7 C 30,6 km/h (5 Bft) 96,30 %
29.10.2017 13:51 10,2 C 9,4 C 74 % 1003,7 hPa 0,0 l/m 20,5 km/h (4 Bft) W 267 1 min 0,000 mm 1,0 UV-I 370 W/m 5,8 C 3,4 C 29,0 km/h (5 Bft) 95,65 %
29.10.2017 13:52 10,2 C 9,4 C 74 % 1003,7 hPa 0,0 l/m 23,0 km/h (4 Bft) W-NW 286 1 min 0,000 mm 1,0 UV-I 365 W/m 5,8 C 2,6 C 30,6 km/h (5 Bft) 100,00 %
29.10.2017 13:53 10,2 C 9,4 C 74 % 1003,8 hPa 0,0 l/m 14,4 km/h (3 Bft) W-NW 296 1 min 0,000 mm 0,9 UV-I 360 W/m 5,8 C 5,6 C 20,9 km/h (4 Bft) 91,67 %
29.10.2017 13:54 10,2 C 9,4 C 74 % 1003,8 hPa 0,0 l/m 15,8 km/h (3 Bft) W 263 1 min 0,000 mm 0,9 UV-I 360 W/m 5,8 C 5,1 C 32,2 km/h (5 Bft) 100,00 %
29.10.2017 13:55 10,2 C 9,4 C 74 % 1003,9 hPa 0,0 l/m 17,7 km/h (3 Bft) W-SW 246 1 min 0,000 mm 0,9 UV-I 360 W/m 5,8 C 4,3 C 25,7 km/h (4 Bft) 96,55 %
29.10.2017 13:56 10,2 C 9,4 C 74 % 1004,0 hPa 0,0 l/m 18,0 km/h (3 Bft) W-NW 296 1 min 0,000 mm 0,8 UV-I 350 W/m 5,8 C 4,2 C 27,4 km/h (4 Bft) 100,00 %
29.10.2017 13:57 10,2 C 9,4 C 73 % 1003,9 hPa 0,0 l/m 31,5 km/h (5 Bft) W-SW 246 1 min 0,000 mm 0,8 UV-I 350 W/m 5,6 C 0,6 C 46,7 km/h (6 Bft) 96,67 %
29.10.2017 13:58 10,2 C 9,4 C 73 % 1004,0 hPa 0,0 l/m 19,0 km/h (3 Bft) W-NW 296 1 min 0,000 mm 0,8 UV-I 347 W/m 5,6 C 3,9 C 37,0 km/h (5 Bft) 96,15 %
29.10.2017 13:59 10,2 C 9,4 C 73 % 1004,1 hPa 0,0 l/m 17,7 km/h (3 Bft) W-SW 244 1 min 0,000 mm 0,9 UV-I 370 W/m 5,6 C 4,3 C 24,1 km/h (4 Bft) 100,00 %
29.10.2017 14:00 10,2 C 9,4 C 73 % 1004,1 hPa 0,0 l/m 23,1 km/h (4 Bft) W 271 1 min 0,153 mm 0,9 UV-I 371 W/m 5,6 C 2,6 C 48,3 km/h (6 Bft) 100,00 %
29.10.2017 14:01 10,2 C 9,4 C 72 % 1004,0 hPa 0,0 l/m 22,1 km/h (4 Bft) W-SW 255 1 min 0,000 mm 0,9 UV-I 372 W/m 5,4 C 2,9 C 30,6 km/h (5 Bft) 96,30 %
29.10.2017 14:02 10,2 C 9,4 C 72 % 1004,2 hPa 0,0 l/m 19,3 km/h (3 Bft) N-NW 346 1 min 0,000 mm 0,7 UV-I 366 W/m 5,4 C 3,8 C 27,4 km/h (4 Bft) 96,15 %
29.10.2017 14:03 10,2 C 9,4 C 72 % 1004,1 hPa 0,0 l/m 14,6 km/h (3 Bft) W-NW 302 1 min 0,000 mm 0,8 UV-I 357 W/m 5,4 C 5,5 C 19,3 km/h (3 Bft) 100,00 %
29.10.2017 14:04 10,3 C 9,4 C 72 % 1004,2 hPa 0,0 l/m 22,7 km/h (4 Bft) W-NW 284 1 min 0,000 mm 0,9 UV-I 354 W/m 5,5 C 2,9 C 30,6 km/h (5 Bft) 92,86 %
29.10.2017 14:05 10,3 C 9,4 C 71 % 1004,0 hPa 0,0 l/m 26,5 km/h (4 Bft) W 281 1 min 0,000 mm 0,9 UV-I 351 W/m 5,3 C 1,9 C 53,1 km/h (7 Bft) 100,00 %
29.10.2017 14:06 10,3 C 9,4 C 70 % 1004,2 hPa 0,0 l/m 17,7 km/h (3 Bft) W-SW 248 1 min 0,000 mm 0,8 UV-I 348 W/m 5,1 C 4,5 C 30,6 km/h (5 Bft) 91,67 %
29.10.2017 14:07 10,3 C 9,4 C 71 % 1004,2 hPa 0,0 l/m 28,2 km/h (4 Bft) W 261 1 min 0,000 mm 0,7 UV-I 348 W/m 5,3 C 1,5 C 54,7 km/h (7 Bft) 100,00 %
29.10.2017 14:08 10,3 C 9,4 C 70 % 1003,8 hPa 0,0 l/m 17,8 km/h (3 Bft) W-SW 254 1 min 0,000 mm 0,8 UV-I 348 W/m 5,1 C 4,4 C 38,6 km/h (5 Bft) 95,65 %
29.10.2017 14:09 10,3 C 9,4 C 70 % 1004,2 hPa 0,0 l/m 17,7 km/h (3 Bft) W-NW 302 1 min 0,000 mm 0,8 UV-I 330 W/m 5,1 C 4,5 C 25,7 km/h (4 Bft) 92,59 %
29.10.2017 14:10 10,3 C 9,4 C 70 % 1004,2 hPa 0,0 l/m 28,0 km/h (4 Bft) W-SW 258 1 min 0,000 mm 0,8 UV-I 336 W/m 5,1 C 1,5 C 51,5 km/h (7 Bft) 100,00 %
29.10.2017 14:12 10,3 C 9,4 C 69 % 1004,4 hPa 0,0 l/m 15,9 km/h (3 Bft) SW 234 2 min 0,000 mm 0,8 UV-I 353 W/m 4,9 C 5,1 C 37,0 km/h (5 Bft) 98,00 %
29.10.2017 14:13 10,3 C 9,4 C 69 % 1004,4 hPa 0,0 l/m 23,8 km/h (4 Bft) W-NW 295 1 min 0,000 mm 0,6 UV-I 345 W/m 4,9 C 2,6 C 46,7 km/h (6 Bft) 91,67 %
29.10.2017 14:14 10,3 C 9,4 C 68 % 1004,4 hPa 0,0 l/m 21,3 km/h (4 Bft) W 263 0 min 0,000 mm 0,6 UV-I 89 W/m 4,7 C 3,3 C 35,4 km/h (5 Bft) 100,00 %
29.10.2017 14:15 10,3 C 9,4 C 68 % 1004,5 hPa 0,0 l/m 22,9 km/h (4 Bft) W-NW 298 0 min 0,000 mm 0,7 UV-I 102 W/m 4,7 C 2,8 C 38,6 km/h (5 Bft) 100,00 %
29.10.2017 14:16 10,3 C 9,4 C 67 % 1004,5 hPa 0,0 l/m 15,4 km/h (3 Bft) W 275 0 min 0,000 mm 0,6 UV-I 102 W/m 4,4 C 5,3 C 43,5 km/h (6 Bft) 100,00 %
29.10.2017 14:17 10,3 C 9,4 C 66 % 1004,4 hPa 0,0 l/m 18,7 km/h (3 Bft) NW 315 0 min 0,000 mm 0,6 UV-I 90 W/m 4,2 C 4,1 C 25,7 km/h (4 Bft) 100,00 %
29.10.2017 14:18 10,2 C 9,4 C 67 % 1004,4 hPa 0,0 l/m 14,6 km/h (3 Bft) W-SW 254 0 min 0,000 mm 0,7 UV-I 100 W/m 4,4 C 5,5 C 19,3 km/h (3 Bft) 91,67 %
29.10.2017 14:19 10,2 C 9,4 C 67 % 1004,5 hPa 0,0 l/m 12,4 km/h (3 Bft) W 262 1 min 0,000 mm 0,7 UV-I 366 W/m 4,4 C 6,5 C 27,4 km/h (4 Bft) 100,00 %
29.10.2017 14:20 10,3 C 9,4 C 68 % 1004,4 hPa 0,0 l/m 21,6 km/h (4 Bft) W-NW 293 1 min 0,000 mm 0,7 UV-I 373 W/m 4,7 C 3,2 C 45,1 km/h (6 Bft) 100,00 %
29.10.2017 14:21 10,3 C 9,4 C 69 % 1004,5 hPa 0,0 l/m 13,2 km/h (3 Bft) W 273 1 min 0,000 mm 0,6 UV-I 239 W/m 4,9 C 6,3 C 20,9 km/h (4 Bft) 100,00 %
29.10.2017 14:22 10,3 C 9,4 C 69 % 1004,6 hPa 0,0 l/m 11,4 km/h (2 Bft) W 260 0 min 0,000 mm 0,2 UV-I 94 W/m 4,9 C 7,2 C 20,9 km/h (4 Bft) 100,00 %
29.10.2017 14:23 10,3 C 9,4 C 69 % 1004,7 hPa 0,0 l/m 15,6 km/h (3 Bft) W-NW 288 0 min 0,000 mm 0,0 UV-I 100 W/m 4,9 C 5,3 C 22,5 km/h (4 Bft) 100,00 %
29.10.2017 14:24 10,3 C 9,4 C 70 % 1004,7 hPa 0,0 l/m 19,8 km/h (3 Bft) NW 305 0 min 0,000 mm 0,0 UV-I 119 W/m 5,1 C 3,7 C 32,2 km/h (5 Bft) 100,00 %
29.10.2017 14:25 10,2 C 9,4 C 70 % 1004,7 hPa 0,0 l/m 13,7 km/h (3 Bft) W-SW 244 0 min 0,000 mm 0,0 UV-I 91 W/m 5,0 C 5,9 C 20,9 km/h (4 Bft) 100,00 %
29.10.2017 14:26 10,2 C 9,4 C 69 % 1004,8 hPa 0,0 l/m 16,8 km/h (3 Bft) W 265 0 min 0,000 mm 0,0 UV-I 60 W/m 4,8 C 4,7 C 25,7 km/h (4 Bft) 100,00 %
29.10.2017 14:27 10,2 C 9,4 C 70 % 1004,8 hPa 0,0 l/m 11,3 km/h (2 Bft) W-NW 299 0 min 0,000 mm 0,0 UV-I 55 W/m 5,0 C 7,1 C 20,9 km/h (4 Bft) 96,67 %
29.10.2017 14:28 10,2 C 9,4 C 70 % 1004,8 hPa 0,0 l/m 10,9 km/h (2 Bft) W-NW 294 0 min 0,000 mm 0,0 UV-I 62 W/m 5,0 C 7,3 C 17,7 km/h (3 Bft) 100,00 %
29.10.2017 14:29 10,1 C 9,4 C 71 % 1004,7 hPa 0,0 l/m 10,4 km/h (2 Bft) NW 317 0 min 0,000 mm 0,0 UV-I 60 W/m 5,1 C 7,5 C 24,1 km/h (4 Bft) 100,00 %
29.10.2017 14:30 10,1 C 9,4 C 70 % 1004,8 hPa 0,0 l/m 15,5 km/h (3 Bft) W-SW 253 0 min 0,000 mm 0,0 UV-I 61 W/m 4,9 C 5,0 C 30,6 km/h (5 Bft) 100,00 %
29.10.2017 14:31 10,1 C 9,4 C 69 % 1004,7 hPa 0,0 l/m 20,8 km/h (4 Bft) N-NW 338 0 min 0,000 mm 0,0 UV-I 56 W/m 4,7 C 3,2 C 37,0 km/h (5 Bft) 100,00 %
29.10.2017 14:32 10,1 C 9,4 C 69 % 1004,8 hPa 0,0 l/m 20,1 km/h (4 Bft) W 277 0 min 0,000 mm 0,0 UV-I 50 W/m 4,7 C 3,4 C 35,4 km/h (5 Bft) 100,00 %
29.10.2017 14:33 10,0 C 9,4 C 68 % 1004,8 hPa 0,0 l/m 18,4 km/h (3 Bft) W-NW 288 0 min 0,000 mm 0,0 UV-I 49 W/m 4,4 C 3,8 C 33,8 km/h (5 Bft) 100,00 %
29.10.2017 14:34 9,9 C 9,4 C 68 % 1004,8 hPa 0,0 l/m 19,5 km/h (3 Bft) W 261 0 min 0,000 mm 0,0 UV-I 50 W/m 4,3 C 3,3 C 43,5 km/h (6 Bft) 96,15 %
29.10.2017 14:35 9,9 C 9,4 C 67 % 1004,8 hPa 0,0 l/m 10,3 km/h (2 Bft) W-SW 248 0 min 0,000 mm 0,0 UV-I 49 W/m 4,1 C 7,3 C 14,5 km/h (3 Bft) 100,00 %
29.10.2017 14:36 9,9 C 9,4 C 68 % 1004,9 hPa 0,0 l/m 13,5 km/h (3 Bft) W-SW 242 0 min 0,000 mm 0,0 UV-I 51 W/m 4,3 C 5,7 C 22,5 km/h (4 Bft) 100,00 %
29.10.2017 14:37 9,9 C 9,4 C 67 % 1004,8 hPa 0,0 l/m 12,3 km/h (3 Bft) W-NW 285 0 min 0,000 mm 0,0 UV-I 50 W/m 4,1 C 6,2 C 17,7 km/h (3 Bft) 100,00 %
29.10.2017 14:38 9,8 C 9,4 C 68 % 1004,9 hPa 0,0 l/m 10,9 km/h (2 Bft) NW 306 0 min 0,000 mm 0,0 UV-I 50 W/m 4,2 C 6,9 C 25,7 km/h (4 Bft) 100,00 %
29.10.2017 14:39 9,8 C 9,4 C 68 % 1005,0 hPa 0,0 l/m 10,6 km/h (2 Bft) W 274 0 min 0,000 mm 0,0 UV-I 55 W/m 4,2 C 7,0 C 20,9 km/h (4 Bft) 100,00 %
29.10.2017 14:40 9,8 C 9,4 C 68 % 1005,0 hPa 0,0 l/m 6,5 km/h (2 Bft) W 259 0 min 0,000 mm 0,0 UV-I 81 W/m 4,2 C 9,8 C 12,9 km/h (3 Bft) 100,00 %
29.10.2017 14:41 9,8 C 9,4 C 69 % 1005,0 hPa 0,0 l/m 15,5 km/h (3 Bft) W-NW 293 1 min 0,000 mm 0,0 UV-I 165 W/m 4,4 C 4,7 C 40,2 km/h (6 Bft) 100,00 %
29.10.2017 14:42 9,8 C 9,4 C 68 % 1005,0 hPa 0,0 l/m 14,1 km/h (3 Bft) W-SW 252 0 min 0,000 mm 0,0 UV-I 144 W/m 4,2 C 5,3 C 24,1 km/h (4 Bft) 100,00 %
29.10.2017 14:43 9,8 C 9,4 C 69 % 1005,0 hPa 0,0 l/m 15,2 km/h (3 Bft) W-SW 250 0 min 0,000 mm 0,0 UV-I 134 W/m 4,4 C 4,8 C 27,4 km/h (4 Bft) 100,00 %
29.10.2017 14:44 9,8 C 9,4 C 69 % 1005,1 hPa 0,0 l/m 13,1 km/h (3 Bft) W 270 0 min 0,000 mm 0,0 UV-I 125 W/m 4,4 C 5,7 C 20,9 km/h (4 Bft) 95,65 %
29.10.2017 14:45 9,8 C 9,4 C 70 % 1005,2 hPa 0,0 l/m 15,0 km/h (3 Bft) W-NW 290 0 min 0,000 mm 0,0 UV-I 98 W/m 4,6 C 4,9 C 22,5 km/h (4 Bft) 100,00 %
29.10.2017 14:46 9,8 C 9,4 C 70 % 1005,0 hPa 0,0 l/m 35,1 km/h (5 Bft) W-SW 257 0 min 0,000 mm 0,2 UV-I 91 W/m 4,6 C -0,6 C 45,1 km/h (6 Bft) 93,33 %
29.10.2017 14:47 9,9 C 9,4 C 68 % 1005,2 hPa 0,0 l/m 22,0 km/h (4 Bft) W 271 1 min 0,000 mm 0,2 UV-I 194 W/m 4,3 C 2,5 C 41,8 km/h (6 Bft) 100,00 %
29.10.2017 14:48 9,9 C 9,4 C 67 % 1005,0 hPa 0,0 l/m 22,2 km/h (4 Bft) W 265 1 min 0,000 mm 0,4 UV-I 260 W/m 4,1 C 2,5 C 43,5 km/h (6 Bft) 98,08 %
29.10.2017 14:49 9,9 C 9,4 C 67 % 1005,0 hPa 0,0 l/m 23,7 km/h (4 Bft) W 266 1 min 0,000 mm 0,1 UV-I 260 W/m 4,1 C 2,0 C 37,0 km/h (5 Bft) 100,00 %
29.10.2017 14:50 10,0 C 9,4 C 67 % 1005,0 hPa 0,0 l/m 18,1 km/h (3 Bft) NW 311 1 min 0,000 mm 0,5 UV-I 256 W/m 4,2 C 3,9 C 25,7 km/h (4 Bft) 96,30 %
29.10.2017 14:51 10,0 C 9,4 C 67 % 1005,1 hPa 0,0 l/m 23,1 km/h (4 Bft) W-SW 256 1 min 0,000 mm 0,5 UV-I 245 W/m 4,2 C 2,3 C 35,4 km/h (5 Bft) 100,00 %
29.10.2017 14:52 10,0 C 9,4 C 66 % 1005,2 hPa 0,0 l/m 20,5 km/h (4 Bft) W-SW 245 1 min 0,000 mm 0,5 UV-I 245 W/m 3,9 C 3,1 C 30,6 km/h (5 Bft) 100,00 %
29.10.2017 14:53 10,0 C 9,4 C 66 % 1005,1 hPa 0,0 l/m 18,7 km/h (3 Bft) W-SW 248 1 min 0,000 mm 0,5 UV-I 246 W/m 3,9 C 3,7 C 25,7 km/h (4 Bft) 100,00 %
29.10.2017 14:54 10,1 C 9,4 C 65 % 1005,3 hPa 0,0 l/m 24,7 km/h (4 Bft) W-NW 288 1 min 0,000 mm 0,1 UV-I 243 W/m 3,8 C 2,0 C 41,8 km/h (6 Bft) 100,00 %
29.10.2017 14:55 10,1 C 9,4 C 64 % 1005,2 hPa 0,0 l/m 26,1 km/h (4 Bft) W-NW 284 1 min 0,000 mm 0,4 UV-I 229 W/m 3,6 C 1,7 C 40,2 km/h (6 Bft) 100,00 %
29.10.2017 14:56 10,1 C 9,4 C 62 % 1005,1 hPa 0,0 l/m 26,2 km/h (4 Bft) W 277 1 min 0,000 mm 0,0 UV-I 161 W/m 3,2 C 1,7 C 41,8 km/h (6 Bft) 100,00 %
29.10.2017 14:57 10,1 C 9,4 C 62 % 1005,1 hPa 0,0 l/m 19,0 km/h (3 Bft) W-SW 253 0 min 0,000 mm 0,0 UV-I 44 W/m 3,2 C 3,7 C 27,4 km/h (4 Bft) 100,00 %
29.10.2017 14:58 10,0 C 9,4 C 62 % 1005,4 hPa 0,0 l/m 12,1 km/h (2 Bft) W 268 0 min 0,000 mm 0,0 UV-I 47 W/m 3,1 C 6,5 C 20,9 km/h (4 Bft) 100,00 %
29.10.2017 14:59 10,0 C 9,4 C 62 % 1005,4 hPa 0,0 l/m 16,0 km/h (3 Bft) W-SW 255 0 min 0,000 mm 0,0 UV-I 55 W/m 3,1 C 4,7 C 22,5 km/h (4 Bft) 100,00 %
29.10.2017 15:00 9,9 C 9,4 C 62 % 1005,2 hPa 0,0 l/m 15,3 km/h (3 Bft) W-NW 292 0 min 0,000 mm 0,0 UV-I 61 W/m 3,0 C 4,9 C 22,5 km/h (4 Bft) 96,30 %
29.10.2017 15:01 9,9 C 9,4 C 62 % 1005,3 hPa 0,0 l/m 19,8 km/h (3 Bft) W-SW 245 0 min 0,127 mm 0,0 UV-I 64 W/m 3,0 C 3,2 C 29,0 km/h (5 Bft) 95,65 %
29.10.2017 15:02 9,9 C 9,4 C 61 % 1005,3 hPa 0,0 l/m 14,9 km/h (3 Bft) W-NW 295 0 min 0,000 mm 0,0 UV-I 66 W/m 2,7 C 5,1 C 20,9 km/h (4 Bft) 100,00 %
29.10.2017 15:03 9,9 C 9,4 C 61 % 1005,3 hPa 0,0 l/m 13,1 km/h (3 Bft) NW 318 0 min 0,000 mm 0,0 UV-I 69 W/m 2,7 C 5,9 C 25,7 km/h (4 Bft) 95,65 %
29.10.2017 15:04 9,8 C 9,4 C 61 % 1005,4 hPa 0,0 l/m 19,9 km/h (4 Bft) W-SW 254 0 min 0,000 mm 0,0 UV-I 79 W/m 2,6 C 3,1 C 29,0 km/h (5 Bft) 95,83 %
29.10.2017 15:05 9,8 C 9,4 C 61 % 1005,5 hPa 0,0 l/m 17,2 km/h (3 Bft) W 263 0 min 0,000 mm 0,0 UV-I 83 W/m 2,6 C 4,0 C 22,5 km/h (4 Bft) 100,00 %
29.10.2017 15:06 9,8 C 9,4 C 62 % 1005,5 hPa 0,0 l/m 21,4 km/h (4 Bft) W-NW 286 0 min 0,000 mm 0,0 UV-I 83 W/m 2,9 C 2,6 C 41,8 km/h (6 Bft) 100,00 %
29.10.2017 15:07 9,8 C 9,4 C 62 % 1005,5 hPa 0,0 l/m 17,1 km/h (3 Bft) W 275 0 min 0,000 mm 0,0 UV-I 83 W/m 2,9 C 4,1 C 25,7 km/h (4 Bft) 100,00 %
29.10.2017 15:08 9,8 C 9,4 C 63 % 1005,5 hPa 0,0 l/m 25,8 km/h (4 Bft) W 276 0 min 0,000 mm 0,0 UV-I 81 W/m 3,1 C 1,4 C 37,0 km/h (5 Bft) 100,00 %
29.10.2017 15:09 9,8 C 9,4 C 62 % 1005,6 hPa 0,0 l/m 19,8 km/h (3 Bft) SW 227 0 min 0,000 mm 0,0 UV-I 74 W/m 2,9 C 3,1 C 33,8 km/h (5 Bft) 100,00 %
29.10.2017 15:10 9,8 C 9,4 C 62 % 1005,6 hPa 0,0 l/m 17,7 km/h (3 Bft) W-SW 253 0 min 0,000 mm 0,0 UV-I 63 W/m 2,9 C 3,8 C 24,1 km/h (4 Bft) 100,00 %
29.10.2017 15:11 9,8 C 9,4 C 63 % 1005,7 hPa 0,0 l/m 17,5 km/h (3 Bft) W 275 0 min 0,000 mm 0,0 UV-I 70 W/m 3,1 C 3,9 C 40,2 km/h (6 Bft) 100,00 %
29.10.2017 15:12 9,8 C 9,4 C 64 % 1005,7 hPa 0,0 l/m 20,4 km/h (4 Bft) W 259 0 min 0,000 mm 0,0 UV-I 86 W/m 3,3 C 2,9 C 27,4 km/h (4 Bft) 100,00 %
29.10.2017 15:13 9,8 C 9,4 C 64 % 1005,7 hPa 0,0 l/m 14,5 km/h (3 Bft) W-NW 291 0 min 0,000 mm 0,0 UV-I 100 W/m 3,3 C 5,1 C 20,9 km/h (4 Bft) 100,00 %
29.10.2017 15:14 9,8 C 9,4 C 64 % 1005,6 hPa 0,0 l/m 17,6 km/h (3 Bft) W 278 0 min 0,000 mm 0,0 UV-I 115 W/m 3,3 C 3,9 C 33,8 km/h (5 Bft) 100,00 %
29.10.2017 15:15 9,8 C 9,4 C 65 % 1005,8 hPa 0,0 l/m 20,5 km/h (4 Bft) W-SW 258 0 min 0,000 mm 0,0 UV-I 117 W/m 3,5 C 2,9 C 29,0 km/h (5 Bft) 100,00 %
29.10.2017 15:16 9,8 C 9,4 C 65 % 1005,7 hPa 0,0 l/m 25,0 km/h (4 Bft) SW 235 0 min 0,000 mm 0,0 UV-I 110 W/m 3,5 C 1,6 C 37,0 km/h (5 Bft) 100,00 %
29.10.2017 15:17 9,8 C 9,4 C 64 % 1005,8 hPa 0,0 l/m 30,3 km/h (5 Bft) W-NW 285 0 min 0,000 mm 0,0 UV-I 111 W/m 3,3 C 0,3 C 41,8 km/h (6 Bft) 100,00 %
29.10.2017 15:18 9,8 C 9,4 C 64 % 1005,6 hPa 0,0 l/m 15,6 km/h (3 Bft) W 259 1 min 0,000 mm 0,0 UV-I 176 W/m 3,3 C 4,6 C 24,1 km/h (4 Bft) 100,00 %
29.10.2017 15:19 9,8 C 9,4 C 65 % 1005,8 hPa 0,0 l/m 18,2 km/h (3 Bft) W-SW 254 0 min 0,000 mm 0,0 UV-I 97 W/m 3,5 C 3,6 C 32,2 km/h (5 Bft) 100,00 %
29.10.2017 15:20 9,9 C 9,4 C 64 % 1005,7 hPa 0,0 l/m 22,9 km/h (4 Bft) W-SW 254 0 min 0,000 mm 0,0 UV-I 90 W/m 3,4 C 2,3 C 32,2 km/h (5 Bft) 95,65 %
29.10.2017 15:21 9,9 C 9,4 C 63 % 1005,9 hPa 0,0 l/m 26,6 km/h (4 Bft) W 262 0 min 0,000 mm 0,0 UV-I 79 W/m 3,2 C 1,3 C 45,1 km/h (6 Bft) 100,00 %
29.10.2017 15:22 9,9 C 9,4 C 64 % 1005,7 hPa 0,0 l/m 20,2 km/h (4 Bft) NW 304 0 min 0,000 mm 0,0 UV-I 68 W/m 3,4 C 3,1 C 40,2 km/h (6 Bft) 100,00 %
29.10.2017 15:23 9,9 C 9,4 C 63 % 1005,9 hPa 0,0 l/m 26,1 km/h (4 Bft) W-NW 282 0 min 0,000 mm 0,0 UV-I 81 W/m 3,2 C 1,4 C 35,4 km/h (5 Bft) 100,00 %
29.10.2017 15:24 9,9 C 9,4 C 63 % 1005,9 hPa 0,0 l/m 15,2 km/h (3 Bft) W-SW 244 1 min 0,000 mm 0,0 UV-I 156 W/m 3,2 C 4,9 C 24,1 km/h (4 Bft) 100,00 %
29.10.2017 15:25 9,9 C 9,4 C 63 % 1005,8 hPa 0,0 l/m 18,6 km/h (3 Bft) W 281 1 min 0,000 mm 0,0 UV-I 178 W/m 3,2 C 3,6 C 32,2 km/h (5 Bft) 100,00 %
29.10.2017 15:26 9,9 C 9,4 C 63 % 1006,0 hPa 0,0 l/m 21,0 km/h (4 Bft) W-SW 256 1 min 0,000 mm 0,0 UV-I 140 W/m 3,2 C 2,8 C 29,0 km/h (5 Bft) 100,00 %
29.10.2017 15:27 9,9 C 9,4 C 63 % 1006,0 hPa 0,0 l/m 17,6 km/h (3 Bft) W-SW 248 1 min 0,000 mm 0,0 UV-I 159 W/m 3,2 C 4,0 C 25,7 km/h (4 Bft) 100,00 %
29.10.2017 15:28 9,9 C 9,4 C 64 % 1006,2 hPa 0,0 l/m 18,9 km/h (3 Bft) W 267 1 min 0,000 mm 0,0 UV-I 138 W/m 3,4 C 3,5 C 32,2 km/h (5 Bft) 100,00 %
29.10.2017 15:29 9,9 C 9,4 C 64 % 1006,1 hPa 0,0 l/m 21,2 km/h (4 Bft) W 267 0 min 0,000 mm 0,0 UV-I 92 W/m 3,4 C 2,8 C 35,4 km/h (5 Bft) 100,00 %
29.10.2017 15:30 9,9 C 9,4 C 63 % 1006,1 hPa 0,0 l/m 26,0 km/h (4 Bft) W 261 1 min 0,000 mm 0,0 UV-I 113 W/m 3,2 C 1,4 C 43,5 km/h (6 Bft) 100,00 %
29.10.2017 15:31 9,9 C 9,4 C 63 % 1006,1 hPa 0,0 l/m 25,7 km/h (4 Bft) W-SW 248 1 min 0,000 mm 0,0 UV-I 134 W/m 3,2 C 1,5 C 48,3 km/h (6 Bft) 95,83 %
29.10.2017 15:32 9,9 C 9,4 C 62 % 1006,0 hPa 0,0 l/m 22,8 km/h (4 Bft) W 259 1 min 0,000 mm 0,0 UV-I 110 W/m 3,0 C 2,3 C 35,4 km/h (5 Bft) 100,00 %
29.10.2017 15:33 9,9 C 9,4 C 62 % 1006,2 hPa 0,0 l/m 20,3 km/h (4 Bft) W-SW 247 0 min 0,000 mm 0,0 UV-I 92 W/m 3,0 C 3,1 C 27,4 km/h (4 Bft) 100,00 %
29.10.2017 15:34 9,9 C 9,4 C 62 % 1006,2 hPa 0,0 l/m 17,2 km/h (3 Bft) W-SW 249 1 min 0,000 mm 0,0 UV-I 151 W/m 3,0 C 4,1 C 22,5 km/h (4 Bft) 100,00 %
29.10.2017 15:35 9,9 C 9,4 C 63 % 1006,3 hPa 0,0 l/m 22,0 km/h (4 Bft) W-SW 246 1 min 0,000 mm 0,0 UV-I 186 W/m 3,2 C 2,5 C 30,6 km/h (5 Bft) 100,00 %
29.10.2017 15:36 9,9 C 9,4 C 63 % 1006,2 hPa 0,0 l/m 26,9 km/h (4 Bft) W 263 1 min 0,000 mm 0,0 UV-I 189 W/m 3,2 C 1,2 C 37,0 km/h (5 Bft) 100,00 %
29.10.2017 15:37 9,9 C 9,4 C 63 % 1006,3 hPa 0,0 l/m 16,5 km/h (3 Bft) W 260 1 min 0,000 mm 0,0 UV-I 186 W/m 3,2 C 4,4 C 27,4 km/h (4 Bft) 100,00 %
29.10.2017 15:38 9,9 C 9,4 C 63 % 1006,5 hPa 0,0 l/m 17,1 km/h (3 Bft) W 273 1 min 0,000 mm 0,0 UV-I 145 W/m 3,2 C 4,2 C 27,4 km/h (4 Bft) 100,00 %
29.10.2017 15:39 9,9 C 9,4 C 62 % 1006,2 hPa 0,0 l/m 17,7 km/h (3 Bft) W 264 1 min 0,000 mm 0,0 UV-I 156 W/m 3,0 C 4,0 C 24,1 km/h (4 Bft) 100,00 %
29.10.2017 15:40 9,9 C 9,4 C 63 % 1006,3 hPa 0,0 l/m 18,5 km/h (3 Bft) W 273 1 min 0,000 mm 0,0 UV-I 165 W/m 3,2 C 3,7 C 22,5 km/h (4 Bft) 96,30 %
29.10.2017 15:41 9,9 C 9,4 C 63 % 1006,3 hPa 0,0 l/m 17,7 km/h (3 Bft) W-SW 244 1 min 0,000 mm 0,0 UV-I 130 W/m 3,2 C 4,0 C 22,5 km/h (4 Bft) 100,00 %
29.10.2017 15:42 9,9 C 9,4 C 64 % 1006,3 hPa 0,0 l/m 25,2 km/h (4 Bft) W 263 0 min 0,000 mm 0,0 UV-I 65 W/m 3,4 C 1,6 C 35,4 km/h (5 Bft) 100,00 %
29.10.2017 15:43 9,9 C 9,4 C 63 % 1006,3 hPa 0,0 l/m 18,3 km/h (3 Bft) W 280 0 min 0,000 mm 0,0 UV-I 82 W/m 3,2 C 3,7 C 30,6 km/h (5 Bft) 100,00 %
29.10.2017 15:44 9,9 C 9,4 C 63 % 1006,2 hPa 0,0 l/m 19,6 km/h (3 Bft) W-SW 247 0 min 0,000 mm 0,0 UV-I 78 W/m 3,2 C 3,3 C 29,0 km/h (5 Bft) 96,30 %
29.10.2017 15:45 9,9 C 9,4 C 63 % 1006,3 hPa 0,0 l/m 20,9 km/h (4 Bft) W-SW 238 0 min 0,000 mm 0,0 UV-I 56 W/m 3,2 C 2,9 C 32,2 km/h (5 Bft) 100,00 %
29.10.2017 15:46 9,8 C 9,4 C 63 % 1006,3 hPa 0,0 l/m 34,6 km/h (5 Bft) W-SW 243 0 min 0,000 mm 0,0 UV-I 72 W/m 3,1 C -0,5 C 54,7 km/h (7 Bft) 93,33 %
29.10.2017 15:47 9,8 C 9,4 C 62 % 1006,3 hPa 0,0 l/m 23,7 km/h (4 Bft) W 260 0 min 0,000 mm 0,0 UV-I 75 W/m 2,9 C 1,9 C 38,6 km/h (5 Bft) 100,00 %
29.10.2017 15:48 9,8 C 9,4 C 62 % 1006,4 hPa 0,0 l/m 20,6 km/h (4 Bft) W-SW 248 1 min 0,000 mm 0,0 UV-I 83 W/m 2,9 C 2,8 C 41,8 km/h (6 Bft) 96,55 %
29.10.2017 15:49 9,8 C 9,4 C 62 % 1006,4 hPa 0,0 l/m 25,9 km/h (4 Bft) W 263 0 min 0,000 mm 0,0 UV-I 49 W/m 2,9 C 1,3 C 48,3 km/h (6 Bft) 96,15 %
29.10.2017 15:50 9,8 C 9,4 C 61 % 1006,5 hPa 0,0 l/m 23,6 km/h (4 Bft) W-SW 250 0 min 0,000 mm 0,0 UV-I 55 W/m 2,6 C 1,9 C 33,8 km/h (5 Bft) 100,00 %
29.10.2017 15:51 9,8 C 9,4 C 61 % 1006,3 hPa 0,0 l/m 21,6 km/h (4 Bft) SW 231 1 min 0,000 mm 0,0 UV-I 101 W/m 2,6 C 2,5 C 29,0 km/h (5 Bft) 100,00 %
29.10.2017 15:52 9,8 C 9,4 C 61 % 1006,4 hPa 0,0 l/m 16,4 km/h (3 Bft) W-SW 245 1 min 0,000 mm 0,0 UV-I 120 W/m 2,6 C 4,3 C 25,7 km/h (4 Bft) 96,88 %
29.10.2017 15:53 9,7 C 9,4 C 61 % 1006,4 hPa 0,0 l/m 16,3 km/h (3 Bft) W-SW 248 1 min 0,000 mm 0,0 UV-I 116 W/m 2,5 C 4,2 C 20,9 km/h (4 Bft) 100,00 %
29.10.2017 15:54 9,7 C 9,4 C 62 % 1006,6 hPa 0,0 l/m 26,4 km/h (4 Bft) W 276 1 min 0,000 mm 0,0 UV-I 111 W/m 2,8 C 1,1 C 38,6 km/h (5 Bft) 96,88 %
29.10.2017 15:55 9,7 C 9,4 C 62 % 1006,5 hPa 0,0 l/m 22,3 km/h (4 Bft) SW 235 1 min 0,000 mm 0,0 UV-I 83 W/m 2,8 C 2,2 C 33,8 km/h (5 Bft) 96,30 %
29.10.2017 15:56 9,7 C 9,4 C 62 % 1006,5 hPa 0,0 l/m 25,6 km/h (4 Bft) W-NW 284 1 min 0,000 mm 0,0 UV-I 77 W/m 2,8 C 1,3 C 38,6 km/h (5 Bft) 100,00 %
29.10.2017 15:57 9,7 C 9,4 C 62 % 1006,6 hPa 0,0 l/m 22,6 km/h (4 Bft) W-SW 258 1 min 0,000 mm 0,0 UV-I 105 W/m 2,8 C 2,1 C 41,8 km/h (6 Bft) 93,33 %
29.10.2017 15:58 9,7 C 9,4 C 62 % 1006,5 hPa 0,0 l/m 25,7 km/h (4 Bft) W 259 1 min 0,000 mm 0,0 UV-I 107 W/m 2,8 C 1,2 C 43,5 km/h (6 Bft) 97,56 %
29.10.2017 15:59 9,7 C 9,4 C 62 % 1006,7 hPa 0,0 l/m 23,7 km/h (4 Bft) W-SW 256 1 min 0,000 mm 0,0 UV-I 108 W/m 2,8 C 1,8 C 30,6 km/h (5 Bft) 91,67 %
29.10.2017 16:00 9,7 C 9,4 C 62 % 1006,7 hPa 0,0 l/m 27,7 km/h (4 Bft) W-SW 252 1 min 0,000 mm 0,0 UV-I 108 W/m 2,8 C 0,8 C 48,3 km/h (6 Bft) 96,88 %
29.10.2017 16:01 9,7 C 9,4 C 61 % 1006,6 hPa 0,0 l/m 29,3 km/h (5 Bft) W-NW 288 1 min 0,127 mm 0,0 UV-I 106 W/m 2,5 C 0,4 C 41,8 km/h (6 Bft) 100,00 %
29.10.2017 16:02 9,7 C 9,4 C 62 % 1006,7 hPa 0,0 l/m 19,0 km/h (3 Bft) W-SW 254 1 min 0,000 mm 0,0 UV-I 104 W/m 2,8 C 3,2 C 25,7 km/h (4 Bft) 95,65 %
29.10.2017 16:03 9,7 C 9,4 C 62 % 1006,7 hPa 0,0 l/m 22,2 km/h (4 Bft) W-SW 252 1 min 0,000 mm 0,0 UV-I 68 W/m 2,8 C 2,2 C 33,8 km/h (5 Bft) 95,83 %
29.10.2017 16:04 9,7 C 9,4 C 62 % 1006,8 hPa 0,0 l/m 24,2 km/h (4 Bft) W-SW 257 1 min 0,000 mm 0,0 UV-I 98 W/m 2,8 C 1,6 C 32,2 km/h (5 Bft) 96,15 %
29.10.2017 16:05 9,7 C 9,4 C 62 % 1006,8 hPa 0,0 l/m 26,9 km/h (4 Bft) NW 321 1 min 0,000 mm 0,0 UV-I 101 W/m 2,8 C 0,9 C 35,4 km/h (5 Bft) 95,83 %
29.10.2017 16:06 9,7 C 9,4 C 62 % 1006,8 hPa 0,0 l/m 18,5 km/h (3 Bft) W 276 1 min 0,000 mm 0,0 UV-I 97 W/m 2,8 C 3,4 C 27,4 km/h (4 Bft) 93,33 %
29.10.2017 16:07 9,7 C 9,4 C 62 % 1006,8 hPa 0,0 l/m 22,4 km/h (4 Bft) W 277 1 min 0,000 mm 0,0 UV-I 92 W/m 2,8 C 2,2 C 32,2 km/h (5 Bft) 100,00 %
29.10.2017 16:08 9,7 C 9,4 C 62 % 1006,8 hPa 0,0 l/m 23,1 km/h (4 Bft) W-SW 257 1 min 0,000 mm 0,0 UV-I 90 W/m 2,8 C 1,9 C 37,0 km/h (5 Bft) 94,44 %
29.10.2017 16:09 9,7 C 9,4 C 63 % 1006,8 hPa 0,0 l/m 21,2 km/h (4 Bft) W-SW 256 1 min 0,000 mm 0,0 UV-I 80 W/m 3,0 C 2,5 C 27,4 km/h (4 Bft) 96,15 %
29.10.2017 16:10 9,6 C 9,4 C 63 % 1006,8 hPa 0,0 l/m 17,3 km/h (3 Bft) W 274 1 min 0,000 mm 0,0 UV-I 82 W/m 2,9 C 3,7 C 25,7 km/h (4 Bft) 96,30 %
29.10.2017 16:11 9,6 C 9,4 C 63 % 1006,8 hPa 0,0 l/m 16,7 km/h (3 Bft) SW 232 1 min 0,000 mm 0,0 UV-I 78 W/m 2,9 C 4,0 C 24,1 km/h (4 Bft) 100,00 %
29.10.2017 16:12 9,6 C 9,4 C 63 % 1006,9 hPa 0,0 l/m 19,8 km/h (3 Bft) W 273 1 min 0,000 mm 0,0 UV-I 72 W/m 2,9 C 2,8 C 25,7 km/h (4 Bft) 93,33 %
29.10.2017 16:13 9,6 C 9,4 C 63 % 1006,9 hPa 0,0 l/m 19,4 km/h (3 Bft) W 259 1 min 0,000 mm 0,0 UV-I 47 W/m 2,9 C 3,0 C 27,4 km/h (4 Bft) 96,15 %
29.10.2017 16:14 9,6 C 9,4 C 63 % 1007,0 hPa 0,0 l/m 22,8 km/h (4 Bft) W 261 0 min 0,000 mm 0,0 UV-I 32 W/m 2,9 C 1,9 C 35,4 km/h (5 Bft) 96,30 %
29.10.2017 16:15 9,5 C 9,4 C 63 % 1006,9 hPa 0,0 l/m 28,4 km/h (4 Bft) W 260 1 min 0,000 mm 0,0 UV-I 61 W/m 2,8 C 0,3 C 43,5 km/h (6 Bft) 92,31 %
29.10.2017 16:16 9,5 C 9,4 C 62 % 1006,8 hPa 0,0 l/m 23,3 km/h (4 Bft) W-SW 245 0 min 0,000 mm 0,0 UV-I 41 W/m 2,6 C 1,6 C 40,2 km/h (6 Bft) 100,00 %
29.10.2017 16:17 9,5 C 9,4 C 63 % 1006,9 hPa 0,0 l/m 28,5 km/h (4 Bft) W 269 1 min 0,000 mm 0,0 UV-I 54 W/m 2,8 C 0,3 C 40,2 km/h (6 Bft) 89,66 %
29.10.2017 16:18 9,5 C 9,4 C 62 % 1006,8 hPa 0,0 l/m 26,5 km/h (4 Bft) W 259 1 min 0,000 mm 0,0 UV-I 44 W/m 2,6 C 0,8 C 40,2 km/h (6 Bft) 96,30 %
29.10.2017 16:19 9,5 C 9,4 C 62 % 1006,9 hPa 0,0 l/m 23,7 km/h (4 Bft) W 268 1 min 0,000 mm 0,0 UV-I 46 W/m 2,6 C 1,5 C 37,0 km/h (5 Bft) 94,12 %
29.10.2017 16:20 9,5 C 9,4 C 62 % 1006,8 hPa 0,0 l/m 22,8 km/h (4 Bft) W-SW 244 1 min 0,000 mm 0,0 UV-I 51 W/m 2,6 C 1,8 C 35,4 km/h (5 Bft) 100,00 %
29.10.2017 16:22 9,5 C 9,4 C 62 % 1006,9 hPa 0,0 l/m 21,3 km/h (4 Bft) W 262 2 min 0,000 mm 0,0 UV-I 51 W/m 2,6 C 2,2 C 41,8 km/h (6 Bft) 97,73 %
29.10.2017 16:24 9,5 C 9,4 C 62 % 1006,9 hPa 0,0 l/m 21,0 km/h (4 Bft) W 261 2 min 0,000 mm 0,0 UV-I 45 W/m 2,6 C 2,3 C 30,6 km/h (5 Bft) 96,43 %
29.10.2017 16:26 9,4 C 9,4 C 63 % 1006,9 hPa 0,0 l/m 17,0 km/h (3 Bft) W 263 2 min 0,000 mm 0,0 UV-I 30 W/m 2,7 C 3,6 C 30,6 km/h (5 Bft) 96,55 %
29.10.2017 16:28 9,4 C 9,4 C 62 % 1006,9 hPa 0,0 l/m 26,3 km/h (4 Bft) W-SW 248 2 min 0,000 mm 0,0 UV-I 27 W/m 2,5 C 0,7 C 33,8 km/h (5 Bft) 98,00 %
29.10.2017 16:30 9,4 C 9,4 C 63 % 1007,0 hPa 0,0 l/m 21,1 km/h (4 Bft) W-SW 255 2 min 0,000 mm 0,0 UV-I 24 W/m 2,7 C 2,2 C 33,8 km/h (5 Bft) 94,92 %
29.10.2017 16:32 9,4 C 9,4 C 62 % 1007,0 hPa 0,0 l/m 27,4 km/h (4 Bft) W-SW 250 2 min 0,000 mm 0,0 UV-I 19 W/m 2,5 C 0,4 C 43,5 km/h (6 Bft) 98,00 %
29.10.2017 16:34 9,3 C 9,4 C 62 % 1007,0 hPa 0,0 l/m 26,2 km/h (4 Bft) W 268 0 min 0,000 mm 0,0 UV-I 14 W/m 2,4 C 0,6 C 43,5 km/h (6 Bft) 94,29 %
29.10.2017 16:36 9,3 C 9,4 C 61 % 1006,9 hPa 0,0 l/m 42,6 km/h (6 Bft) W 277 0 min 0,000 mm 0,0 UV-I 12 W/m 2,2 C -2,5 C 67,6 km/h (8 Bft) 94,00 %
29.10.2017 16:38 9,4 C 9,4 C 61 % 1007,2 hPa 0,0 l/m 27,2 km/h (4 Bft) W-NW 285 2 min 0,000 mm 0,0 UV-I 11 W/m 2,3 C 0,5 C 48,3 km/h (6 Bft) 97,87 %
29.10.2017 16:40 9,4 C 9,4 C 61 % 1007,3 hPa 0,0 l/m 23,2 km/h (4 Bft) NW 305 0 min 0,000 mm 0,0 UV-I 11 W/m 2,3 C 1,5 C 45,1 km/h (6 Bft) 98,00 %
29.10.2017 16:42 9,4 C 9,4 C 60 % 1007,3 hPa 0,0 l/m 29,1 km/h (5 Bft) NW 309 0 min 0,000 mm 0,0 UV-I 11 W/m 2,0 C 0,0 C 53,1 km/h (7 Bft) 98,11 %
29.10.2017 16:44 9,4 C 9,4 C 61 % 1007,5 hPa 0,0 l/m 20,8 km/h (4 Bft) W-NW 284 0 min 0,000 mm 0,0 UV-I 9 W/m 2,3 C 2,2 C 41,8 km/h (6 Bft) 95,74 %
29.10.2017 16:46 9,3 C 9,4 C 62 % 1007,4 hPa 0,0 l/m 21,3 km/h (4 Bft) W 261 0 min 0,000 mm 0,0 UV-I 9 W/m 2,4 C 2,0 C 35,4 km/h (5 Bft) 95,74 %
29.10.2017 16:48 9,3 C 9,4 C 61 % 1007,6 hPa 0,0 l/m 27,1 km/h (4 Bft) W-SW 250 0 min 0,000 mm 0,0 UV-I 8 W/m 2,2 C 0,3 C 51,5 km/h (7 Bft) 100,00 %
29.10.2017 16:50 9,3 C 9,4 C 62 % 1007,7 hPa 0,0 l/m 20,5 km/h (4 Bft) W-SW 255 0 min 0,000 mm 0,0 UV-I 7 W/m 2,4 C 2,2 C 29,0 km/h (5 Bft) 95,74 %
29.10.2017 16:52 9,3 C 9,4 C 63 % 1007,9 hPa 0,0 l/m 15,0 km/h (3 Bft) W-SW 254 0 min 0,000 mm 0,0 UV-I 7 W/m 2,6 C 4,3 C 22,5 km/h (4 Bft) 100,00 %
29.10.2017 16:54 9,2 C 9,4 C 63 % 1008,0 hPa 0,0 l/m 16,2 km/h (3 Bft) W-SW 240 0 min 0,000 mm 0,0 UV-I 7 W/m 2,5 C 3,7 C 24,1 km/h (4 Bft) 92,45 %
29.10.2017 16:56 9,2 C 9,4 C 63 % 1008,1 hPa 0,0 l/m 23,9 km/h (4 Bft) W 264 0 min 0,000 mm 0,0 UV-I 7 W/m 2,5 C 1,1 C 40,2 km/h (6 Bft) 97,56 %
29.10.2017 16:58 9,1 C 9,4 C 63 % 1008,1 hPa 0,0 l/m 22,4 km/h (4 Bft) W-NW 284 0 min 0,000 mm 0,0 UV-I 6 W/m 2,4 C 1,4 C 32,2 km/h (5 Bft) 92,00 %
29.10.2017 17:00 9,1 C 9,4 C 63 % 1008,2 hPa 0,0 l/m 22,8 km/h (4 Bft) W 272 0 min 0,101 mm 0,0 UV-I 5 W/m 2,4 C 1,2 C 40,2 km/h (6 Bft) 96,23 %
29.10.2017 17:02 9,1 C 9,4 C 63 % 1008,2 hPa 0,0 l/m 15,6 km/h (3 Bft) W-NW 298 0 min 0,000 mm 0,0 UV-I 5 W/m 2,4 C 3,8 C 20,9 km/h (4 Bft) 95,74 %
29.10.2017 17:04 9,1 C 9,4 C 63 % 1008,4 hPa 0,0 l/m 17,1 km/h (3 Bft) W-SW 250 0 min 0,000 mm 0,0 UV-I 5 W/m 2,4 C 3,2 C 25,7 km/h (4 Bft) 94,29 %
29.10.2017 17:06 9,0 C 9,4 C 64 % 1008,5 hPa 0,0 l/m 16,2 km/h (3 Bft) W-NW 294 0 min 0,000 mm 0,0 UV-I 1 W/m 2,6 C 3,4 C 29,0 km/h (5 Bft) 98,31 %
29.10.2017 17:08 9,0 C 9,4 C 64 % 1008,4 hPa 0,0 l/m 21,0 km/h (4 Bft) W 266 0 min 0,000 mm 0,0 UV-I 0 W/m 2,6 C 1,7 C 40,2 km/h (6 Bft) 96,00 %
29.10.2017 17:10 8,9 C 9,4 C 64 % 1008,5 hPa 0,0 l/m 15,9 km/h (3 Bft) W-SW 242 0 min 0,000 mm 0,0 UV-I 0 W/m 2,5 C 3,4 C 27,4 km/h (4 Bft) 97,37 %
29.10.2017 17:12 8,9 C 9,4 C 65 % 1008,5 hPa 0,0 l/m 17,1 km/h (3 Bft) W 277 0 min 0,000 mm 0,0 UV-I 0 W/m 2,7 C 2,9 C 25,7 km/h (4 Bft) 96,23 %
29.10.2017 17:14 8,9 C 9,4 C 64 % 1008,6 hPa 0,0 l/m 18,4 km/h (3 Bft) W 267 0 min 0,000 mm 0,0 UV-I 0 W/m 2,5 C 2,4 C 29,0 km/h (5 Bft) 97,56 %
29.10.2017 17:16 8,9 C 9,4 C 64 % 1008,6 hPa 0,0 l/m 19,9 km/h (4 Bft) W-SW 240 0 min 0,000 mm 0,0 UV-I 0 W/m 2,5 C 1,9 C 29,0 km/h (5 Bft) 98,00 %
29.10.2017 17:18 8,9 C 9,4 C 65 % 1008,6 hPa 0,0 l/m 15,6 km/h (3 Bft) W 273 0 min 0,000 mm 0,0 UV-I 0 W/m 2,7 C 3,5 C 24,1 km/h (4 Bft) 97,87 %
29.10.2017 17:20 8,9 C 9,4 C 65 % 1008,7 hPa 0,0 l/m 13,9 km/h (3 Bft) W-SW 257 0 min 0,000 mm 0,0 UV-I 0 W/m 2,7 C 4,3 C 32,2 km/h (5 Bft) 100,00 %
29.10.2017 17:22 8,9 C 9,4 C 65 % 1008,7 hPa 0,0 l/m 13,5 km/h (3 Bft) W-NW 286 0 min 0,000 mm 0,0 UV-I 0 W/m 2,7 C 4,5 C 20,9 km/h (4 Bft) 98,57 %
29.10.2017 17:24 8,9 C 9,4 C 65 % 1008,8 hPa 0,0 l/m 13,9 km/h (3 Bft) W-SW 248 0 min 0,000 mm 0,0 UV-I 0 W/m 2,7 C 4,3 C 24,1 km/h (4 Bft) 97,62 %
29.10.2017 17:26 8,8 C 9,4 C 65 % 1008,8 hPa 0,0 l/m 17,8 km/h (3 Bft) W 273 0 min 0,000 mm 0,0 UV-I 0 W/m 2,6 C 2,5 C 33,8 km/h (5 Bft) 100,00 %
29.10.2017 17:28 8,8 C 9,4 C 65 % 1008,9 hPa 0,0 l/m 14,6 km/h (3 Bft) W-SW 247 0 min 0,000 mm 0,0 UV-I 0 W/m 2,6 C 3,9 C 22,5 km/h (4 Bft) 100,00 %
29.10.2017 17:30 8,7 C 9,4 C 65 % 1008,8 hPa 0,0 l/m 17,7 km/h (3 Bft) W-NW 287 0 min 0,000 mm 0,0 UV-I 0 W/m 2,5 C 2,4 C 27,4 km/h (4 Bft) 100,00 %
29.10.2017 17:32 8,7 C 9,4 C 65 % 1008,9 hPa 0,0 l/m 16,7 km/h (3 Bft) W 259 0 min 0,000 mm 0,0 UV-I 0 W/m 2,5 C 2,8 C 24,1 km/h (4 Bft) 98,11 %
29.10.2017 17:34 8,7 C 9,4 C 65 % 1008,9 hPa 0,0 l/m 19,4 km/h (3 Bft) W 268 0 min 0,000 mm 0,0 UV-I 0 W/m 2,5 C 1,8 C 25,7 km/h (4 Bft) 100,00 %
29.10.2017 17:36 8,7 C 9,4 C 65 % 1009,0 hPa 0,0 l/m 19,6 km/h (3 Bft) W 269 0 min 0,000 mm 0,0 UV-I 0 W/m 2,5 C 1,7 C 29,0 km/h (5 Bft) 100,00 %
29.10.2017 17:38 8,6 C 9,4 C 65 % 1009,0 hPa 0,0 l/m 15,7 km/h (3 Bft) W-SW 258 0 min 0,000 mm 0,0 UV-I 0 W/m 2,4 C 3,1 C 24,1 km/h (4 Bft) 100,00 %
29.10.2017 17:40 8,6 C 9,4 C 65 % 1009,0 hPa 0,0 l/m 15,9 km/h (3 Bft) W-SW 248 0 min 0,000 mm 0,0 UV-I 0 W/m 2,4 C 3,0 C 22,5 km/h (4 Bft) 97,37 %
29.10.2017 17:42 8,6 C 9,4 C 65 % 1009,1 hPa 0,0 l/m 16,8 km/h (3 Bft) W-SW 247 0 min 0,000 mm 0,0 UV-I 0 W/m 2,4 C 2,7 C 27,4 km/h (4 Bft) 98,00 %
29.10.2017 17:44 8,5 C 9,4 C 65 % 1009,1 hPa 0,0 l/m 19,1 km/h (3 Bft) W-SW 239 0 min 0,000 mm 0,0 UV-I 0 W/m 2,3 C 1,7 C 32,2 km/h (5 Bft) 100,00 %
29.10.2017 17:46 8,5 C 9,4 C 65 % 1009,2 hPa 0,0 l/m 15,0 km/h (3 Bft) W 263 0 min 0,000 mm 0,0 UV-I 0 W/m 2,3 C 3,3 C 25,7 km/h (4 Bft) 100,00 %
29.10.2017 17:48 8,4 C 9,4 C 65 % 1009,3 hPa 0,0 l/m 21,8 km/h (4 Bft) W-SW 248 0 min 0,000 mm 0,0 UV-I 0 W/m 2,2 C 0,6 C 33,8 km/h (5 Bft) 100,00 %
29.10.2017 17:50 8,4 C 9,4 C 65 % 1009,3 hPa 0,0 l/m 17,5 km/h (3 Bft) W-NW 285 0 min 0,000 mm 0,0 UV-I 0 W/m 2,2 C 2,1 C 24,1 km/h (4 Bft) 97,56 %
29.10.2017 17:52 8,4 C 9,4 C 66 % 1009,5 hPa 0,0 l/m 17,8 km/h (3 Bft) W 260 0 min 0,000 mm 0,0 UV-I 0 W/m 2,4 C 2,0 C 25,7 km/h (4 Bft) 98,11 %
29.10.2017 17:54 8,4 C 9,4 C 66 % 1009,5 hPa 0,0 l/m 20,4 km/h (4 Bft) W-SW 258 0 min 0,000 mm 0,0 UV-I 0 W/m 2,4 C 1,1 C 30,6 km/h (5 Bft) 97,73 %
29.10.2017 17:56 8,4 C 9,4 C 66 % 1009,5 hPa 0,0 l/m 17,4 km/h (3 Bft) W-SW 254 0 min 0,000 mm 0,0 UV-I 0 W/m 2,4 C 2,2 C 29,0 km/h (5 Bft) 97,56 %
29.10.2017 17:58 8,4 C 9,4 C 66 % 1009,6 hPa 0,0 l/m 17,5 km/h (3 Bft) W-SW 249 0 min 0,000 mm 0,0 UV-I 0 W/m 2,4 C 2,1 C 27,4 km/h (4 Bft) 94,34 %
29.10.2017 18:00 8,4 C 9,4 C 66 % 1009,5 hPa 0,0 l/m 18,7 km/h (3 Bft) W 266 0 min 0,076 mm 0,0 UV-I 0 W/m 2,4 C 1,7 C 27,4 km/h (4 Bft) 94,34 %
29.10.2017 18:02 8,4 C 9,4 C 66 % 1009,7 hPa 0,0 l/m 15,1 km/h (3 Bft) W 271 0 min 0,000 mm 0,0 UV-I 0 W/m 2,4 C 3,2 C 22,5 km/h (4 Bft) 97,87 %
29.10.2017 18:04 8,4 C 9,4 C 66 % 1009,8 hPa 0,0 l/m 21,7 km/h (4 Bft) W-SW 240 0 min 0,000 mm 0,0 UV-I 0 W/m 2,4 C 0,7 C 30,6 km/h (5 Bft) 97,73 %
29.10.2017 18:06 8,5 C 9,4 C 65 % 1009,7 hPa 0,0 l/m 19,6 km/h (3 Bft) W-SW 254 0 min 0,000 mm 0,0 UV-I 0 W/m 2,3 C 1,5 C 30,6 km/h (5 Bft) 95,24 %
29.10.2017 18:08 8,5 C 9,4 C 65 % 1009,8 hPa 0,0 l/m 21,4 km/h (4 Bft) W 265 0 min 0,000 mm 0,0 UV-I 0 W/m 2,3 C 0,9 C 30,6 km/h (5 Bft) 96,23 %
29.10.2017 18:10 8,5 C 9,4 C 65 % 1009,8 hPa 0,0 l/m 25,0 km/h (4 Bft) W-SW 247 0 min 0,000 mm 0,0 UV-I 0 W/m 2,3 C -0,2 C 37,0 km/h (5 Bft) 97,73 %
29.10.2017 18:12 8,6 C 9,4 C 64 % 1009,9 hPa 0,0 l/m 24,9 km/h (4 Bft) W-SW 255 0 min 0,000 mm 0,0 UV-I 0 W/m 2,2 C -0,0 C 41,8 km/h (6 Bft) 97,73 %
29.10.2017 18:14 8,6 C 9,4 C 63 % 1009,8 hPa 0,0 l/m 25,5 km/h (4 Bft) W 279 0 min 0,000 mm 0,0 UV-I 0 W/m 2,0 C -0,2 C 33,8 km/h (5 Bft) 98,11 %
29.10.2017 18:16 8,6 C 9,4 C 63 % 1009,8 hPa 0,0 l/m 28,7 km/h (4 Bft) W 266 0 min 0,000 mm 0,0 UV-I 0 W/m 2,0 C -1,0 C 53,1 km/h (7 Bft) 97,37 %
29.10.2017 18:19 8,7 C 9,4 C 61 % 1009,8 hPa 0,0 l/m 30,3 km/h (5 Bft) W 260 0 min 0,000 mm 0,0 UV-I 0 W/m 1,6 C -1,2 C 53,1 km/h (7 Bft) 97,14 %
29.10.2017 18:20 8,7 C 9,4 C 61 % 1009,9 hPa 0,0 l/m 28,0 km/h (4 Bft) W-SW 254 0 min 0,000 mm 0,0 UV-I 0 W/m 1,6 C -0,7 C 40,2 km/h (6 Bft) 96,30 %
29.10.2017 18:22 8,7 C 9,4 C 62 % 1009,9 hPa 0,0 l/m 26,8 km/h (4 Bft) W 264 0 min 0,000 mm 0,0 UV-I 0 W/m 1,8 C -0,4 C 41,8 km/h (6 Bft) 97,56 %
29.10.2017 18:24 8,8 C 9,4 C 61 % 1010,2 hPa 0,0 l/m 26,7 km/h (4 Bft) W-SW 251 0 min 0,000 mm 0,0 UV-I 0 W/m 1,7 C -0,2 C 45,1 km/h (6 Bft) 98,11 %
29.10.2017 18:26 8,8 C 9,4 C 62 % 1010,2 hPa 0,0 l/m 18,2 km/h (3 Bft) W 261 0 min 0,000 mm 0,0 UV-I 0 W/m 1,9 C 2,4 C 32,2 km/h (5 Bft) 98,00 %
29.10.2017 18:28 8,8 C 9,4 C 62 % 1010,4 hPa 0,0 l/m 23,6 km/h (4 Bft) W 280 0 min 0,000 mm 0,0 UV-I 0 W/m 1,9 C 0,6 C 41,8 km/h (6 Bft) 100,00 %
29.10.2017 18:30 8,8 C 9,4 C 63 % 1010,3 hPa 0,0 l/m 23,0 km/h (4 Bft) W-SW 254 0 min 0,000 mm 0,0 UV-I 0 W/m 2,2 C 0,8 C 37,0 km/h (5 Bft) 97,37 %
29.10.2017 18:32 8,7 C 9,4 C 65 % 1010,5 hPa 0,0 l/m 22,2 km/h (4 Bft) W-SW 248 0 min 0,000 mm 0,0 UV-I 0 W/m 2,5 C 0,9 C 40,2 km/h (6 Bft) 100,00 %
29.10.2017 18:34 8,6 C 9,4 C 66 % 1010,4 hPa 0,0 l/m 19,0 km/h (3 Bft) W-SW 246 0 min 0,000 mm 0,0 UV-I 0 W/m 2,6 C 1,8 C 32,2 km/h (5 Bft) 100,00 %
29.10.2017 18:36 8,4 C 9,4 C 66 % 1010,5 hPa 0,0 l/m 15,3 km/h (3 Bft) W-NW 295 0 min 0,000 mm 0,0 UV-I 0 W/m 2,4 C 3,1 C 22,5 km/h (4 Bft) 98,21 %
29.10.2017 18:38 8,3 C 9,4 C 66 % 1010,6 hPa 0,0 l/m 17,2 km/h (3 Bft) W 267 0 min 0,000 mm 0,0 UV-I 0 W/m 2,3 C 2,1 C 33,8 km/h (5 Bft) 94,74 %
29.10.2017 18:40 8,3 C 9,4 C 66 % 1010,6 hPa 0,0 l/m 17,2 km/h (3 Bft) W 271 0 min 0,000 mm 0,0 UV-I 0 W/m 2,3 C 2,1 C 29,0 km/h (5 Bft) 100,00 %
29.10.2017 18:42 8,3 C 9,4 C 65 % 1010,4 hPa 0,0 l/m 25,4 km/h (4 Bft) W-NW 301 0 min 0,000 mm 0,0 UV-I 0 W/m 2,1 C -0,6 C 38,6 km/h (5 Bft) 100,00 %
29.10.2017 18:44 8,3 C 9,4 C 65 % 1010,5 hPa 0,0 l/m 25,4 km/h (4 Bft) SW 232 0 min 0,000 mm 0,0 UV-I 0 W/m 2,1 C -0,6 C 38,6 km/h (5 Bft) 100,00 %
29.10.2017 18:46 8,3 C 9,4 C 64 % 1010,6 hPa 0,0 l/m 25,6 km/h (4 Bft) W-SW 246 0 min 0,000 mm 0,0 UV-I 0 W/m 1,9 C -0,6 C 41,8 km/h (6 Bft) 98,11 %
29.10.2017 18:48 8,3 C 9,4 C 64 % 1010,5 hPa 0,0 l/m 26,6 km/h (4 Bft) W-SW 257 0 min 0,000 mm 0,0 UV-I 0 W/m 1,9 C -0,9 C 40,2 km/h (6 Bft) 100,00 %
29.10.2017 18:50 8,3 C 9,4 C 64 % 1010,6 hPa 0,0 l/m 26,9 km/h (4 Bft) W 273 0 min 0,000 mm 0,0 UV-I 0 W/m 1,9 C -1,0 C 38,6 km/h (5 Bft) 100,00 %
29.10.2017 18:52 8,3 C 9,4 C 64 % 1010,6 hPa 0,0 l/m 23,2 km/h (4 Bft) SW 234 0 min 0,000 mm 0,0 UV-I 0 W/m 1,9 C 0,1 C 45,1 km/h (6 Bft) 100,00 %
29.10.2017 18:54 8,3 C 9,4 C 64 % 1010,6 hPa 0,0 l/m 27,1 km/h (4 Bft) W 261 0 min 0,000 mm 0,0 UV-I 0 W/m 1,9 C -1,0 C 37,0 km/h (5 Bft) 100,00 %
29.10.2017 18:56 8,3 C 9,4 C 65 % 1010,6 hPa 0,0 l/m 21,2 km/h (4 Bft) W 259 0 min 0,000 mm 0,0 UV-I 0 W/m 2,1 C 0,7 C 27,4 km/h (4 Bft) 100,00 %
29.10.2017 18:58 8,3 C 9,4 C 65 % 1010,7 hPa 0,0 l/m 21,5 km/h (4 Bft) W 262 0 min 0,000 mm 0,0 UV-I 0 W/m 2,1 C 0,6 C 35,4 km/h (5 Bft) 100,00 %
29.10.2017 19:00 8,3 C 9,4 C 64 % 1010,7 hPa 0,0 l/m 24,2 km/h (4 Bft) W-NW 284 0 min 0,077 mm 0,0 UV-I 0 W/m 1,9 C -0,2 C 38,6 km/h (5 Bft) 98,00 %
29.10.2017 19:02 8,3 C 9,4 C 65 % 1010,7 hPa 0,0 l/m 23,6 km/h (4 Bft) W-SW 247 0 min 0,000 mm 0,0 UV-I 0 W/m 2,1 C -0,1 C 33,8 km/h (5 Bft) 100,00 %
29.10.2017 19:04 8,3 C 9,4 C 64 % 1010,8 hPa 0,0 l/m 22,4 km/h (4 Bft) W-NW 297 0 min 0,000 mm 0,0 UV-I 0 W/m 1,9 C 0,3 C 37,0 km/h (5 Bft) 100,00 %
29.10.2017 19:06 8,3 C 9,4 C 64 % 1010,8 hPa 0,0 l/m 28,8 km/h (4 Bft) W 262 0 min 0,000 mm 0,0 UV-I 0 W/m 1,9 C -1,5 C 46,7 km/h (6 Bft) 96,61 %
29.10.2017 19:08 8,3 C 9,4 C 64 % 1010,8 hPa 0,0 l/m 22,4 km/h (4 Bft) W 264 0 min 0,000 mm 0,0 UV-I 0 W/m 1,9 C 0,3 C 32,2 km/h (5 Bft) 100,00 %
29.10.2017 19:10 8,3 C 9,4 C 65 % 1010,7 hPa 0,0 l/m 18,6 km/h (3 Bft) W-SW 243 0 min 0,000 mm 0,0 UV-I 0 W/m 2,1 C 1,6 C 24,1 km/h (4 Bft) 100,00 %
29.10.2017 19:12 8,3 C 9,4 C 65 % 1010,9 hPa 0,0 l/m 23,2 km/h (4 Bft) W 275 0 min 0,000 mm 0,0 UV-I 0 W/m 2,1 C 0,1 C 41,8 km/h (6 Bft) 100,00 %
29.10.2017 19:14 8,3 C 9,4 C 65 % 1010,9 hPa 0,0 l/m 26,9 km/h (4 Bft) W 280 0 min 0,000 mm 0,0 UV-I 0 W/m 2,1 C -1,0 C 37,0 km/h (5 Bft) 98,11 %
29.10.2017 19:16 8,3 C 9,4 C 65 % 1010,9 hPa 0,0 l/m 21,8 km/h (4 Bft) W-SW 255 0 min 0,000 mm 0,0 UV-I 0 W/m 2,1 C 0,5 C 35,4 km/h (5 Bft) 97,56 %
29.10.2017 19:18 8,3 C 9,4 C 65 % 1010,9 hPa 0,0 l/m 21,6 km/h (4 Bft) W 281 0 min 0,000 mm 0,0 UV-I 0 W/m 2,1 C 0,6 C 30,6 km/h (5 Bft) 98,21 %
29.10.2017 19:20 8,2 C 9,4 C 65 % 1010,9 hPa 0,0 l/m 21,1 km/h (4 Bft) W 267 0 min 0,000 mm 0,0 UV-I 0 W/m 2,0 C 0,6 C 29,0 km/h (5 Bft) 100,00 %
29.10.2017 19:22 8,2 C 9,4 C 66 % 1010,9 hPa 0,0 l/m 18,8 km/h (3 Bft) W-NW 300 0 min 0,000 mm 0,0 UV-I 0 W/m 2,2 C 1,4 C 35,4 km/h (5 Bft) 98,04 %
29.10.2017 19:24 8,2 C 9,4 C 66 % 1011,0 hPa 0,0 l/m 24,3 km/h (4 Bft) W 272 0 min 0,000 mm 0,0 UV-I 0 W/m 2,2 C -0,4 C 32,2 km/h (5 Bft) 97,62 %
29.10.2017 19:26 8,1 C 9,4 C 66 % 1011,0 hPa 0,0 l/m 23,4 km/h (4 Bft) W-SW 238 0 min 0,000 mm 0,0 UV-I 0 W/m 2,1 C -0,3 C 35,4 km/h (5 Bft) 100,00 %
29.10.2017 19:28 8,1 C 9,4 C 65 % 1011,0 hPa 0,0 l/m 28,9 km/h (5 Bft) NW 313 0 min 0,000 mm 0,0 UV-I 0 W/m 1,9 C -1,8 C 40,2 km/h (6 Bft) 100,00 %
29.10.2017 19:30 8,1 C 9,4 C 65 % 1011,1 hPa 0,0 l/m 28,5 km/h (4 Bft) W 259 0 min 0,000 mm 0,0 UV-I 0 W/m 1,9 C -1,7 C 53,1 km/h (7 Bft) 100,00 %
29.10.2017 19:32 8,1 C 9,4 C 65 % 1011,0 hPa 0,0 l/m 26,2 km/h (4 Bft) W 269 0 min 0,000 mm 0,0 UV-I 0 W/m 1,9 C -1,1 C 41,8 km/h (6 Bft) 97,73 %
29.10.2017 19:34 8,1 C 9,4 C 65 % 1011,1 hPa 0,0 l/m 25,6 km/h (4 Bft) W-SW 249 0 min 0,000 mm 0,0 UV-I 0 W/m 1,9 C -0,9 C 38,6 km/h (5 Bft) 100,00 %
29.10.2017 19:36 8,1 C 9,4 C 65 % 1011,0 hPa 0,0 l/m 22,3 km/h (4 Bft) W 266 0 min 0,000 mm 0,0 UV-I 0 W/m 1,9 C 0,1 C 41,8 km/h (6 Bft) 98,21 %
29.10.2017 19:38 8,1 C 9,4 C 65 % 1011,0 hPa 0,0 l/m 28,9 km/h (5 Bft) W 272 0 min 0,000 mm 0,0 UV-I 0 W/m 1,9 C -1,8 C 51,5 km/h (7 Bft) 100,00 %
29.10.2017 19:40 8,2 C 9,4 C 65 % 1011,2 hPa 0,0 l/m 24,1 km/h (4 Bft) W-SW 240 0 min 0,000 mm 0,0 UV-I 0 W/m 2,0 C -0,3 C 38,6 km/h (5 Bft) 100,00 %
29.10.2017 19:43 8,1 C 9,4 C 65 % 1011,2 hPa 0,0 l/m 23,4 km/h (4 Bft) W 274 0 min 0,000 mm 0,0 UV-I 0 W/m 1,9 C -0,3 C 30,6 km/h (5 Bft) 98,46 %
29.10.2017 19:44 8,1 C 9,4 C 65 % 1011,2 hPa 0,0 l/m 20,8 km/h (4 Bft) W 270 0 min 0,000 mm 0,0 UV-I 0 W/m 1,9 C 0,6 C 27,4 km/h (4 Bft) 100,00 %
29.10.2017 19:46 8,1 C 9,4 C 65 % 1011,2 hPa 0,0 l/m 27,8 km/h (4 Bft) W-SW 244 0 min 0,000 mm 0,0 UV-I 0 W/m 1,9 C -1,5 C 48,3 km/h (6 Bft) 100,00 %
29.10.2017 19:48 8,1 C 9,4 C 65 % 1011,2 hPa 0,0 l/m 26,1 km/h (4 Bft) W 281 0 min 0,000 mm 0,0 UV-I 0 W/m 1,9 C -1,0 C 38,6 km/h (5 Bft) 97,56 %
29.10.2017 19:50 8,1 C 9,4 C 65 % 1011,3 hPa 0,0 l/m 22,5 km/h (4 Bft) W 261 0 min 0,000 mm 0,0 UV-I 0 W/m 1,9 C 0,0 C 37,0 km/h (5 Bft) 98,00 %
29.10.2017 19:53 8,1 C 9,4 C 66 % 1011,4 hPa 0,0 l/m 20,6 km/h (4 Bft) W 269 0 min 0,000 mm 0,0 UV-I 0 W/m 2,1 C 0,6 C 35,4 km/h (5 Bft) 98,70 %
29.10.2017 19:54 8,1 C 9,4 C 66 % 1011,4 hPa 0,0 l/m 18,6 km/h (3 Bft) W-SW 258 0 min 0,000 mm 0,0 UV-I 0 W/m 2,1 C 1,3 C 24,1 km/h (4 Bft) 100,00 %
29.10.2017 19:56 8,0 C 9,4 C 66 % 1011,4 hPa 0,0 l/m 19,2 km/h (3 Bft) W-SW 246 0 min 0,000 mm 0,0 UV-I 0 W/m 2,0 C 1,0 C 25,7 km/h (4 Bft) 98,11 %
29.10.2017 19:58 8,0 C 9,4 C 67 % 1011,4 hPa 0,0 l/m 18,0 km/h (3 Bft) W 267 0 min 0,000 mm 0,0 UV-I 0 W/m 2,3 C 1,4 C 30,6 km/h (5 Bft) 97,56 %
29.10.2017 20:00 7,9 C 9,4 C 67 % 1011,6 hPa 0,0 l/m 18,4 km/h (3 Bft) W-SW 246 0 min 0,000 mm 0,0 UV-I 0 W/m 2,2 C 1,2 C 27,4 km/h (4 Bft) 97,87 %
29.10.2017 20:02 7,9 C 9,4 C 67 % 1011,6 hPa 0,0 l/m 20,5 km/h (4 Bft) W 262 0 min 0,076 mm 0,0 UV-I 0 W/m 2,2 C 0,4 C 32,2 km/h (5 Bft) 96,00 %
29.10.2017 20:04 7,9 C 9,4 C 67 % 1011,6 hPa 0,0 l/m 21,5 km/h (4 Bft) SW 232 0 min 0,000 mm 0,0 UV-I 0 W/m 2,2 C 0,1 C 30,6 km/h (5 Bft) 100,00 %
29.10.2017 20:06 7,9 C 9,4 C 67 % 1011,7 hPa 0,0 l/m 17,7 km/h (3 Bft) W-SW 254 0 min 0,000 mm 0,0 UV-I 0 W/m 2,2 C 1,4 C 22,5 km/h (4 Bft) 94,83 %
29.10.2017 20:08 7,9 C 9,4 C 68 % 1011,6 hPa 0,0 l/m 13,7 km/h (3 Bft) W-NW 296 0 min 0,000 mm 0,0 UV-I 0 W/m 2,4 C 3,2 C 25,7 km/h (4 Bft) 95,24 %
29.10.2017 20:10 7,9 C 9,4 C 68 % 1011,7 hPa 0,0 l/m 20,8 km/h (4 Bft) W-SW 245 0 min 0,000 mm 0,0 UV-I 0 W/m 2,4 C 0,3 C 30,6 km/h (5 Bft) 97,87 %
29.10.2017 20:12 7,8 C 9,4 C 68 % 1011,8 hPa 0,0 l/m 17,4 km/h (3 Bft) W-SW 239 0 min 0,000 mm 0,0 UV-I 0 W/m 2,3 C 1,4 C 24,1 km/h (4 Bft) 97,87 %
29.10.2017 20:14 7,8 C 9,4 C 68 % 1011,8 hPa 0,0 l/m 20,8 km/h (4 Bft) W 279 0 min 0,000 mm 0,0 UV-I 0 W/m 2,3 C 0,2 C 30,6 km/h (5 Bft) 97,56 %
29.10.2017 20:16 7,8 C 9,4 C 68 % 1011,9 hPa 0,0 l/m 23,0 km/h (4 Bft) W-NW 284 0 min 0,000 mm 0,0 UV-I 0 W/m 2,3 C -0,6 C 33,8 km/h (5 Bft) 96,00 %
29.10.2017 20:18 7,8 C 9,4 C 68 % 1011,8 hPa 0,0 l/m 20,3 km/h (4 Bft) W-SW 258 0 min 0,000 mm 0,0 UV-I 0 W/m 2,3 C 0,3 C 32,2 km/h (5 Bft) 96,23 %
29.10.2017 20:20 7,8 C 9,4 C 68 % 1011,8 hPa 0,0 l/m 21,9 km/h (4 Bft) W-SW 248 0 min 0,000 mm 0,0 UV-I 0 W/m 2,3 C -0,2 C 33,8 km/h (5 Bft) 97,56 %
29.10.2017 20:22 7,8 C 9,4 C 68 % 1011,9 hPa 0,0 l/m 22,4 km/h (4 Bft) W 271 0 min 0,000 mm 0,0 UV-I 0 W/m 2,3 C -0,4 C 35,4 km/h (5 Bft) 92,45 %
29.10.2017 20:24 7,8 C 9,4 C 68 % 1011,8 hPa 0,0 l/m 26,0 km/h (4 Bft) W-SW 237 0 min 0,000 mm 0,0 UV-I 0 W/m 2,3 C -1,4 C 38,6 km/h (5 Bft) 95,12 %
29.10.2017 20:26 7,9 C 9,4 C 68 % 1011,9 hPa 0,0 l/m 27,6 km/h (4 Bft) W-NW 284 0 min 0,000 mm 0,0 UV-I 0 W/m 2,4 C -1,7 C 45,1 km/h (6 Bft) 94,00 %
29.10.2017 20:28 7,9 C 9,4 C 67 % 1011,9 hPa 0,0 l/m 27,2 km/h (4 Bft) W 261 0 min 0,000 mm 0,0 UV-I 0 W/m 2,2 C -1,6 C 49,9 km/h (6 Bft) 95,74 %
29.10.2017 20:30 7,9 C 9,4 C 67 % 1012,0 hPa 0,0 l/m 29,1 km/h (5 Bft) W-SW 246 0 min 0,000 mm 0,0 UV-I 0 W/m 2,2 C -2,1 C 53,1 km/h (7 Bft) 95,12 %
29.10.2017 20:32 7,9 C 9,4 C 67 % 1012,0 hPa 0,0 l/m 27,0 km/h (4 Bft) W 275 0 min 0,000 mm 0,0 UV-I 0 W/m 2,2 C -1,6 C 40,2 km/h (6 Bft) 96,43 %
29.10.2017 20:34 7,9 C 9,4 C 67 % 1012,0 hPa 0,0 l/m 32,1 km/h (5 Bft) W-SW 255 0 min 0,000 mm 0,0 UV-I 0 W/m 2,2 C -2,8 C 53,1 km/h (7 Bft) 97,37 %
29.10.2017 20:36 7,9 C 9,4 C 67 % 1012,0 hPa 0,0 l/m 28,6 km/h (4 Bft) SW 231 0 min 0,000 mm 0,0 UV-I 0 W/m 2,2 C -2,0 C 43,5 km/h (6 Bft) 96,43 %
29.10.2017 20:38 8,0 C 9,4 C 67 % 1012,1 hPa 0,0 l/m 22,0 km/h (4 Bft) W 274 0 min 0,000 mm 0,0 UV-I 0 W/m 2,3 C 0,0 C 37,0 km/h (5 Bft) 97,37 %
29.10.2017 20:40 8,0 C 9,4 C 67 % 1012,0 hPa 0,0 l/m 29,0 km/h (5 Bft) SW 236 0 min 0,000 mm 0,0 UV-I 0 W/m 2,3 C -1,9 C 40,2 km/h (6 Bft) 96,00 %
29.10.2017 20:42 8,0 C 9,4 C 67 % 1012,1 hPa 0,0 l/m 25,0 km/h (4 Bft) W-SW 248 0 min 0,000 mm 0,0 UV-I 0 W/m 2,3 C -0,9 C 49,9 km/h (6 Bft) 94,44 %
29.10.2017 20:44 7,9 C 9,4 C 68 % 1012,1 hPa 0,0 l/m 20,2 km/h (4 Bft) W 280 0 min 0,000 mm 0,0 UV-I 0 W/m 2,4 C 0,5 C 27,4 km/h (4 Bft) 95,08 %
29.10.2017 20:46 7,9 C 9,4 C 68 % 1012,2 hPa 0,0 l/m 20,7 km/h (4 Bft) W 261 0 min 0,000 mm 0,0 UV-I 0 W/m 2,4 C 0,3 C 27,4 km/h (4 Bft) 97,62 %
29.10.2017 20:48 7,9 C 9,4 C 68 % 1012,2 hPa 0,0 l/m 24,0 km/h (4 Bft) W 261 0 min 0,000 mm 0,0 UV-I 0 W/m 2,4 C -0,7 C 38,6 km/h (5 Bft) 98,11 %
29.10.2017 20:50 7,9 C 9,4 C 68 % 1012,2 hPa 0,0 l/m 25,4 km/h (4 Bft) W 268 0 min 0,000 mm 0,0 UV-I 0 W/m 2,4 C -1,1 C 51,5 km/h (7 Bft) 97,56 %
29.10.2017 20:52 7,9 C 9,4 C 68 % 1012,2 hPa 0,0 l/m 30,0 km/h (5 Bft) W-SW 257 0 min 0,000 mm 0,0 UV-I 0 W/m 2,4 C -2,3 C 49,9 km/h (6 Bft) 97,73 %
29.10.2017 20:54 7,9 C 9,4 C 68 % 1012,3 hPa 0,0 l/m 21,0 km/h (4 Bft) SW 219 0 min 0,000 mm 0,0 UV-I 0 W/m 2,4 C 0,2 C 32,2 km/h (5 Bft) 98,00 %
29.10.2017 20:56 7,9 C 9,4 C 68 % 1012,4 hPa 0,0 l/m 22,1 km/h (4 Bft) W-SW 254 0 min 0,000 mm 0,0 UV-I 0 W/m 2,4 C -0,1 C 33,8 km/h (5 Bft) 95,45 %
29.10.2017 20:58 7,9 C 9,4 C 68 % 1012,3 hPa 0,0 l/m 23,5 km/h (4 Bft) W-SW 256 0 min 0,000 mm 0,0 UV-I 0 W/m 2,4 C -0,6 C 32,2 km/h (5 Bft) 96,23 %
29.10.2017 21:00 7,9 C 9,4 C 69 % 1012,3 hPa 0,0 l/m 29,6 km/h (5 Bft) W 262 0 min 0,000 mm 0,0 UV-I 0 W/m 2,6 C -2,2 C 40,2 km/h (6 Bft) 96,00 %
29.10.2017 21:02 7,9 C 9,4 C 68 % 1012,5 hPa 0,0 l/m 34,3 km/h (5 Bft) SW 234 0 min 0,076 mm 0,0 UV-I 0 W/m 2,4 C -3,2 C 54,7 km/h (7 Bft) 97,87 %
29.10.2017 21:04 7,9 C 9,4 C 68 % 1012,5 hPa 0,0 l/m 22,7 km/h (4 Bft) W 266 0 min 0,000 mm 0,0 UV-I 0 W/m 2,4 C -0,3 C 32,2 km/h (5 Bft) 94,74 %
29.10.2017 21:06 7,9 C 9,4 C 68 % 1012,5 hPa 0,0 l/m 27,9 km/h (4 Bft) W 263 0 min 0,000 mm 0,0 UV-I 0 W/m 2,4 C -1,8 C 43,5 km/h (6 Bft) 96,43 %
29.10.2017 21:08 7,9 C 9,4 C 68 % 1012,5 hPa 0,0 l/m 28,4 km/h (4 Bft) W 263 0 min 0,000 mm 0,0 UV-I 0 W/m 2,4 C -1,9 C 38,6 km/h (5 Bft) 100,00 %
29.10.2017 21:10 7,9 C 9,4 C 67 % 1012,5 hPa 0,0 l/m 25,3 km/h (4 Bft) W-SW 251 0 min 0,000 mm 0,0 UV-I 0 W/m 2,2 C -1,1 C 37,0 km/h (5 Bft) 96,23 %
29.10.2017 21:12 7,8 C 9,4 C 68 % 1012,6 hPa 0,0 l/m 22,1 km/h (4 Bft) SW 226 0 min 0,000 mm 0,0 UV-I 0 W/m 2,3 C -0,3 C 33,8 km/h (5 Bft) 97,37 %
29.10.2017 21:14 7,8 C 9,4 C 68 % 1012,6 hPa 0,0 l/m 31,0 km/h (5 Bft) W-SW 241 0 min 0,000 mm 0,0 UV-I 0 W/m 2,3 C -2,7 C 43,5 km/h (6 Bft) 95,74 %
29.10.2017 21:16 7,8 C 9,4 C 68 % 1012,6 hPa 0,0 l/m 24,6 km/h (4 Bft) W 271 0 min 0,000 mm 0,0 UV-I 0 W/m 2,3 C -1,0 C 43,5 km/h (6 Bft) 98,21 %
29.10.2017 21:18 7,8 C 9,4 C 69 % 1012,7 hPa 0,0 l/m 20,1 km/h (4 Bft) W 281 0 min 0,000 mm 0,0 UV-I 0 W/m 2,5 C 0,4 C 32,2 km/h (5 Bft) 97,56 %
29.10.2017 21:20 7,8 C 9,4 C 68 % 1012,8 hPa 0,0 l/m 26,2 km/h (4 Bft) SW 232 0 min 0,000 mm 0,0 UV-I 0 W/m 2,3 C -1,5 C 41,8 km/h (6 Bft) 97,62 %
29.10.2017 21:22 7,8 C 9,4 C 68 % 1012,7 hPa 0,0 l/m 25,8 km/h (4 Bft) W 267 0 min 0,000 mm 0,0 UV-I 0 W/m 2,3 C -1,4 C 48,3 km/h (6 Bft) 98,28 %
29.10.2017 21:24 7,8 C 9,4 C 68 % 1012,8 hPa 0,0 l/m 27,6 km/h (4 Bft) W 277 0 min 0,000 mm 0,0 UV-I 0 W/m 2,3 C -1,9 C 40,2 km/h (6 Bft) 94,87 %
29.10.2017 21:26 7,8 C 9,4 C 68 % 1012,8 hPa 0,0 l/m 29,5 km/h (5 Bft) W-SW 257 0 min 0,000 mm 0,0 UV-I 0 W/m 2,3 C -2,3 C 51,5 km/h (7 Bft) 98,00 %
29.10.2017 21:28 7,8 C 9,4 C 69 % 1012,8 hPa 0,0 l/m 24,1 km/h (4 Bft) SW 224 0 min 0,000 mm 0,0 UV-I 0 W/m 2,5 C -0,9 C 41,8 km/h (6 Bft) 95,12 %
29.10.2017 21:30 7,8 C 9,4 C 69 % 1012,8 hPa 0,0 l/m 23,5 km/h (4 Bft) W 266 0 min 0,000 mm 0,0 UV-I 0 W/m 2,5 C -0,7 C 30,6 km/h (5 Bft) 100,00 %
29.10.2017 21:32 7,8 C 9,4 C 69 % 1012,9 hPa 0,0 l/m 27,7 km/h (4 Bft) W 271 0 min 0,000 mm 0,0 UV-I 0 W/m 2,5 C -1,9 C 41,8 km/h (6 Bft) 100,00 %
29.10.2017 21:34 7,8 C 9,4 C 68 % 1012,8 hPa 0,0 l/m 28,1 km/h (4 Bft) W 262 0 min 0,000 mm 0,0 UV-I 0 W/m 2,3 C -2,0 C 43,5 km/h (6 Bft) 100,00 %
29.10.2017 21:36 7,8 C 9,4 C 68 % 1012,8 hPa 0,0 l/m 26,5 km/h (4 Bft) W 267 0 min 0,000 mm 0,0 UV-I 0 W/m 2,3 C -1,6 C 43,5 km/h (6 Bft) 100,00 %
29.10.2017 21:38 7,8 C 9,4 C 68 % 1012,9 hPa 0,0 l/m 27,5 km/h (4 Bft) W-SW 246 0 min 0,000 mm 0,0 UV-I 0 W/m 2,3 C -1,8 C 40,2 km/h (6 Bft) 100,00 %
29.10.2017 21:40 7,7 C 9,4 C 69 % 1013,0 hPa 0,0 l/m 22,1 km/h (4 Bft) W-SW 254 0 min 0,000 mm 0,0 UV-I 0 W/m 2,4 C -0,4 C 41,8 km/h (6 Bft) 100,00 %
29.10.2017 21:42 7,7 C 9,4 C 69 % 1013,0 hPa 0,0 l/m 25,5 km/h (4 Bft) W-SW 250 0 min 0,000 mm 0,0 UV-I 0 W/m 2,4 C -1,4 C 41,8 km/h (6 Bft) 93,62 %
29.10.2017 21:44 7,7 C 9,4 C 69 % 1013,0 hPa 0,0 l/m 24,5 km/h (4 Bft) W 281 0 min 0,000 mm 0,0 UV-I 0 W/m 2,4 C -1,1 C 46,7 km/h (6 Bft) 96,43 %
29.10.2017 21:46 7,7 C 9,4 C 69 % 1013,0 hPa 0,0 l/m 27,4 km/h (4 Bft) W-SW 250 0 min 0,000 mm 0,0 UV-I 0 W/m 2,4 C -1,9 C 51,5 km/h (7 Bft) 97,56 %
29.10.2017 21:48 7,7 C 9,4 C 69 % 1013,1 hPa 0,0 l/m 21,2 km/h (4 Bft) W 267 0 min 0,000 mm 0,0 UV-I 0 W/m 2,4 C -0,1 C 38,6 km/h (5 Bft) 100,00 %
29.10.2017 21:50 7,7 C 9,4 C 69 % 1013,1 hPa 0,0 l/m 21,5 km/h (4 Bft) W-SW 255 0 min 0,000 mm 0,0 UV-I 0 W/m 2,4 C -0,2 C 33,8 km/h (5 Bft) 97,56 %
29.10.2017 21:52 7,7 C 9,4 C 70 % 1013,1 hPa 0,0 l/m 23,1 km/h (4 Bft) W 261 0 min 0,000 mm 0,0 UV-I 0 W/m 2,6 C -0,7 C 33,8 km/h (5 Bft) 98,00 %
29.10.2017 21:54 7,6 C 9,4 C 70 % 1013,1 hPa 0,0 l/m 24,0 km/h (4 Bft) W 261 0 min 0,000 mm 0,0 UV-I 0 W/m 2,5 C -1,1 C 37,0 km/h (5 Bft) 100,00 %
29.10.2017 21:56 7,6 C 9,4 C 70 % 1013,2 hPa 0,0 l/m 22,2 km/h (4 Bft) W-SW 257 0 min 0,000 mm 0,0 UV-I 0 W/m 2,5 C -0,6 C 37,0 km/h (5 Bft) 100,00 %
29.10.2017 21:58 7,6 C 9,4 C 70 % 1013,3 hPa 0,0 l/m 27,2 km/h (4 Bft) W-NW 294 0 min 0,000 mm 0,0 UV-I 0 W/m 2,5 C -2,0 C 40,2 km/h (6 Bft) 100,00 %
29.10.2017 22:00 7,6 C 9,4 C 71 % 1013,3 hPa 0,0 l/m 23,0 km/h (4 Bft) SW 225 0 min 0,000 mm 0,0 UV-I 0 W/m 2,7 C -0,8 C 35,4 km/h (5 Bft) 100,00 %
29.10.2017 22:02 7,5 C 9,4 C 71 % 1013,3 hPa 0,0 l/m 24,4 km/h (4 Bft) W 259 0 min 0,076 mm 0,0 UV-I 0 W/m 2,6 C -1,4 C 37,0 km/h (5 Bft) 97,73 %
29.10.2017 22:04 7,4 C 9,4 C 71 % 1013,3 hPa 0,0 l/m 23,5 km/h (4 Bft) W 272 0 min 0,000 mm 0,0 UV-I 0 W/m 2,5 C -1,2 C 38,6 km/h (5 Bft) 96,23 %
29.10.2017 22:06 7,4 C 9,4 C 71 % 1013,3 hPa 0,0 l/m 35,9 km/h (5 Bft) W-SW 245 0 min 0,000 mm 0,0 UV-I 0 W/m 2,5 C -4,2 C 59,5 km/h (7 Bft) 96,23 %
29.10.2017 22:08 7,4 C 9,4 C 72 % 1013,4 hPa 0,0 l/m 36,8 km/h (5 Bft) W-SW 258 0 min 0,000 mm 0,0 UV-I 0 W/m 2,7 C -4,4 C 56,3 km/h (7 Bft) 97,87 %
29.10.2017 22:10 7,3 C 9,4 C 72 % 1013,5 hPa 0,0 l/m 25,3 km/h (4 Bft) W-SW 240 0 min 0,000 mm 0,0 UV-I 0 W/m 2,6 C -1,9 C 38,6 km/h (5 Bft) 95,45 %
29.10.2017 22:12 7,3 C 9,4 C 73 % 1013,4 hPa 0,0 l/m 17,5 km/h (3 Bft) W-NW 291 0 min 0,000 mm 0,0 UV-I 0 W/m 2,8 C 0,8 C 25,7 km/h (4 Bft) 97,37 %
29.10.2017 22:14 7,2 C 9,4 C 73 % 1013,5 hPa 0,0 l/m 23,3 km/h (4 Bft) W 267 0 min 0,000 mm 0,0 UV-I 0 W/m 2,7 C -1,4 C 33,8 km/h (5 Bft) 96,43 %
29.10.2017 22:16 7,2 C 9,4 C 73 % 1013,4 hPa 0,0 l/m 27,4 km/h (4 Bft) W-SW 255 0 min 0,000 mm 0,0 UV-I 0 W/m 2,7 C -2,6 C 48,3 km/h (6 Bft) 97,56 %
29.10.2017 22:18 7,1 C 9,4 C 74 % 1013,4 hPa 0,0 l/m 22,1 km/h (4 Bft) W 268 0 min 0,000 mm 0,0 UV-I 0 W/m 2,8 C -1,2 C 38,6 km/h (5 Bft) 98,11 %
29.10.2017 22:20 7,1 C 9,4 C 74 % 1013,5 hPa 0,0 l/m 24,0 km/h (4 Bft) W-SW 257 0 min 0,000 mm 0,0 UV-I 0 W/m 2,8 C -1,8 C 37,0 km/h (5 Bft) 97,73 %
29.10.2017 22:22 7,0 C 9,4 C 75 % 1013,6 hPa 0,0 l/m 21,4 km/h (4 Bft) W-SW 255 0 min 0,000 mm 0,0 UV-I 0 W/m 2,9 C -1,1 C 35,4 km/h (5 Bft) 93,62 %
29.10.2017 22:24 6,9 C 9,4 C 75 % 1013,6 hPa 0,0 l/m 18,3 km/h (3 Bft) W-SW 240 0 min 0,000 mm 0,0 UV-I 0 W/m 2,8 C -0,1 C 27,4 km/h (4 Bft) 98,11 %
29.10.2017 22:26 6,9 C 9,4 C 76 % 1013,5 hPa 0,0 l/m 19,0 km/h (3 Bft) W-SW 247 0 min 0,000 mm 0,0 UV-I 0 W/m 3,0 C -0,3 C 32,2 km/h (5 Bft) 97,87 %
29.10.2017 22:28 6,8 C 9,4 C 76 % 1013,6 hPa 0,0 l/m 18,2 km/h (3 Bft) W 259 0 min 0,000 mm 0,0 UV-I 0 W/m 2,9 C -0,2 C 27,4 km/h (4 Bft) 97,56 %
29.10.2017 22:30 6,8 C 9,4 C 76 % 1013,6 hPa 0,0 l/m 16,6 km/h (3 Bft) W-SW 257 0 min 0,000 mm 0,0 UV-I 0 W/m 2,9 C 0,5 C 22,5 km/h (4 Bft) 97,73 %
29.10.2017 22:32 6,8 C 9,4 C 76 % 1013,6 hPa 0,0 l/m 18,6 km/h (3 Bft) W-SW 252 0 min 0,000 mm 0,0 UV-I 0 W/m 2,9 C -0,3 C 25,7 km/h (4 Bft) 97,56 %
29.10.2017 22:34 6,8 C 9,4 C 76 % 1013,7 hPa 0,0 l/m 20,0 km/h (4 Bft) W-SW 254 0 min 0,000 mm 0,0 UV-I 0 W/m 2,9 C -0,8 C 32,2 km/h (5 Bft) 97,78 %
29.10.2017 22:36 6,8 C 9,4 C 76 % 1013,6 hPa 0,0 l/m 23,2 km/h (4 Bft) W-NW 286 0 min 0,000 mm 0,0 UV-I 0 W/m 2,9 C -1,9 C 32,2 km/h (5 Bft) 98,36 %
29.10.2017 22:38 6,8 C 9,4 C 76 % 1013,7 hPa 0,0 l/m 24,2 km/h (4 Bft) W 264 0 min 0,000 mm 0,0 UV-I 0 W/m 2,9 C -2,3 C 35,4 km/h (5 Bft) 100,00 %
29.10.2017 22:40 6,9 C 9,4 C 75 % 1013,6 hPa 0,0 l/m 22,5 km/h (4 Bft) W-SW 248 0 min 0,000 mm 0,0 UV-I 0 W/m 2,8 C -1,6 C 40,2 km/h (6 Bft) 98,00 %
29.10.2017 22:42 6,9 C 9,4 C 75 % 1013,6 hPa 0,0 l/m 22,3 km/h (4 Bft) W 259 0 min 0,000 mm 0,0 UV-I 0 W/m 2,8 C -1,5 C 37,0 km/h (5 Bft) 100,00 %
29.10.2017 22:44 6,9 C 9,4 C 75 % 1013,6 hPa 0,0 l/m 19,0 km/h (3 Bft) W-SW 249 0 min 0,000 mm 0,0 UV-I 0 W/m 2,8 C -0,3 C 30,6 km/h (5 Bft) 98,08 %
29.10.2017 22:46 6,9 C 9,4 C 75 % 1013,6 hPa 0,0 l/m 21,7 km/h (4 Bft) W 269 0 min 0,000 mm 0,0 UV-I 0 W/m 2,8 C -1,3 C 29,0 km/h (5 Bft) 100,00 %
29.10.2017 22:48 7,0 C 9,4 C 75 % 1013,7 hPa 0,0 l/m 16,9 km/h (3 Bft) W 281 0 min 0,000 mm 0,0 UV-I 0 W/m 2,9 C 0,6 C 25,7 km/h (4 Bft) 100,00 %
29.10.2017 22:50 6,9 C 9,4 C 76 % 1013,7 hPa 0,0 l/m 15,5 km/h (3 Bft) W-NW 292 0 min 0,000 mm 0,0 UV-I 0 W/m 3,0 C 1,1 C 27,4 km/h (4 Bft) 100,00 %
29.10.2017 22:52 6,9 C 8,9 C 77 % 1013,7 hPa 0,0 l/m 10,8 km/h (2 Bft) W 276 0 min 0,000 mm 0,0 UV-I 0 W/m 3,2 C 3,7 C 14,5 km/h (3 Bft) 100,00 %
29.10.2017 22:54 6,8 C 8,9 C 78 % 1013,8 hPa 0,0 l/m 15,1 km/h (3 Bft) W 259 0 min 0,000 mm 0,0 UV-I 0 W/m 3,2 C 1,2 C 24,1 km/h (4 Bft) 100,00 %
29.10.2017 22:56 6,8 C 9,4 C 78 % 1013,8 hPa 0,0 l/m 15,0 km/h (3 Bft) W-SW 244 0 min 0,000 mm 0,0 UV-I 0 W/m 3,2 C 1,3 C 20,9 km/h (4 Bft) 100,00 %
29.10.2017 22:58 6,7 C 8,9 C 79 % 1013,7 hPa 0,0 l/m 17,1 km/h (3 Bft) W-SW 257 0 min 0,000 mm 0,0 UV-I 0 W/m 3,3 C 0,2 C 22,5 km/h (4 Bft) 100,00 %
29.10.2017 23:00 6,6 C 8,9 C 80 % 1013,7 hPa 0,0 l/m 19,9 km/h (4 Bft) W-SW 252 0 min 0,000 mm 0,0 UV-I 0 W/m 3,4 C -1,1 C 40,2 km/h (6 Bft) 100,00 %
29.10.2017 23:02 6,6 C 8,9 C 80 % 1013,6 hPa 0,0 l/m 18,4 km/h (3 Bft) W-SW 257 0 min 0,051 mm 0,0 UV-I 0 W/m 3,4 C -0,5 C 29,0 km/h (5 Bft) 100,00 %
29.10.2017 23:04 6,4 C 8,9 C 80 % 1013,6 hPa 0,0 l/m 21,7 km/h (4 Bft) W 262 0 min 0,000 mm 0,0 UV-I 0 W/m 3,2 C -2,0 C 32,2 km/h (5 Bft) 100,00 %
29.10.2017 23:06 6,4 C 8,9 C 80 % 1013,6 hPa 0,0 l/m 22,9 km/h (4 Bft) W-SW 245 0 min 0,000 mm 0,0 UV-I 0 W/m 3,2 C -2,4 C 41,8 km/h (6 Bft) 100,00 %
29.10.2017 23:08 6,3 C 8,9 C 80 % 1013,7 hPa 0,0 l/m 23,2 km/h (4 Bft) W-SW 254 0 min 0,000 mm 0,0 UV-I 0 W/m 3,1 C -2,6 C 37,0 km/h (5 Bft) 100,00 %
29.10.2017 23:10 6,3 C 8,9 C 80 % 1013,7 hPa 0,0 l/m 26,6 km/h (4 Bft) W 281 0 min 0,000 mm 0,0 UV-I 0 W/m 3,1 C -3,6 C 37,0 km/h (5 Bft) 100,00 %
29.10.2017 23:12 6,3 C 8,9 C 80 % 1013,7 hPa 0,0 l/m 22,8 km/h (4 Bft) W 265 0 min 0,000 mm 0,0 UV-I 0 W/m 3,1 C -2,5 C 38,6 km/h (5 Bft) 100,00 %
29.10.2017 23:14 6,3 C 8,9 C 80 % 1013,8 hPa 0,0 l/m 21,5 km/h (4 Bft) W-NW 295 0 min 0,000 mm 0,0 UV-I 0 W/m 3,1 C -2,0 C 30,6 km/h (5 Bft) 100,00 %
29.10.2017 23:16 6,2 C 8,9 C 80 % 1013,7 hPa 0,0 l/m 20,3 km/h (4 Bft) W-SW 244 0 min 0,000 mm 0,0 UV-I 0 W/m 3,0 C -1,7 C 40,2 km/h (6 Bft) 100,00 %
29.10.2017 23:18 6,2 C 8,9 C 81 % 1013,8 hPa 0,0 l/m 24,2 km/h (4 Bft) W 263 0 min 0,000 mm 0,0 UV-I 0 W/m 3,2 C -3,1 C 33,8 km/h (5 Bft) 100,00 %
29.10.2017 23:20 6,2 C 8,9 C 81 % 1013,8 hPa 0,0 l/m 21,9 km/h (4 Bft) W 261 0 min 0,000 mm 0,0 UV-I 0 W/m 3,2 C -2,3 C 32,2 km/h (5 Bft) 100,00 %
29.10.2017 23:22 6,2 C 8,9 C 81 % 1013,7 hPa 0,0 l/m 19,6 km/h (3 Bft) W-SW 247 0 min 0,000 mm 0,0 UV-I 0 W/m 3,2 C -1,5 C 33,8 km/h (5 Bft) 100,00 %
29.10.2017 23:24 6,2 C 8,9 C 81 % 1013,8 hPa 0,0 l/m 23,4 km/h (4 Bft) W 264 0 min 0,000 mm 0,0 UV-I 0 W/m 3,2 C -2,8 C 32,2 km/h (5 Bft) 100,00 %
29.10.2017 23:26 6,2 C 9,4 C 81 % 1013,9 hPa 0,0 l/m 23,4 km/h (4 Bft) W-SW 251 0 min 0,000 mm 0,0 UV-I 0 W/m 3,2 C -2,8 C 37,0 km/h (5 Bft) 100,00 %
29.10.2017 23:28 6,2 C 8,9 C 80 % 1013,8 hPa 0,0 l/m 18,8 km/h (3 Bft) W-SW 254 0 min 0,000 mm 0,0 UV-I 0 W/m 3,0 C -1,2 C 29,0 km/h (5 Bft) 100,00 %
29.10.2017 23:30 6,2 C 8,9 C 80 % 1013,9 hPa 0,0 l/m 19,8 km/h (3 Bft) W-SW 257 0 min 0,000 mm 0,0 UV-I 0 W/m 3,0 C -1,5 C 30,6 km/h (5 Bft) 96,23 %
29.10.2017 23:32 6,2 C 8,9 C 80 % 1013,9 hPa 0,0 l/m 26,1 km/h (4 Bft) W 270 0 min 0,000 mm 0,0 UV-I 0 W/m 3,0 C -3,6 C 40,2 km/h (6 Bft) 100,00 %
29.10.2017 23:34 6,3 C 8,9 C 80 % 1014,0 hPa 0,0 l/m 21,1 km/h (4 Bft) W-SW 254 0 min 0,000 mm 0,0 UV-I 0 W/m 3,1 C -1,9 C 33,8 km/h (5 Bft) 100,00 %
29.10.2017 23:36 6,3 C 8,9 C 80 % 1014,0 hPa 0,0 l/m 22,3 km/h (4 Bft) W 268 0 min 0,000 mm 0,0 UV-I 0 W/m 3,1 C -2,3 C 40,2 km/h (6 Bft) 100,00 %
29.10.2017 23:38 6,3 C 8,9 C 80 % 1014,0 hPa 0,0 l/m 23,2 km/h (4 Bft) SW 229 0 min 0,000 mm 0,0 UV-I 0 W/m 3,1 C -2,6 C 41,8 km/h (6 Bft) 100,00 %
29.10.2017 23:40 6,2 C 8,9 C 81 % 1014,1 hPa 0,0 l/m 24,3 km/h (4 Bft) W 273 0 min 0,000 mm 0,0 UV-I 0 W/m 3,2 C -3,1 C 30,6 km/h (5 Bft) 100,00 %
29.10.2017 23:42 6,1 C 8,9 C 81 % 1014,0 hPa 0,0 l/m 22,9 km/h (4 Bft) SW 234 0 min 0,000 mm 0,0 UV-I 0 W/m 3,1 C -2,8 C 40,2 km/h (6 Bft) 100,00 %
29.10.2017 23:44 6,1 C 8,9 C 81 % 1014,1 hPa 0,0 l/m 24,2 km/h (4 Bft) W-SW 246 0 min 0,000 mm 0,0 UV-I 0 W/m 3,1 C -3,2 C 37,0 km/h (5 Bft) 100,00 %
29.10.2017 23:46 5,9 C 8,9 C 82 % 1014,0 hPa 0,0 l/m 24,2 km/h (4 Bft) W-SW 257 0 min 0,000 mm 0,0 UV-I 0 W/m 3,1 C -3,5 C 41,8 km/h (6 Bft) 100,00 %
29.10.2017 23:48 5,9 C 8,9 C 82 % 1014,1 hPa 0,0 l/m 18,5 km/h (3 Bft) W 263 0 min 0,000 mm 0,0 UV-I 0 W/m 3,1 C -1,4 C 29,0 km/h (5 Bft) 97,56 %
29.10.2017 23:50 5,8 C 8,9 C 82 % 1014,2 hPa 0,0 l/m 21,4 km/h (4 Bft) W 272 0 min 0,000 mm 0,0 UV-I 0 W/m 3,0 C -2,7 C 30,6 km/h (5 Bft) 97,56 %
29.10.2017 23:53 5,8 C 8,9 C 83 % 1014,1 hPa 0,0 l/m 23,9 km/h (4 Bft) W-SW 242 0 min 0,000 mm 0,0 UV-I 0 W/m 3,1 C -3,5 C 41,8 km/h (6 Bft) 100,00 %
29.10.2017 23:54 5,8 C 8,9 C 82 % 1014,1 hPa 0,0 l/m 28,1 km/h (4 Bft) W 265 0 min 0,000 mm 0,0 UV-I 0 W/m 3,0 C -4,8 C 35,4 km/h (5 Bft) 100,00 %
29.10.2017 23:56 5,8 C 8,9 C 82 % 1014,2 hPa 0,0 l/m 22,9 km/h (4 Bft) W-SW 258 0 min 0,000 mm 0,0 UV-I 0 W/m 3,0 C -3,2 C 37,0 km/h (5 Bft) 100,00 %
29.10.2017 23:58 5,8 C 8,9 C 82 % 1014,3 hPa 0,0 l/m 21,0 km/h (4 Bft) W-SW 244 0 min 0,000 mm 0,0 UV-I 0 W/m 3,0 C -2,5 C 35,4 km/h (5 Bft) 100,00 %
_ Min-Zeit 23:50 22:52 16:42 08:51 - 14:40 - - - - - - 18:19 02:54 14:40 02:04
Minimum _ 5,8 C 8,9 C 60 % 997,0 hPa - 6,5 km/h (2 Bft) - - - - - - 1,6 C -6,8 C 12,9 km/h (3 Bft) 84,62 %
_ Max-Zeit 09:29 00:00 04:37 23:58 11:35 09:33 - - 14:12 10:01 12:54 13:02 11:27 14:40 09:33 00:03
Maximum _ 13,2 C 9,4 C 94 % 1014,3 hPa 0,8 l/m 67,4 km/h
W-SW (8 Bft)
- - 2 min 0,178 mm 1,3 UV-I 428 W/m 8,9 C 9,8 C 94,9 km/h
W (10 Bft)
100,00 %
Durchschnitt _ 9,1 C 9,4 C 76 % 1005,9 hPa #17,4 l/m 28,1 km/h (4 Bft) W-SW - #2:04 h #2,032 mm 0,7 UV-I 98 W/m 5,1 C 0,4 C 42,2 km/h (6 Bft) 98,00 %